Wetterdaten: Sonntag, 15.11.2015
Datum Zeit Temp. A. Feuchte A. Luftdruck Regen Wind Richtung Richtung Sonnenschein ET UV Solar Taupunkt Windchill Windben Empfang
15.11.2015 00:00 8,2 C 76 % 1023,0 hPa 0,0 l/m 0,1 km/h (0 Bft) S-SW 193 0 min 0,000 mm 0,0 UV-I 0 W/m 4,2 C 8,2 C 1,6 km/h (1 Bft) 100,00 %
15.11.2015 00:02 8,1 C 76 % 1023,0 hPa 0,0 l/m 1,3 km/h (1 Bft) N-NW 340 0 min 0,000 mm 0,0 UV-I 0 W/m 4,1 C 8,1 C 3,2 km/h (1 Bft) 100,00 %
15.11.2015 00:03 8,1 C 77 % 1022,9 hPa 0,0 l/m 0,1 km/h (0 Bft) N-NW 340 0 min 0,000 mm 0,0 UV-I 0 W/m 4,3 C 8,1 C 1,6 km/h (1 Bft) 100,00 %
15.11.2015 00:04 8,0 C 77 % 1022,7 hPa 0,0 l/m 1,0 km/h (0 Bft) O-SO 112 0 min 0,000 mm 0,0 UV-I 0 W/m 4,2 C 8,0 C 4,8 km/h (1 Bft) 100,00 %
15.11.2015 00:05 8,0 C 76 % 1022,7 hPa 0,0 l/m 4,2 km/h (1 Bft) SW 227 0 min 0,000 mm 0,0 UV-I 0 W/m 4,0 C 8,0 C 8,0 km/h (2 Bft) 100,00 %
15.11.2015 00:06 7,9 C 77 % 1022,7 hPa 0,0 l/m 6,9 km/h (2 Bft) S-SO 157 0 min 0,000 mm 0,0 UV-I 0 W/m 4,1 C 7,5 C 9,7 km/h (2 Bft) 100,00 %
15.11.2015 00:07 7,9 C 75 % 1022,6 hPa 0,0 l/m 8,5 km/h (2 Bft) W-NW 292 0 min 0,000 mm 0,0 UV-I 0 W/m 3,7 C 6,3 C 12,9 km/h (3 Bft) 100,00 %
15.11.2015 00:08 8,0 C 75 % 1022,5 hPa 0,0 l/m 4,3 km/h (1 Bft) W 264 0 min 0,000 mm 0,0 UV-I 0 W/m 3,8 C 8,0 C 9,7 km/h (2 Bft) 100,00 %
15.11.2015 00:09 8,1 C 75 % 1022,6 hPa 0,0 l/m 3,2 km/h (1 Bft) W 277 0 min 0,000 mm 0,0 UV-I 0 W/m 3,9 C 8,1 C 6,4 km/h (2 Bft) 100,00 %
15.11.2015 00:10 8,1 C 75 % 1022,5 hPa 0,0 l/m 2,0 km/h (1 Bft) W 278 0 min 0,000 mm 0,0 UV-I 0 W/m 3,9 C 8,1 C 3,2 km/h (1 Bft) 100,00 %
15.11.2015 00:11 8,1 C 75 % 1022,5 hPa 0,0 l/m 1,0 km/h (0 Bft) W 278 0 min 0,000 mm 0,0 UV-I 0 W/m 3,9 C 8,1 C 1,6 km/h (1 Bft) 95,83 %
15.11.2015 00:12 8,1 C 75 % 1022,6 hPa 0,0 l/m 2,5 km/h (1 Bft) W 277 0 min 0,000 mm 0,0 UV-I 0 W/m 3,9 C 8,1 C 3,2 km/h (1 Bft) 100,00 %
15.11.2015 00:13 8,1 C 75 % 1022,6 hPa 0,0 l/m 3,7 km/h (1 Bft) W 281 0 min 0,000 mm 0,0 UV-I 0 W/m 3,9 C 8,1 C 6,4 km/h (2 Bft) 100,00 %
15.11.2015 00:14 8,1 C 75 % 1022,6 hPa 0,0 l/m 2,9 km/h (1 Bft) W 273 0 min 0,000 mm 0,0 UV-I 0 W/m 3,9 C 8,1 C 4,8 km/h (1 Bft) 100,00 %
15.11.2015 00:15 8,1 C 75 % 1022,7 hPa 0,0 l/m 1,7 km/h (1 Bft) W 273 0 min 0,000 mm 0,0 UV-I 0 W/m 3,9 C 8,1 C 3,2 km/h (1 Bft) 95,83 %
15.11.2015 00:16 8,0 C 76 % 1022,7 hPa 0,0 l/m 1,2 km/h (1 Bft) N-NW 336 0 min 0,000 mm 0,0 UV-I 0 W/m 4,0 C 8,0 C 1,6 km/h (1 Bft) 100,00 %
15.11.2015 00:17 7,9 C 77 % 1022,7 hPa 0,0 l/m 1,5 km/h (1 Bft) N-NW 338 0 min 0,000 mm 0,0 UV-I 0 W/m 4,1 C 7,9 C 3,2 km/h (1 Bft) 100,00 %
15.11.2015 00:18 7,8 C 78 % 1022,7 hPa 0,0 l/m 0,5 km/h (0 Bft) N-NW 337 0 min 0,000 mm 0,0 UV-I 0 W/m 4,2 C 7,8 C 1,6 km/h (1 Bft) 100,00 %
15.11.2015 00:19 7,7 C 80 % 1022,7 hPa 0,0 l/m 1,0 km/h (0 Bft) N-NW 337 0 min 0,000 mm 0,0 UV-I 0 W/m 4,5 C 7,7 C 3,2 km/h (1 Bft) 100,00 %
15.11.2015 00:20 7,5 C 80 % 1022,8 hPa 0,0 l/m 0,0 km/h (0 Bft) N-NW 337 0 min 0,000 mm 0,0 UV-I 0 W/m 4,3 C 7,5 C 0,0 km/h (0 Bft) 100,00 %
15.11.2015 00:21 7,4 C 81 % 1022,8 hPa 0,0 l/m 0,4 km/h (0 Bft) N-NW 337 0 min 0,000 mm 0,0 UV-I 0 W/m 4,4 C 7,4 C 1,6 km/h (1 Bft) 100,00 %
15.11.2015 00:22 7,3 C 81 % 1022,9 hPa 0,0 l/m 1,3 km/h (1 Bft) N-NW 333 0 min 0,000 mm 0,0 UV-I 0 W/m 4,3 C 7,3 C 3,2 km/h (1 Bft) 100,00 %
15.11.2015 00:23 7,3 C 80 % 1022,9 hPa 0,0 l/m 3,6 km/h (1 Bft) W-SW 244 0 min 0,000 mm 0,0 UV-I 0 W/m 4,1 C 7,3 C 8,0 km/h (2 Bft) 100,00 %
15.11.2015 00:24 7,2 C 80 % 1022,9 hPa 0,0 l/m 4,5 km/h (1 Bft) W-NW 286 0 min 0,000 mm 0,0 UV-I 0 W/m 4,0 C 7,2 C 6,4 km/h (2 Bft) 91,67 %
15.11.2015 00:25 7,3 C 80 % 1022,9 hPa 0,0 l/m 5,3 km/h (1 Bft) W-NW 294 0 min 0,000 mm 0,0 UV-I 0 W/m 4,1 C 7,3 C 6,4 km/h (2 Bft) 100,00 %
15.11.2015 00:26 7,3 C 80 % 1022,8 hPa 0,0 l/m 3,8 km/h (1 Bft) W 279 0 min 0,000 mm 0,0 UV-I 0 W/m 4,1 C 7,3 C 6,4 km/h (2 Bft) 100,00 %
15.11.2015 00:27 7,3 C 79 % 1022,9 hPa 0,0 l/m 4,7 km/h (1 Bft) W 281 0 min 0,000 mm 0,0 UV-I 0 W/m 3,9 C 7,3 C 6,4 km/h (2 Bft) 100,00 %
15.11.2015 00:28 7,3 C 79 % 1022,8 hPa 0,0 l/m 5,2 km/h (1 Bft) W 261 0 min 0,000 mm 0,0 UV-I 0 W/m 3,9 C 7,3 C 9,7 km/h (2 Bft) 100,00 %
15.11.2015 00:29 7,4 C 79 % 1022,9 hPa 0,0 l/m 4,3 km/h (1 Bft) W 281 0 min 0,000 mm 0,0 UV-I 0 W/m 4,0 C 7,4 C 6,4 km/h (2 Bft) 100,00 %
15.11.2015 00:30 7,4 C 78 % 1022,9 hPa 0,0 l/m 5,1 km/h (1 Bft) W 281 0 min 0,000 mm 0,0 UV-I 0 W/m 3,8 C 7,4 C 6,4 km/h (2 Bft) 100,00 %
15.11.2015 00:31 7,5 C 78 % 1022,8 hPa 0,0 l/m 4,6 km/h (1 Bft) W-SW 246 0 min 0,000 mm 0,0 UV-I 0 W/m 3,9 C 7,5 C 6,4 km/h (2 Bft) 100,00 %
15.11.2015 00:32 7,6 C 78 % 1022,8 hPa 0,0 l/m 2,9 km/h (1 Bft) W 264 0 min 0,000 mm 0,0 UV-I 0 W/m 4,0 C 7,6 C 6,4 km/h (2 Bft) 100,00 %
15.11.2015 00:33 7,6 C 78 % 1022,8 hPa 0,0 l/m 3,7 km/h (1 Bft) W-SW 244 0 min 0,000 mm 0,0 UV-I 0 W/m 4,0 C 7,6 C 4,8 km/h (1 Bft) 100,00 %
15.11.2015 00:34 7,6 C 78 % 1022,8 hPa 0,0 l/m 4,8 km/h (1 Bft) W-NW 290 0 min 0,000 mm 0,0 UV-I 0 W/m 4,0 C 7,6 C 8,0 km/h (2 Bft) 100,00 %
15.11.2015 00:35 7,6 C 78 % 1022,8 hPa 0,0 l/m 3,8 km/h (1 Bft) W-NW 288 0 min 0,000 mm 0,0 UV-I 0 W/m 4,0 C 7,6 C 6,4 km/h (2 Bft) 100,00 %
15.11.2015 00:36 7,7 C 78 % 1022,8 hPa 0,0 l/m 5,0 km/h (1 Bft) W-SW 238 0 min 0,000 mm 0,0 UV-I 0 W/m 4,1 C 7,7 C 9,7 km/h (2 Bft) 96,15 %
15.11.2015 00:37 7,7 C 78 % 1022,8 hPa 0,0 l/m 4,3 km/h (1 Bft) W 266 0 min 0,000 mm 0,0 UV-I 0 W/m 4,1 C 7,7 C 6,4 km/h (2 Bft) 100,00 %
15.11.2015 00:38 7,7 C 78 % 1022,8 hPa 0,0 l/m 4,6 km/h (1 Bft) W 277 0 min 0,000 mm 0,0 UV-I 0 W/m 4,1 C 7,7 C 9,7 km/h (2 Bft) 100,00 %
15.11.2015 00:39 7,7 C 78 % 1022,7 hPa 0,0 l/m 3,6 km/h (1 Bft) W-SW 252 0 min 0,000 mm 0,0 UV-I 0 W/m 4,1 C 7,7 C 9,7 km/h (2 Bft) 100,00 %
15.11.2015 00:40 7,7 C 78 % 1022,6 hPa 0,0 l/m 5,1 km/h (1 Bft) W 259 0 min 0,000 mm 0,0 UV-I 0 W/m 4,1 C 7,7 C 8,0 km/h (2 Bft) 100,00 %
15.11.2015 00:41 7,7 C 77 % 1022,5 hPa 0,0 l/m 3,0 km/h (1 Bft) W-SW 240 0 min 0,000 mm 0,0 UV-I 0 W/m 3,9 C 7,7 C 4,8 km/h (1 Bft) 100,00 %
15.11.2015 00:42 7,7 C 77 % 1022,4 hPa 0,0 l/m 3,5 km/h (1 Bft) W-SW 248 0 min 0,000 mm 0,0 UV-I 0 W/m 3,9 C 7,7 C 6,4 km/h (2 Bft) 100,00 %
15.11.2015 00:43 7,8 C 77 % 1022,3 hPa 0,0 l/m 3,0 km/h (1 Bft) W 262 0 min 0,000 mm 0,0 UV-I 0 W/m 4,0 C 7,8 C 4,8 km/h (1 Bft) 100,00 %
15.11.2015 00:44 7,8 C 77 % 1022,3 hPa 0,0 l/m 3,4 km/h (1 Bft) W 263 0 min 0,000 mm 0,0 UV-I 0 W/m 4,0 C 7,8 C 4,8 km/h (1 Bft) 100,00 %
15.11.2015 00:45 7,8 C 77 % 1022,3 hPa 0,0 l/m 3,1 km/h (1 Bft) W-SW 238 0 min 0,000 mm 0,0 UV-I 0 W/m 4,0 C 7,8 C 4,8 km/h (1 Bft) 100,00 %
15.11.2015 00:46 7,8 C 77 % 1022,2 hPa 0,0 l/m 4,0 km/h (1 Bft) W 272 0 min 0,000 mm 0,0 UV-I 0 W/m 4,0 C 7,8 C 4,8 km/h (1 Bft) 100,00 %
15.11.2015 00:47 7,8 C 76 % 1022,2 hPa 0,0 l/m 4,8 km/h (1 Bft) W 275 0 min 0,000 mm 0,0 UV-I 0 W/m 3,8 C 7,8 C 6,4 km/h (2 Bft) 100,00 %
15.11.2015 00:48 7,9 C 76 % 1022,3 hPa 0,0 l/m 4,2 km/h (1 Bft) W-SW 249 0 min 0,000 mm 0,0 UV-I 0 W/m 3,9 C 7,9 C 6,4 km/h (2 Bft) 100,00 %
15.11.2015 00:49 7,9 C 76 % 1022,3 hPa 0,0 l/m 5,0 km/h (1 Bft) W 278 0 min 0,000 mm 0,0 UV-I 0 W/m 3,9 C 7,9 C 6,4 km/h (2 Bft) 100,00 %
15.11.2015 00:50 7,9 C 76 % 1022,2 hPa 0,0 l/m 4,3 km/h (1 Bft) W 265 0 min 0,000 mm 0,0 UV-I 0 W/m 3,9 C 7,9 C 6,4 km/h (2 Bft) 95,65 %
15.11.2015 00:51 7,9 C 76 % 1022,2 hPa 0,0 l/m 3,8 km/h (1 Bft) W-SW 237 0 min 0,000 mm 0,0 UV-I 0 W/m 3,9 C 7,9 C 6,4 km/h (2 Bft) 100,00 %
15.11.2015 00:52 7,9 C 77 % 1022,2 hPa 0,0 l/m 3,3 km/h (1 Bft) W-SW 244 0 min 0,000 mm 0,0 UV-I 0 W/m 4,1 C 7,9 C 4,8 km/h (1 Bft) 100,00 %
15.11.2015 00:53 7,9 C 76 % 1022,1 hPa 0,0 l/m 5,2 km/h (1 Bft) W-SW 242 0 min 0,000 mm 0,0 UV-I 0 W/m 3,9 C 7,9 C 8,0 km/h (2 Bft) 95,83 %
15.11.2015 00:54 7,9 C 77 % 1022,1 hPa 0,0 l/m 4,1 km/h (1 Bft) SW 234 0 min 0,000 mm 0,0 UV-I 0 W/m 4,1 C 7,9 C 6,4 km/h (2 Bft) 99,43 %
15.11.2015 00:55 7,9 C 77 % 1022,0 hPa 0,0 l/m 3,4 km/h (1 Bft) W-SW 254 0 min 0,000 mm 0,0 UV-I 0 W/m 4,1 C 7,9 C 6,4 km/h (2 Bft) 100,00 %
15.11.2015 00:56 7,8 C 77 % 1022,0 hPa 0,0 l/m 2,6 km/h (1 Bft) W-SW 250 0 min 0,000 mm 0,0 UV-I 0 W/m 4,0 C 7,8 C 6,4 km/h (2 Bft) 100,00 %
15.11.2015 00:57 7,8 C 77 % 1021,9 hPa 0,0 l/m 4,3 km/h (1 Bft) W 261 0 min 0,000 mm 0,0 UV-I 0 W/m 4,0 C 7,8 C 6,4 km/h (2 Bft) 100,00 %
15.11.2015 00:58 7,8 C 77 % 1022,0 hPa 0,0 l/m 4,2 km/h (1 Bft) W-NW 285 0 min 0,000 mm 0,0 UV-I 0 W/m 4,0 C 7,8 C 6,4 km/h (2 Bft) 95,83 %
15.11.2015 00:59 7,8 C 77 % 1022,1 hPa 0,0 l/m 4,8 km/h (1 Bft) W 280 0 min 0,000 mm 0,0 UV-I 0 W/m 4,0 C 7,8 C 6,4 km/h (2 Bft) 100,00 %
15.11.2015 01:00 7,8 C 77 % 1022,2 hPa 0,0 l/m 4,5 km/h (1 Bft) W 276 0 min 0,000 mm 0,0 UV-I 0 W/m 4,0 C 7,8 C 6,4 km/h (2 Bft) 100,00 %
15.11.2015 01:01 7,8 C 77 % 1022,2 hPa 0,0 l/m 4,9 km/h (1 Bft) W 268 0 min 0,000 mm 0,0 UV-I 0 W/m 4,0 C 7,8 C 9,7 km/h (2 Bft) 100,00 %
15.11.2015 01:02 7,8 C 77 % 1022,3 hPa 0,0 l/m 5,2 km/h (1 Bft) W 271 0 min 0,000 mm 0,0 UV-I 0 W/m 4,0 C 7,8 C 8,0 km/h (2 Bft) 100,00 %
15.11.2015 01:03 7,9 C 77 % 1022,2 hPa 0,0 l/m 4,6 km/h (1 Bft) W 261 0 min 0,000 mm 0,0 UV-I 0 W/m 4,1 C 7,9 C 6,4 km/h (2 Bft) 100,00 %
15.11.2015 01:04 7,9 C 77 % 1022,1 hPa 0,0 l/m 4,6 km/h (1 Bft) W 275 0 min 0,000 mm 0,0 UV-I 0 W/m 4,1 C 7,9 C 9,7 km/h (2 Bft) 100,00 %
15.11.2015 01:05 7,9 C 76 % 1022,0 hPa 0,0 l/m 4,3 km/h (1 Bft) W-NW 293 0 min 0,000 mm 0,0 UV-I 0 W/m 3,9 C 7,9 C 6,4 km/h (2 Bft) 100,00 %
15.11.2015 01:06 7,9 C 76 % 1022,0 hPa 0,0 l/m 5,1 km/h (1 Bft) W 280 0 min 0,000 mm 0,0 UV-I 0 W/m 3,9 C 7,9 C 6,4 km/h (2 Bft) 100,00 %
15.11.2015 01:07 7,9 C 76 % 1022,1 hPa 0,0 l/m 4,4 km/h (1 Bft) W 271 0 min 0,000 mm 0,0 UV-I 0 W/m 3,9 C 7,9 C 4,8 km/h (1 Bft) 100,00 %
15.11.2015 01:08 8,0 C 77 % 1022,0 hPa 0,0 l/m 5,0 km/h (1 Bft) W-SW 258 0 min 0,000 mm 0,0 UV-I 0 W/m 4,2 C 8,0 C 9,7 km/h (2 Bft) 96,67 %
15.11.2015 01:09 8,0 C 76 % 1022,0 hPa 0,0 l/m 6,3 km/h (2 Bft) W-SW 258 0 min 0,000 mm 0,0 UV-I 0 W/m 4,0 C 8,0 C 9,7 km/h (2 Bft) 100,00 %
15.11.2015 01:10 8,0 C 76 % 1021,8 hPa 0,0 l/m 4,6 km/h (1 Bft) W 270 0 min 0,000 mm 0,0 UV-I 0 W/m 4,0 C 8,0 C 9,7 km/h (2 Bft) 100,00 %
15.11.2015 01:11 8,0 C 76 % 1021,8 hPa 0,0 l/m 3,8 km/h (1 Bft) W 276 0 min 0,000 mm 0,0 UV-I 0 W/m 4,0 C 8,0 C 6,4 km/h (2 Bft) 100,00 %
15.11.2015 01:12 8,0 C 77 % 1021,8 hPa 0,0 l/m 3,1 km/h (1 Bft) W 277 0 min 0,000 mm 0,0 UV-I 0 W/m 4,2 C 8,0 C 4,8 km/h (1 Bft) 100,00 %
15.11.2015 01:13 8,0 C 77 % 1021,8 hPa 0,0 l/m 4,0 km/h (1 Bft) SW 223 0 min 0,000 mm 0,0 UV-I 0 W/m 4,2 C 8,0 C 4,8 km/h (1 Bft) 100,00 %
15.11.2015 01:14 7,9 C 77 % 1021,8 hPa 0,0 l/m 2,7 km/h (1 Bft) W 275 0 min 0,000 mm 0,0 UV-I 0 W/m 4,1 C 7,9 C 4,8 km/h (1 Bft) 100,00 %
15.11.2015 01:15 7,9 C 77 % 1021,8 hPa 0,0 l/m 4,3 km/h (1 Bft) W 277 0 min 0,000 mm 0,0 UV-I 0 W/m 4,1 C 7,9 C 6,4 km/h (2 Bft) 96,15 %
15.11.2015 01:16 7,9 C 76 % 1021,8 hPa 0,0 l/m 4,7 km/h (1 Bft) W 273 0 min 0,000 mm 0,0 UV-I 0 W/m 3,9 C 7,9 C 6,4 km/h (2 Bft) 91,67 %
15.11.2015 01:17 7,9 C 77 % 1021,8 hPa 0,0 l/m 2,7 km/h (1 Bft) W 271 0 min 0,000 mm 0,0 UV-I 0 W/m 4,1 C 7,9 C 4,8 km/h (1 Bft) 100,00 %
15.11.2015 01:18 7,9 C 77 % 1021,7 hPa 0,0 l/m 3,8 km/h (1 Bft) W-NW 299 0 min 0,000 mm 0,0 UV-I 0 W/m 4,1 C 7,9 C 6,4 km/h (2 Bft) 100,00 %
15.11.2015 01:19 7,9 C 77 % 1021,6 hPa 0,0 l/m 2,8 km/h (1 Bft) W 273 0 min 0,000 mm 0,0 UV-I 0 W/m 4,1 C 7,9 C 4,8 km/h (1 Bft) 100,00 %
15.11.2015 01:20 7,9 C 77 % 1021,7 hPa 0,0 l/m 4,9 km/h (1 Bft) W-NW 287 0 min 0,000 mm 0,0 UV-I 0 W/m 4,1 C 7,9 C 6,4 km/h (2 Bft) 100,00 %
15.11.2015 01:21 7,9 C 77 % 1021,6 hPa 0,0 l/m 4,3 km/h (1 Bft) W 274 0 min 0,000 mm 0,0 UV-I 0 W/m 4,1 C 7,9 C 6,4 km/h (2 Bft) 100,00 %
15.11.2015 01:22 7,9 C 77 % 1021,6 hPa 0,0 l/m 3,0 km/h (1 Bft) W-SW 248 0 min 0,000 mm 0,0 UV-I 0 W/m 4,1 C 7,9 C 4,8 km/h (1 Bft) 100,00 %
15.11.2015 01:23 7,9 C 78 % 1021,5 hPa 0,0 l/m 2,3 km/h (1 Bft) W-SW 248 0 min 0,000 mm 0,0 UV-I 0 W/m 4,3 C 7,9 C 3,2 km/h (1 Bft) 100,00 %
15.11.2015 01:24 7,8 C 78 % 1021,5 hPa 0,0 l/m 2,7 km/h (1 Bft) W 260 0 min 0,000 mm 0,0 UV-I 0 W/m 4,2 C 7,8 C 4,8 km/h (1 Bft) 100,00 %
15.11.2015 01:25 7,8 C 77 % 1021,5 hPa 0,0 l/m 3,6 km/h (1 Bft) SW 233 0 min 0,000 mm 0,0 UV-I 0 W/m 4,0 C 7,8 C 4,8 km/h (1 Bft) 100,00 %
15.11.2015 01:26 7,8 C 78 % 1021,6 hPa 0,0 l/m 3,0 km/h (1 Bft) W 269 0 min 0,000 mm 0,0 UV-I 0 W/m 4,2 C 7,8 C 4,8 km/h (1 Bft) 100,00 %
15.11.2015 01:27 7,8 C 78 % 1021,6 hPa 0,0 l/m 4,3 km/h (1 Bft) W-SW 251 0 min 0,000 mm 0,0 UV-I 0 W/m 4,2 C 7,8 C 6,4 km/h (2 Bft) 95,83 %
15.11.2015 01:28 7,9 C 78 % 1021,6 hPa 0,0 l/m 2,0 km/h (1 Bft) W-SW 258 0 min 0,000 mm 0,0 UV-I 0 W/m 4,3 C 7,9 C 4,8 km/h (1 Bft) 100,00 %
15.11.2015 01:29 7,8 C 78 % 1021,7 hPa 0,0 l/m 3,2 km/h (1 Bft) W 259 0 min 0,000 mm 0,0 UV-I 0 W/m 4,2 C 7,8 C 4,8 km/h (1 Bft) 100,00 %
15.11.2015 01:30 7,8 C 78 % 1021,6 hPa 0,0 l/m 2,3 km/h (1 Bft) W 261 0 min 0,000 mm 0,0 UV-I 0 W/m 4,2 C 7,8 C 4,8 km/h (1 Bft) 100,00 %
15.11.2015 01:31 7,8 C 78 % 1021,6 hPa 0,0 l/m 2,3 km/h (1 Bft) SW 235 0 min 0,000 mm 0,0 UV-I 0 W/m 4,2 C 7,8 C 4,8 km/h (1 Bft) 100,00 %
15.11.2015 01:32 7,8 C 78 % 1021,5 hPa 0,0 l/m 1,9 km/h (1 Bft) W 278 0 min 0,000 mm 0,0 UV-I 0 W/m 4,2 C 7,8 C 3,2 km/h (1 Bft) 100,00 %
15.11.2015 01:33 7,8 C 78 % 1021,5 hPa 0,0 l/m 5,8 km/h (2 Bft) S-SW 209 0 min 0,000 mm 0,0 UV-I 0 W/m 4,2 C 7,8 C 8,0 km/h (2 Bft) 100,00 %
15.11.2015 01:34 7,8 C 78 % 1021,5 hPa 0,0 l/m 5,4 km/h (1 Bft) S-SW 202 0 min 0,000 mm 0,0 UV-I 0 W/m 4,2 C 7,8 C 8,0 km/h (2 Bft) 100,00 %
15.11.2015 01:35 7,8 C 78 % 1021,5 hPa 0,0 l/m 3,4 km/h (1 Bft) SW 236 0 min 0,000 mm 0,0 UV-I 0 W/m 4,2 C 7,8 C 6,4 km/h (2 Bft) 100,00 %
15.11.2015 01:36 7,8 C 78 % 1021,6 hPa 0,0 l/m 5,4 km/h (1 Bft) SW 223 0 min 0,000 mm 0,0 UV-I 0 W/m 4,2 C 7,8 C 11,3 km/h (2 Bft) 100,00 %
15.11.2015 01:37 7,8 C 78 % 1021,6 hPa 0,0 l/m 6,0 km/h (2 Bft) W-SW 248 0 min 0,000 mm 0,0 UV-I 0 W/m 4,2 C 7,8 C 8,0 km/h (2 Bft) 95,83 %
15.11.2015 01:38 7,8 C 78 % 1021,7 hPa 0,0 l/m 4,6 km/h (1 Bft) S-SW 213 0 min 0,000 mm 0,0 UV-I 0 W/m 4,2 C 7,8 C 6,4 km/h (2 Bft) 100,00 %
15.11.2015 01:39 7,8 C 78 % 1021,7 hPa 0,0 l/m 2,8 km/h (1 Bft) W-SW 257 0 min 0,000 mm 0,0 UV-I 0 W/m 4,2 C 7,8 C 4,8 km/h (1 Bft) 100,00 %
15.11.2015 01:40 7,8 C 78 % 1021,8 hPa 0,0 l/m 3,1 km/h (1 Bft) SW 218 0 min 0,000 mm 0,0 UV-I 0 W/m 4,2 C 7,8 C 6,4 km/h (2 Bft) 100,00 %
15.11.2015 01:41 7,8 C 79 % 1021,8 hPa 0,0 l/m 3,2 km/h (1 Bft) W-SW 252 0 min 0,000 mm 0,0 UV-I 0 W/m 4,4 C 7,8 C 4,8 km/h (1 Bft) 100,00 %
15.11.2015 01:42 7,7 C 79 % 1021,7 hPa 0,0 l/m 1,9 km/h (1 Bft) W-SW 238 0 min 0,000 mm 0,0 UV-I 0 W/m 4,3 C 7,7 C 3,2 km/h (1 Bft) 100,00 %
15.11.2015 01:43 7,7 C 79 % 1021,7 hPa 0,0 l/m 3,8 km/h (1 Bft) W 263 0 min 0,000 mm 0,0 UV-I 0 W/m 4,3 C 7,7 C 4,8 km/h (1 Bft) 91,67 %
15.11.2015 01:44 7,7 C 79 % 1021,9 hPa 0,0 l/m 3,9 km/h (1 Bft) W-NW 284 0 min 0,000 mm 0,0 UV-I 0 W/m 4,3 C 7,7 C 6,4 km/h (2 Bft) 100,00 %
15.11.2015 01:45 7,7 C 79 % 1021,8 hPa 0,0 l/m 3,6 km/h (1 Bft) W-SW 252 0 min 0,000 mm 0,0 UV-I 0 W/m 4,3 C 7,7 C 11,3 km/h (2 Bft) 95,65 %
15.11.2015 01:46 7,6 C 80 % 1021,8 hPa 0,0 l/m 3,7 km/h (1 Bft) W 271 0 min 0,000 mm 0,0 UV-I 0 W/m 4,4 C 7,6 C 4,8 km/h (1 Bft) 100,00 %
15.11.2015 01:47 7,6 C 80 % 1021,9 hPa 0,0 l/m 4,2 km/h (1 Bft) SW 230 0 min 0,000 mm 0,0 UV-I 0 W/m 4,4 C 7,6 C 6,4 km/h (2 Bft) 100,00 %
15.11.2015 01:48 7,6 C 80 % 1021,9 hPa 0,0 l/m 5,6 km/h (1 Bft) W 267 0 min 0,000 mm 0,0 UV-I 0 W/m 4,4 C 7,6 C 9,7 km/h (2 Bft) 100,00 %
15.11.2015 01:49 7,7 C 80 % 1022,0 hPa 0,0 l/m 5,9 km/h (2 Bft) SW 223 0 min 0,000 mm 0,0 UV-I 0 W/m 4,5 C 7,7 C 9,7 km/h (2 Bft) 100,00 %
15.11.2015 01:50 7,7 C 80 % 1022,0 hPa 0,0 l/m 7,2 km/h (2 Bft) W-SW 254 0 min 0,000 mm 0,0 UV-I 0 W/m 4,5 C 7,1 C 14,5 km/h (3 Bft) 100,00 %
15.11.2015 01:51 7,6 C 80 % 1022,0 hPa 0,0 l/m 5,1 km/h (1 Bft) W 278 0 min 0,000 mm 0,0 UV-I 0 W/m 4,4 C 7,6 C 6,4 km/h (2 Bft) 100,00 %
15.11.2015 01:52 7,7 C 80 % 1022,0 hPa 0,0 l/m 7,0 km/h (2 Bft) W-SW 257 0 min 0,000 mm 0,0 UV-I 0 W/m 4,5 C 7,2 C 12,9 km/h (3 Bft) 100,00 %
15.11.2015 01:53 7,7 C 80 % 1022,0 hPa 0,0 l/m 4,7 km/h (1 Bft) W 273 0 min 0,000 mm 0,0 UV-I 0 W/m 4,5 C 7,7 C 6,4 km/h (2 Bft) 100,00 %
15.11.2015 01:54 7,7 C 80 % 1022,0 hPa 0,0 l/m 4,6 km/h (1 Bft) W 265 0 min 0,000 mm 0,0 UV-I 0 W/m 4,5 C 7,7 C 8,0 km/h (2 Bft) 100,00 %
15.11.2015 01:55 7,7 C 80 % 1021,9 hPa 0,0 l/m 5,8 km/h (2 Bft) W 268 0 min 0,000 mm 0,0 UV-I 0 W/m 4,5 C 7,7 C 11,3 km/h (2 Bft) 100,00 %
15.11.2015 01:56 7,8 C 80 % 1021,8 hPa 0,0 l/m 4,1 km/h (1 Bft) W-SW 252 0 min 0,000 mm 0,0 UV-I 0 W/m 4,6 C 7,8 C 8,0 km/h (2 Bft) 100,00 %
15.11.2015 01:57 7,8 C 80 % 1021,8 hPa 0,0 l/m 4,3 km/h (1 Bft) W-SW 252 0 min 0,000 mm 0,0 UV-I 0 W/m 4,6 C 7,8 C 6,4 km/h (2 Bft) 100,00 %
15.11.2015 01:58 7,8 C 80 % 1021,8 hPa 0,0 l/m 4,8 km/h (1 Bft) W-SW 251 0 min 0,000 mm 0,0 UV-I 0 W/m 4,6 C 7,8 C 8,0 km/h (2 Bft) 100,00 %
15.11.2015 01:59 7,8 C 79 % 1021,8 hPa 0,0 l/m 6,8 km/h (2 Bft) W 261 0 min 0,000 mm 0,0 UV-I 0 W/m 4,4 C 7,5 C 11,3 km/h (2 Bft) 96,55 %
15.11.2015 02:00 7,8 C 79 % 1021,8 hPa 0,0 l/m 6,0 km/h (2 Bft) SW 231 0 min 0,025 mm 0,0 UV-I 0 W/m 4,4 C 7,8 C 11,3 km/h (2 Bft) 100,00 %
15.11.2015 02:01 7,9 C 79 % 1021,9 hPa 0,0 l/m 4,9 km/h (1 Bft) W 262 0 min 0,000 mm 0,0 UV-I 0 W/m 4,5 C 7,9 C 6,4 km/h (2 Bft) 100,00 %
15.11.2015 02:02 7,9 C 79 % 1021,9 hPa 0,0 l/m 5,6 km/h (1 Bft) W 267 0 min 0,000 mm 0,0 UV-I 0 W/m 4,5 C 7,9 C 9,7 km/h (2 Bft) 100,00 %
15.11.2015 02:03 7,9 C 80 % 1022,0 hPa 0,0 l/m 4,2 km/h (1 Bft) W-SW 256 0 min 0,000 mm 0,0 UV-I 0 W/m 4,7 C 7,9 C 6,4 km/h (2 Bft) 95,65 %
15.11.2015 02:04 7,9 C 80 % 1022,0 hPa 0,0 l/m 5,9 km/h (2 Bft) SW 232 0 min 0,000 mm 0,0 UV-I 0 W/m 4,7 C 7,9 C 8,0 km/h (2 Bft) 100,00 %
15.11.2015 02:05 7,9 C 80 % 1022,0 hPa 0,0 l/m 4,3 km/h (1 Bft) W 261 0 min 0,000 mm 0,0 UV-I 0 W/m 4,7 C 7,9 C 6,4 km/h (2 Bft) 100,00 %
15.11.2015 02:06 7,9 C 79 % 1022,0 hPa 0,0 l/m 6,9 km/h (2 Bft) W-NW 299 0 min 0,000 mm 0,0 UV-I 0 W/m 4,5 C 7,5 C 11,3 km/h (2 Bft) 96,55 %
15.11.2015 02:07 7,9 C 79 % 1022,0 hPa 0,0 l/m 5,1 km/h (1 Bft) SW 223 0 min 0,000 mm 0,0 UV-I 0 W/m 4,5 C 7,9 C 8,0 km/h (2 Bft) 100,00 %
15.11.2015 02:08 8,0 C 79 % 1022,0 hPa 0,0 l/m 7,8 km/h (2 Bft) SW 230 0 min 0,000 mm 0,0 UV-I 0 W/m 4,6 C 6,9 C 14,5 km/h (3 Bft) 100,00 %
15.11.2015 02:09 8,0 C 79 % 1021,9 hPa 0,0 l/m 7,2 km/h (2 Bft) W-NW 292 0 min 0,000 mm 0,0 UV-I 0 W/m 4,6 C 7,4 C 11,3 km/h (2 Bft) 100,00 %
15.11.2015 02:10 8,0 C 79 % 1021,8 hPa 0,0 l/m 6,6 km/h (2 Bft) W 278 0 min 0,000 mm 0,0 UV-I 0 W/m 4,6 C 7,9 C 12,9 km/h (3 Bft) 95,65 %
15.11.2015 02:11 8,0 C 79 % 1021,8 hPa 0,0 l/m 7,1 km/h (2 Bft) W-NW 288 0 min 0,000 mm 0,0 UV-I 0 W/m 4,6 C 7,4 C 14,5 km/h (3 Bft) 100,00 %
15.11.2015 02:12 8,1 C 79 % 1021,8 hPa 0,0 l/m 5,5 km/h (1 Bft) W-NW 295 0 min 0,000 mm 0,0 UV-I 0 W/m 4,7 C 8,1 C 9,7 km/h (2 Bft) 96,15 %
15.11.2015 02:13 8,1 C 79 % 1021,7 hPa 0,0 l/m 5,6 km/h (1 Bft) W-NW 291 0 min 0,000 mm 0,0 UV-I 0 W/m 4,7 C 8,1 C 11,3 km/h (2 Bft) 100,00 %
15.11.2015 02:14 8,1 C 79 % 1021,7 hPa 0,0 l/m 6,0 km/h (2 Bft) W 275 0 min 0,000 mm 0,0 UV-I 0 W/m 4,7 C 8,1 C 8,0 km/h (2 Bft) 100,00 %
15.11.2015 02:15 8,1 C 79 % 1021,7 hPa 0,0 l/m 6,6 km/h (2 Bft) W-NW 288 0 min 0,000 mm 0,0 UV-I 0 W/m 4,7 C 8,0 C 12,9 km/h (3 Bft) 100,00 %
15.11.2015 02:16 8,1 C 79 % 1021,8 hPa 0,0 l/m 7,6 km/h (2 Bft) W-SW 247 0 min 0,000 mm 0,0 UV-I 0 W/m 4,7 C 7,2 C 14,5 km/h (3 Bft) 95,65 %
15.11.2015 02:17 8,1 C 79 % 1021,9 hPa 0,0 l/m 6,7 km/h (2 Bft) W-SW 252 0 min 0,000 mm 0,0 UV-I 0 W/m 4,7 C 7,9 C 11,3 km/h (2 Bft) 100,00 %
15.11.2015 02:18 8,1 C 79 % 1022,0 hPa 0,0 l/m 6,6 km/h (2 Bft) W 277 0 min 0,000 mm 0,0 UV-I 0 W/m 4,7 C 8,0 C 9,7 km/h (2 Bft) 100,00 %
15.11.2015 02:19 8,1 C 79 % 1021,9 hPa 0,0 l/m 7,2 km/h (2 Bft) W 260 0 min 0,000 mm 0,0 UV-I 0 W/m 4,7 C 7,5 C 12,9 km/h (3 Bft) 100,00 %
15.11.2015 02:20 8,2 C 79 % 1021,8 hPa 0,0 l/m 5,0 km/h (1 Bft) S-SW 212 0 min 0,000 mm 0,0 UV-I 0 W/m 4,8 C 8,2 C 6,4 km/h (2 Bft) 100,00 %
15.11.2015 02:21 8,1 C 80 % 1021,8 hPa 0,0 l/m 5,0 km/h (1 Bft) W 259 0 min 0,000 mm 0,0 UV-I 0 W/m 4,9 C 8,1 C 11,3 km/h (2 Bft) 95,83 %
15.11.2015 02:22 8,1 C 79 % 1021,7 hPa 0,0 l/m 4,9 km/h (1 Bft) W-SW 248 0 min 0,000 mm 0,0 UV-I 0 W/m 4,7 C 8,1 C 6,4 km/h (2 Bft) 100,00 %
15.11.2015 02:23 8,1 C 79 % 1021,7 hPa 0,0 l/m 4,4 km/h (1 Bft) SW 232 0 min 0,000 mm 0,0 UV-I 0 W/m 4,7 C 8,1 C 6,4 km/h (2 Bft) 100,00 %
15.11.2015 02:24 8,1 C 79 % 1021,6 hPa 0,0 l/m 4,1 km/h (1 Bft) W 261 0 min 0,000 mm 0,0 UV-I 0 W/m 4,7 C 8,1 C 4,8 km/h (1 Bft) 100,00 %
15.11.2015 02:25 8,1 C 80 % 1021,5 hPa 0,0 l/m 4,7 km/h (1 Bft) W-NW 302 0 min 0,000 mm 0,0 UV-I 0 W/m 4,9 C 8,1 C 8,0 km/h (2 Bft) 100,00 %
15.11.2015 02:26 8,1 C 80 % 1021,5 hPa 0,0 l/m 3,5 km/h (1 Bft) SW 221 0 min 0,000 mm 0,0 UV-I 0 W/m 4,9 C 8,1 C 6,4 km/h (2 Bft) 100,00 %
15.11.2015 02:27 8,1 C 80 % 1021,4 hPa 0,0 l/m 3,7 km/h (1 Bft) W-SW 237 0 min 0,000 mm 0,0 UV-I 0 W/m 4,9 C 8,1 C 6,4 km/h (2 Bft) 100,00 %
15.11.2015 02:28 8,1 C 80 % 1021,3 hPa 0,0 l/m 4,9 km/h (1 Bft) W-SW 248 0 min 0,000 mm 0,0 UV-I 0 W/m 4,9 C 8,1 C 8,0 km/h (2 Bft) 95,83 %
15.11.2015 02:29 8,1 C 79 % 1021,3 hPa 0,0 l/m 3,6 km/h (1 Bft) W-SW 246 0 min 0,000 mm 0,0 UV-I 0 W/m 4,7 C 8,1 C 4,8 km/h (1 Bft) 100,00 %
15.11.2015 02:30 8,1 C 80 % 1021,3 hPa 0,0 l/m 2,7 km/h (1 Bft) W-SW 238 0 min 0,000 mm 0,0 UV-I 0 W/m 4,9 C 8,1 C 4,8 km/h (1 Bft) 100,00 %
15.11.2015 02:31 8,1 C 79 % 1021,2 hPa 0,0 l/m 3,3 km/h (1 Bft) W 273 0 min 0,000 mm 0,0 UV-I 0 W/m 4,7 C 8,1 C 4,8 km/h (1 Bft) 100,00 %
15.11.2015 02:32 8,1 C 79 % 1021,2 hPa 0,0 l/m 4,4 km/h (1 Bft) W 267 0 min 0,000 mm 0,0 UV-I 0 W/m 4,7 C 8,1 C 6,4 km/h (2 Bft) 100,00 %
15.11.2015 02:33 8,1 C 80 % 1021,2 hPa 0,0 l/m 3,9 km/h (1 Bft) S-SW 211 0 min 0,000 mm 0,0 UV-I 0 W/m 4,9 C 8,1 C 6,4 km/h (2 Bft) 96,15 %
15.11.2015 02:34 8,1 C 80 % 1021,2 hPa 0,0 l/m 3,9 km/h (1 Bft) W-SW 248 0 min 0,000 mm 0,0 UV-I 0 W/m 4,9 C 8,1 C 6,4 km/h (2 Bft) 100,00 %
15.11.2015 02:35 8,1 C 80 % 1021,3 hPa 0,0 l/m 4,9 km/h (1 Bft) W-SW 252 0 min 0,000 mm 0,0 UV-I 0 W/m 4,9 C 8,1 C 6,4 km/h (2 Bft) 100,00 %
15.11.2015 02:36 8,1 C 80 % 1021,3 hPa 0,0 l/m 3,4 km/h (1 Bft) W-SW 253 0 min 0,000 mm 0,0 UV-I 0 W/m 4,9 C 8,1 C 6,4 km/h (2 Bft) 100,00 %
15.11.2015 02:37 8,1 C 80 % 1021,2 hPa 0,0 l/m 4,1 km/h (1 Bft) SW 232 0 min 0,000 mm 0,0 UV-I 0 W/m 4,9 C 8,1 C 6,4 km/h (2 Bft) 100,00 %
15.11.2015 02:38 8,1 C 80 % 1021,3 hPa 0,0 l/m 2,4 km/h (1 Bft) SW 232 0 min 0,000 mm 0,0 UV-I 0 W/m 4,9 C 8,1 C 4,8 km/h (1 Bft) 100,00 %
15.11.2015 02:39 8,1 C 80 % 1021,3 hPa 0,0 l/m 3,6 km/h (1 Bft) W-NW 288 0 min 0,000 mm 0,0 UV-I 0 W/m 4,9 C 8,1 C 6,4 km/h (2 Bft) 100,00 %
15.11.2015 02:40 8,0 C 80 % 1021,3 hPa 0,0 l/m 2,5 km/h (1 Bft) W-SW 254 0 min 0,000 mm 0,0 UV-I 0 W/m 4,8 C 8,0 C 4,8 km/h (1 Bft) 100,00 %
15.11.2015 02:41 8,0 C 80 % 1021,3 hPa 0,0 l/m 5,9 km/h (2 Bft) W-SW 244 0 min 0,000 mm 0,0 UV-I 0 W/m 4,8 C 8,0 C 8,0 km/h (2 Bft) 100,00 %
15.11.2015 02:42 8,0 C 80 % 1021,3 hPa 0,0 l/m 5,6 km/h (1 Bft) W-SW 252 0 min 0,000 mm 0,0 UV-I 0 W/m 4,8 C 8,0 C 11,3 km/h (2 Bft) 100,00 %
15.11.2015 02:43 7,9 C 80 % 1021,3 hPa 0,0 l/m 4,6 km/h (1 Bft) W 265 0 min 0,000 mm 0,0 UV-I 0 W/m 4,7 C 7,9 C 6,4 km/h (2 Bft) 100,00 %
15.11.2015 02:44 7,9 C 80 % 1021,3 hPa 0,0 l/m 4,6 km/h (1 Bft) W 272 0 min 0,000 mm 0,0 UV-I 0 W/m 4,7 C 7,9 C 9,7 km/h (2 Bft) 96,15 %
15.11.2015 02:45 7,9 C 81 % 1021,3 hPa 0,0 l/m 4,1 km/h (1 Bft) W-NW 290 0 min 0,000 mm 0,0 UV-I 0 W/m 4,8 C 7,9 C 8,0 km/h (2 Bft) 95,83 %
15.11.2015 02:46 7,9 C 81 % 1021,3 hPa 0,0 l/m 4,8 km/h (1 Bft) W-SW 242 0 min 0,000 mm 0,0 UV-I 0 W/m 4,8 C 7,9 C 8,0 km/h (2 Bft) 100,00 %
15.11.2015 02:47 7,9 C 80 % 1021,3 hPa 0,0 l/m 4,4 km/h (1 Bft) W 275 0 min 0,000 mm 0,0 UV-I 0 W/m 4,7 C 7,9 C 6,4 km/h (2 Bft) 100,00 %
15.11.2015 02:48 7,9 C 80 % 1021,3 hPa 0,0 l/m 4,3 km/h (1 Bft) SW 236 0 min 0,000 mm 0,0 UV-I 0 W/m 4,7 C 7,9 C 8,0 km/h (2 Bft) 100,00 %
15.11.2015 02:49 7,9 C 81 % 1021,2 hPa 0,0 l/m 4,2 km/h (1 Bft) SW 215 0 min 0,000 mm 0,0 UV-I 0 W/m 4,8 C 7,9 C 4,8 km/h (1 Bft) 100,00 %
15.11.2015 02:50 7,9 C 81 % 1021,1 hPa 0,0 l/m 6,0 km/h (2 Bft) SW 225 0 min 0,000 mm 0,0 UV-I 0 W/m 4,8 C 7,9 C 8,0 km/h (2 Bft) 100,00 %
15.11.2015 02:51 7,9 C 81 % 1021,1 hPa 0,0 l/m 4,2 km/h (1 Bft) W-NW 292 0 min 0,000 mm 0,0 UV-I 0 W/m 4,8 C 7,9 C 6,4 km/h (2 Bft) 100,00 %
15.11.2015 02:52 7,9 C 81 % 1021,1 hPa 0,0 l/m 5,7 km/h (1 Bft) W-SW 250 0 min 0,000 mm 0,0 UV-I 0 W/m 4,8 C 7,9 C 9,7 km/h (2 Bft) 100,00 %
15.11.2015 02:53 7,9 C 81 % 1021,2 hPa 0,0 l/m 4,8 km/h (1 Bft) W-SW 252 0 min 0,000 mm 0,0 UV-I 0 W/m 4,8 C 7,9 C 6,4 km/h (2 Bft) 100,00 %
15.11.2015 02:54 7,9 C 81 % 1021,1 hPa 0,0 l/m 6,3 km/h (2 Bft) W 260 0 min 0,000 mm 0,0 UV-I 0 W/m 4,8 C 7,9 C 9,7 km/h (2 Bft) 100,00 %
15.11.2015 02:55 8,0 C 81 % 1021,1 hPa 0,0 l/m 6,8 km/h (2 Bft) W-NW 283 0 min 0,000 mm 0,0 UV-I 0 W/m 4,9 C 7,7 C 9,7 km/h (2 Bft) 100,00 %
15.11.2015 02:56 8,0 C 81 % 1021,1 hPa 0,0 l/m 5,6 km/h (1 Bft) W-SW 249 0 min 0,000 mm 0,0 UV-I 0 W/m 4,9 C 8,0 C 9,7 km/h (2 Bft) 100,00 %
15.11.2015 02:57 8,0 C 81 % 1021,1 hPa 0,0 l/m 5,0 km/h (1 Bft) W 268 0 min 0,000 mm 0,0 UV-I 0 W/m 4,9 C 8,0 C 8,0 km/h (2 Bft) 96,15 %
15.11.2015 02:58 8,1 C 81 % 1021,1 hPa 0,0 l/m 5,3 km/h (1 Bft) SW 229 0 min 0,000 mm 0,0 UV-I 0 W/m 5,0 C 8,1 C 9,7 km/h (2 Bft) 100,00 %
15.11.2015 02:59 8,1 C 81 % 1021,1 hPa 0,0 l/m 6,5 km/h (2 Bft) SW 234 0 min 0,000 mm 0,0 UV-I 0 W/m 5,0 C 8,0 C 9,7 km/h (2 Bft) 100,00 %
15.11.2015 03:00 8,1 C 81 % 1021,0 hPa 0,0 l/m 8,2 km/h (2 Bft) SW 224 0 min 0,026 mm 0,0 UV-I 0 W/m 5,0 C 6,7 C 12,9 km/h (3 Bft) 100,00 %
15.11.2015 03:01 8,1 C 81 % 1021,0 hPa 0,0 l/m 9,4 km/h (2 Bft) SW 230 0 min 0,000 mm 0,0 UV-I 0 W/m 5,0 C 5,9 C 14,5 km/h (3 Bft) 100,00 %
15.11.2015 03:02 8,1 C 81 % 1021,1 hPa 0,0 l/m 5,8 km/h (2 Bft) W 270 0 min 0,000 mm 0,0 UV-I 0 W/m 5,0 C 8,1 C 12,9 km/h (3 Bft) 100,00 %
15.11.2015 03:03 8,1 C 80 % 1021,0 hPa 0,0 l/m 7,1 km/h (2 Bft) W 269 0 min 0,000 mm 0,0 UV-I 0 W/m 4,9 C 7,6 C 14,5 km/h (3 Bft) 96,15 %
15.11.2015 03:04 8,1 C 81 % 1021,0 hPa 0,0 l/m 7,7 km/h (2 Bft) W-NW 293 0 min 0,000 mm 0,0 UV-I 0 W/m 5,0 C 7,1 C 11,3 km/h (2 Bft) 100,00 %
15.11.2015 03:05 8,1 C 81 % 1021,0 hPa 0,0 l/m 5,6 km/h (1 Bft) W 279 0 min 0,000 mm 0,0 UV-I 0 W/m 5,0 C 8,1 C 9,7 km/h (2 Bft) 91,30 %
15.11.2015 03:06 8,1 C 81 % 1021,1 hPa 0,0 l/m 8,0 km/h (2 Bft) SW 227 0 min 0,000 mm 0,0 UV-I 0 W/m 5,0 C 6,9 C 12,9 km/h (3 Bft) 96,30 %
15.11.2015 03:07 8,2 C 81 % 1021,1 hPa 0,0 l/m 10,1 km/h (2 Bft) W 273 0 min 0,000 mm 0,0 UV-I 0 W/m 5,1 C 5,5 C 12,9 km/h (3 Bft) 100,00 %
15.11.2015 03:08 8,2 C 80 % 1021,2 hPa 0,0 l/m 7,3 km/h (2 Bft) W 262 0 min 0,000 mm 0,0 UV-I 0 W/m 5,0 C 7,5 C 11,3 km/h (2 Bft) 100,00 %
15.11.2015 03:09 8,2 C 80 % 1021,2 hPa 0,0 l/m 7,5 km/h (2 Bft) W 265 0 min 0,000 mm 0,0 UV-I 0 W/m 5,0 C 7,3 C 11,3 km/h (2 Bft) 100,00 %
15.11.2015 03:10 8,2 C 80 % 1021,2 hPa 0,0 l/m 6,8 km/h (2 Bft) W 276 0 min 0,000 mm 0,0 UV-I 0 W/m 5,0 C 7,9 C 9,7 km/h (2 Bft) 100,00 %
15.11.2015 03:11 8,2 C 81 % 1021,2 hPa 0,0 l/m 7,7 km/h (2 Bft) W 262 0 min 0,000 mm 0,0 UV-I 0 W/m 5,1 C 7,2 C 11,3 km/h (2 Bft) 96,15 %
15.11.2015 03:12 8,2 C 80 % 1021,2 hPa 0,0 l/m 11,7 km/h (2 Bft) SW 217 0 min 0,000 mm 0,0 UV-I 0 W/m 5,0 C 4,6 C 17,7 km/h (3 Bft) 100,00 %
15.11.2015 03:13 8,2 C 80 % 1021,3 hPa 0,0 l/m 12,4 km/h (3 Bft) SW 236 0 min 0,000 mm 0,0 UV-I 0 W/m 5,0 C 4,2 C 17,7 km/h (3 Bft) 100,00 %
15.11.2015 03:14 8,3 C 80 % 1021,3 hPa 0,0 l/m 13,7 km/h (3 Bft) SW 220 0 min 0,000 mm 0,0 UV-I 0 W/m 5,1 C 3,7 C 19,3 km/h (3 Bft) 95,83 %
15.11.2015 03:15 8,3 C 80 % 1021,3 hPa 0,0 l/m 13,3 km/h (3 Bft) W 278 0 min 0,000 mm 0,0 UV-I 0 W/m 5,1 C 3,9 C 17,7 km/h (3 Bft) 100,00 %
15.11.2015 03:16 8,3 C 80 % 1021,4 hPa 0,0 l/m 9,2 km/h (2 Bft) W 263 0 min 0,000 mm 0,0 UV-I 0 W/m 5,1 C 6,2 C 14,5 km/h (3 Bft) 95,83 %
15.11.2015 03:17 8,3 C 81 % 1021,4 hPa 0,0 l/m 7,2 km/h (2 Bft) W 277 0 min 0,000 mm 0,0 UV-I 0 W/m 5,2 C 7,7 C 11,3 km/h (2 Bft) 100,00 %
15.11.2015 03:18 8,4 C 82 % 1021,4 hPa 0,0 l/m 9,7 km/h (2 Bft) W 271 0 min 0,000 mm 0,0 UV-I 0 W/m 5,5 C 6,0 C 19,3 km/h (3 Bft) 100,00 %
15.11.2015 03:19 8,3 C 81 % 1021,3 hPa 0,0 l/m 10,0 km/h (2 Bft) W 263 0 min 0,000 mm 0,0 UV-I 0 W/m 5,2 C 5,7 C 17,7 km/h (3 Bft) 100,00 %
15.11.2015 03:20 8,3 C 80 % 1021,2 hPa 0,0 l/m 15,0 km/h (3 Bft) SW 217 0 min 0,000 mm 0,0 UV-I 0 W/m 5,1 C 3,1 C 24,1 km/h (4 Bft) 100,00 %
15.11.2015 03:21 8,3 C 80 % 1021,4 hPa 0,0 l/m 18,7 km/h (3 Bft) N-NW 334 0 min 0,000 mm 0,0 UV-I 0 W/m 5,1 C 1,6 C 30,6 km/h (5 Bft) 100,00 %
15.11.2015 03:22 8,4 C 80 % 1021,4 hPa 0,0 l/m 16,4 km/h (3 Bft) W 273 0 min 0,000 mm 0,0 UV-I 0 W/m 5,2 C 2,6 C 24,1 km/h (4 Bft) 100,00 %
15.11.2015 03:23 8,3 C 80 % 1021,4 hPa 0,0 l/m 19,3 km/h (3 Bft) W-NW 287 0 min 0,000 mm 0,0 UV-I 0 W/m 5,1 C 1,3 C 25,7 km/h (4 Bft) 91,67 %
15.11.2015 03:24 8,3 C 80 % 1021,3 hPa 0,0 l/m 16,7 km/h (3 Bft) W-NW 303 0 min 0,000 mm 0,0 UV-I 0 W/m 5,1 C 2,3 C 22,5 km/h (4 Bft) 100,00 %
15.11.2015 03:25 8,3 C 80 % 1021,3 hPa 0,0 l/m 10,9 km/h (2 Bft) W-SW 242 0 min 0,000 mm 0,0 UV-I 0 W/m 5,1 C 5,2 C 19,3 km/h (3 Bft) 100,00 %
15.11.2015 03:26 8,3 C 80 % 1021,4 hPa 0,0 l/m 15,7 km/h (3 Bft) W-SW 256 0 min 0,000 mm 0,0 UV-I 0 W/m 5,1 C 2,8 C 27,4 km/h (4 Bft) 100,00 %
15.11.2015 03:27 8,3 C 81 % 1021,3 hPa 0,0 l/m 14,3 km/h (3 Bft) W-NW 282 0 min 0,000 mm 0,0 UV-I 0 W/m 5,2 C 3,4 C 22,5 km/h (4 Bft) 100,00 %
15.11.2015 03:28 8,3 C 81 % 1021,3 hPa 0,0 l/m 12,1 km/h (2 Bft) W 281 0 min 0,000 mm 0,0 UV-I 0 W/m 5,2 C 4,5 C 24,1 km/h (4 Bft) 100,00 %
15.11.2015 03:29 8,3 C 81 % 1021,3 hPa 0,0 l/m 12,5 km/h (3 Bft) W-SW 247 0 min 0,000 mm 0,0 UV-I 0 W/m 5,2 C 4,3 C 17,7 km/h (3 Bft) 96,30 %
15.11.2015 03:30 8,2 C 81 % 1021,3 hPa 0,0 l/m 9,6 km/h (2 Bft) W 272 0 min 0,000 mm 0,0 UV-I 0 W/m 5,1 C 5,9 C 14,5 km/h (3 Bft) 100,00 %
15.11.2015 03:31 8,2 C 83 % 1021,3 hPa 0,0 l/m 8,5 km/h (2 Bft) SW 227 0 min 0,000 mm 0,0 UV-I 0 W/m 5,5 C 6,6 C 12,9 km/h (3 Bft) 95,83 %
15.11.2015 03:32 8,2 C 83 % 1021,2 hPa 0,0 l/m 8,4 km/h (2 Bft) S-SW 207 0 min 0,000 mm 0,0 UV-I 0 W/m 5,5 C 6,7 C 11,3 km/h (2 Bft) 100,00 %
15.11.2015 03:33 8,1 C 83 % 1021,2 hPa 0,2 l/m 10,1 km/h (2 Bft) W 269 0 min 0,000 mm 0,0 UV-I 0 W/m 5,4 C 5,4 C 12,9 km/h (3 Bft) 100,00 %
15.11.2015 03:34 8,0 C 84 % 1021,1 hPa 0,0 l/m 11,7 km/h (2 Bft) W 271 0 min 0,000 mm 0,0 UV-I 0 W/m 5,5 C 4,4 C 17,7 km/h (3 Bft) 100,00 %
15.11.2015 03:35 8,0 C 84 % 1021,1 hPa 0,0 l/m 7,0 km/h (2 Bft) W 278 0 min 0,000 mm 0,0 UV-I 0 W/m 5,5 C 7,5 C 14,5 km/h (3 Bft) 100,00 %
15.11.2015 03:36 7,9 C 84 % 1021,1 hPa 0,0 l/m 9,0 km/h (2 Bft) W 265 0 min 0,000 mm 0,0 UV-I 0 W/m 5,4 C 5,9 C 17,7 km/h (3 Bft) 100,00 %
15.11.2015 03:37 7,9 C 85 % 1021,1 hPa 0,0 l/m 8,0 km/h (2 Bft) W 266 0 min 0,000 mm 0,0 UV-I 0 W/m 5,5 C 6,6 C 12,9 km/h (3 Bft) 100,00 %
15.11.2015 03:38 7,8 C 85 % 1021,1 hPa 0,0 l/m 7,1 km/h (2 Bft) S-SW 195 0 min 0,000 mm 0,0 UV-I 0 W/m 5,4 C 7,2 C 11,3 km/h (2 Bft) 100,00 %
15.11.2015 03:39 7,8 C 85 % 1021,1 hPa 0,0 l/m 7,1 km/h (2 Bft) W-SW 257 0 min 0,000 mm 0,0 UV-I 0 W/m 5,4 C 7,2 C 11,3 km/h (2 Bft) 100,00 %
15.11.2015 03:40 7,8 C 86 % 1021,2 hPa 0,0 l/m 6,6 km/h (2 Bft) W 263 0 min 0,000 mm 0,0 UV-I 0 W/m 5,6 C 7,7 C 9,7 km/h (2 Bft) 100,00 %
15.11.2015 03:41 7,8 C 86 % 1021,0 hPa 0,0 l/m 7,5 km/h (2 Bft) W 269 0 min 0,000 mm 0,0 UV-I 0 W/m 5,6 C 6,9 C 11,3 km/h (2 Bft) 95,83 %
15.11.2015 03:42 7,8 C 86 % 1021,0 hPa 0,0 l/m 7,2 km/h (2 Bft) W 262 0 min 0,000 mm 0,0 UV-I 0 W/m 5,6 C 7,2 C 11,3 km/h (2 Bft) 100,00 %
15.11.2015 03:43 7,7 C 86 % 1021,0 hPa 0,0 l/m 7,4 km/h (2 Bft) W 269 0 min 0,000 mm 0,0 UV-I 0 W/m 5,5 C 6,9 C 11,3 km/h (2 Bft) 100,00 %
15.11.2015 03:44 7,7 C 87 % 1021,0 hPa 0,0 l/m 7,6 km/h (2 Bft) W-NW 298 0 min 0,000 mm 0,0 UV-I 0 W/m 5,7 C 6,7 C 12,9 km/h (3 Bft) 95,83 %
15.11.2015 03:45 7,7 C 87 % 1021,0 hPa 0,0 l/m 8,1 km/h (2 Bft) W 274 0 min 0,000 mm 0,0 UV-I 0 W/m 5,7 C 6,4 C 14,5 km/h (3 Bft) 100,00 %
15.11.2015 03:46 7,7 C 87 % 1021,0 hPa 0,0 l/m 10,6 km/h (2 Bft) W-NW 284 0 min 0,000 mm 0,0 UV-I 0 W/m 5,7 C 4,7 C 14,5 km/h (3 Bft) 100,00 %
15.11.2015 03:47 7,7 C 87 % 1021,0 hPa 0,0 l/m 6,4 km/h (2 Bft) W 267 0 min 0,000 mm 0,0 UV-I 0 W/m 5,7 C 7,7 C 9,7 km/h (2 Bft) 100,00 %
15.11.2015 03:48 7,7 C 87 % 1021,0 hPa 0,0 l/m 7,9 km/h (2 Bft) W 259 0 min 0,000 mm 0,0 UV-I 0 W/m 5,7 C 6,5 C 16,1 km/h (3 Bft) 95,83 %
15.11.2015 03:49 7,7 C 88 % 1021,0 hPa 0,0 l/m 6,1 km/h (2 Bft) W 269 0 min 0,000 mm 0,0 UV-I 0 W/m 5,8 C 7,7 C 11,3 km/h (2 Bft) 100,00 %
15.11.2015 03:50 7,7 C 87 % 1020,9 hPa 0,0 l/m 11,1 km/h (2 Bft) W-SW 256 0 min 0,000 mm 0,0 UV-I 0 W/m 5,7 C 4,4 C 17,7 km/h (3 Bft) 93,33 %
15.11.2015 03:51 7,6 C 87 % 1020,9 hPa 0,0 l/m 7,3 km/h (2 Bft) SW 215 0 min 0,000 mm 0,0 UV-I 0 W/m 5,6 C 6,9 C 9,7 km/h (2 Bft) 100,00 %
15.11.2015 03:52 7,6 C 88 % 1021,0 hPa 0,0 l/m 9,9 km/h (2 Bft) W-NW 288 0 min 0,000 mm 0,0 UV-I 0 W/m 5,7 C 5,0 C 14,5 km/h (3 Bft) 100,00 %
15.11.2015 03:53 7,6 C 88 % 1021,0 hPa 0,0 l/m 8,0 km/h (2 Bft) S-SW 212 0 min 0,000 mm 0,0 UV-I 0 W/m 5,7 C 6,3 C 11,3 km/h (2 Bft) 100,00 %
15.11.2015 03:54 7,6 C 88 % 1021,0 hPa 0,0 l/m 8,9 km/h (2 Bft) SW 228 0 min 0,000 mm 0,0 UV-I 0 W/m 5,7 C 5,7 C 11,3 km/h (2 Bft) 100,00 %
15.11.2015 03:55 7,6 C 88 % 1021,0 hPa 0,0 l/m 5,8 km/h (2 Bft) W 281 0 min 0,000 mm 0,0 UV-I 0 W/m 5,7 C 7,6 C 6,4 km/h (2 Bft) 100,00 %
15.11.2015 03:56 7,6 C 88 % 1021,0 hPa 0,0 l/m 7,4 km/h (2 Bft) W 267 0 min 0,000 mm 0,0 UV-I 0 W/m 5,7 C 6,8 C 11,3 km/h (2 Bft) 100,00 %
15.11.2015 03:57 7,6 C 88 % 1021,0 hPa 0,0 l/m 8,3 km/h (2 Bft) W 261 0 min 0,000 mm 0,0 UV-I 0 W/m 5,7 C 6,1 C 11,3 km/h (2 Bft) 100,00 %
15.11.2015 03:58 7,6 C 88 % 1021,0 hPa 0,0 l/m 5,7 km/h (1 Bft) W 259 0 min 0,000 mm 0,0 UV-I 0 W/m 5,7 C 7,6 C 11,3 km/h (2 Bft) 100,00 %
15.11.2015 03:59 7,5 C 89 % 1021,0 hPa 0,2 l/m 6,5 km/h (2 Bft) W 270 0 min 0,000 mm 0,0 UV-I 0 W/m 5,8 C 7,4 C 9,7 km/h (2 Bft) 100,00 %
15.11.2015 04:00 7,5 C 89 % 1021,0 hPa 0,0 l/m 6,0 km/h (2 Bft) W-SW 252 0 min 0,025 mm 0,0 UV-I 0 W/m 5,8 C 7,5 C 9,7 km/h (2 Bft) 100,00 %
15.11.2015 04:03 7,4 C 89 % 1021,0 hPa 0,0 l/m 6,6 km/h (2 Bft) SW 215 0 min 0,000 mm 0,0 UV-I 0 W/m 5,7 C 7,3 C 11,3 km/h (2 Bft) 100,00 %
15.11.2015 04:04 7,4 C 89 % 1020,9 hPa 0,0 l/m 7,6 km/h (2 Bft) W 281 0 min 0,000 mm 0,0 UV-I 0 W/m 5,7 C 6,4 C 11,3 km/h (2 Bft) 100,00 %
15.11.2015 04:05 7,4 C 89 % 1020,9 hPa 0,0 l/m 7,2 km/h (2 Bft) SW 236 0 min 0,000 mm 0,0 UV-I 0 W/m 5,7 C 6,8 C 9,7 km/h (2 Bft) 100,00 %
15.11.2015 04:06 7,3 C 90 % 1020,9 hPa 0,0 l/m 6,0 km/h (2 Bft) W 267 0 min 0,000 mm 0,0 UV-I 0 W/m 5,8 C 7,3 C 9,7 km/h (2 Bft) 100,00 %
15.11.2015 04:07 7,3 C 90 % 1020,9 hPa 0,0 l/m 4,4 km/h (1 Bft) W 269 0 min 0,000 mm 0,0 UV-I 0 W/m 5,8 C 7,3 C 6,4 km/h (2 Bft) 100,00 %
15.11.2015 04:08 7,3 C 90 % 1020,9 hPa 0,0 l/m 5,1 km/h (1 Bft) W-NW 292 0 min 0,000 mm 0,0 UV-I 0 W/m 5,8 C 7,3 C 6,4 km/h (2 Bft) 100,00 %
15.11.2015 04:09 7,3 C 90 % 1020,8 hPa 0,2 l/m 7,8 km/h (2 Bft) W 279 0 min 0,000 mm 0,0 UV-I 0 W/m 5,8 C 6,2 C 12,9 km/h (3 Bft) 100,00 %
15.11.2015 04:10 7,3 C 90 % 1020,8 hPa 0,0 l/m 6,8 km/h (2 Bft) W 269 0 min 0,000 mm 0,0 UV-I 0 W/m 5,8 C 7,0 C 9,7 km/h (2 Bft) 100,00 %
15.11.2015 04:11 7,3 C 90 % 1020,8 hPa 0,0 l/m 5,8 km/h (2 Bft) W 265 0 min 0,000 mm 0,0 UV-I 0 W/m 5,8 C 7,3 C 9,7 km/h (2 Bft) 100,00 %
15.11.2015 04:12 7,2 C 90 % 1020,7 hPa 0,0 l/m 10,1 km/h (2 Bft) W 269 0 min 0,000 mm 0,0 UV-I 0 W/m 5,7 C 4,4 C 16,1 km/h (3 Bft) 100,00 %
15.11.2015 04:13 7,2 C 90 % 1020,7 hPa 0,0 l/m 10,7 km/h (2 Bft) W-SW 258 0 min 0,000 mm 0,0 UV-I 0 W/m 5,7 C 4,1 C 17,7 km/h (3 Bft) 100,00 %
15.11.2015 04:14 7,2 C 90 % 1020,7 hPa 0,0 l/m 7,0 km/h (2 Bft) W-NW 301 0 min 0,000 mm 0,0 UV-I 0 W/m 5,7 C 6,7 C 9,7 km/h (2 Bft) 100,00 %
15.11.2015 04:15 7,2 C 90 % 1020,7 hPa 0,0 l/m 6,0 km/h (2 Bft) W 273 0 min 0,000 mm 0,0 UV-I 0 W/m 5,7 C 7,2 C 9,7 km/h (2 Bft) 100,00 %
15.11.2015 04:16 7,2 C 90 % 1020,7 hPa 0,0 l/m 6,5 km/h (2 Bft) W 260 0 min 0,000 mm 0,0 UV-I 0 W/m 5,7 C 7,1 C 11,3 km/h (2 Bft) 100,00 %
15.11.2015 04:17 7,2 C 90 % 1020,6 hPa 0,0 l/m 6,9 km/h (2 Bft) W 273 0 min 0,000 mm 0,0 UV-I 0 W/m 5,7 C 6,8 C 9,7 km/h (2 Bft) 100,00 %
15.11.2015 04:18 7,2 C 90 % 1020,7 hPa 0,2 l/m 6,3 km/h (2 Bft) W-SW 257 0 min 0,000 mm 0,0 UV-I 0 W/m 5,7 C 7,2 C 9,7 km/h (2 Bft) 100,00 %
15.11.2015 04:19 7,2 C 90 % 1020,6 hPa 0,0 l/m 5,4 km/h (1 Bft) W 280 0 min 0,000 mm 0,0 UV-I 0 W/m 5,7 C 7,2 C 9,7 km/h (2 Bft) 100,00 %
15.11.2015 04:20 7,2 C 90 % 1020,7 hPa 0,0 l/m 5,6 km/h (1 Bft) W-SW 258 0 min 0,000 mm 0,0 UV-I 0 W/m 5,7 C 7,2 C 6,4 km/h (2 Bft) 100,00 %
15.11.2015 04:21 7,2 C 90 % 1020,6 hPa 0,0 l/m 5,6 km/h (1 Bft) W-SW 244 0 min 0,000 mm 0,0 UV-I 0 W/m 5,7 C 7,2 C 9,7 km/h (2 Bft) 100,00 %
15.11.2015 04:22 7,2 C 90 % 1020,6 hPa 0,0 l/m 8,2 km/h (2 Bft) W-SW 249 0 min 0,000 mm 0,0 UV-I 0 W/m 5,7 C 5,8 C 12,9 km/h (3 Bft) 100,00 %
15.11.2015 04:23 7,2 C 90 % 1020,6 hPa 0,0 l/m 5,6 km/h (1 Bft) W 266 0 min 0,000 mm 0,0 UV-I 0 W/m 5,7 C 7,2 C 9,7 km/h (2 Bft) 100,00 %
15.11.2015 04:24 7,2 C 90 % 1020,6 hPa 0,0 l/m 7,2 km/h (2 Bft) SW 236 0 min 0,000 mm 0,0 UV-I 0 W/m 5,7 C 6,5 C 11,3 km/h (2 Bft) 100,00 %
15.11.2015 04:25 7,2 C 90 % 1020,6 hPa 0,0 l/m 7,6 km/h (2 Bft) W-SW 257 0 min 0,000 mm 0,0 UV-I 0 W/m 5,7 C 6,2 C 12,9 km/h (3 Bft) 100,00 %
15.11.2015 04:26 7,2 C 90 % 1020,6 hPa 0,0 l/m 4,4 km/h (1 Bft) W 281 0 min 0,000 mm 0,0 UV-I 0 W/m 5,7 C 7,2 C 6,4 km/h (2 Bft) 100,00 %
15.11.2015 04:27 7,2 C 90 % 1020,6 hPa 0,0 l/m 6,4 km/h (2 Bft) W-SW 255 0 min 0,000 mm 0,0 UV-I 0 W/m 5,7 C 7,2 C 12,9 km/h (3 Bft) 100,00 %
15.11.2015 04:28 7,2 C 90 % 1020,6 hPa 0,0 l/m 5,8 km/h (2 Bft) W 261 0 min 0,000 mm 0,0 UV-I 0 W/m 5,7 C 7,2 C 11,3 km/h (2 Bft) 95,83 %
15.11.2015 04:29 7,2 C 90 % 1020,5 hPa 0,0 l/m 4,7 km/h (1 Bft) W-NW 290 0 min 0,000 mm 0,0 UV-I 0 W/m 5,7 C 7,2 C 8,0 km/h (2 Bft) 100,00 %
15.11.2015 04:30 7,1 C 91 % 1020,4 hPa 0,2 l/m 5,7 km/h (1 Bft) W-NW 301 0 min 0,000 mm 0,0 UV-I 0 W/m 5,7 C 7,1 C 6,4 km/h (2 Bft) 100,00 %
15.11.2015 04:31 7,1 C 91 % 1020,5 hPa 0,0 l/m 5,6 km/h (1 Bft) SW 217 0 min 0,000 mm 0,0 UV-I 0 W/m 5,7 C 7,1 C 9,7 km/h (2 Bft) 92,86 %
15.11.2015 04:32 7,1 C 91 % 1020,4 hPa 0,0 l/m 5,6 km/h (1 Bft) W 259 0 min 0,000 mm 0,0 UV-I 0 W/m 5,7 C 7,1 C 9,7 km/h (2 Bft) 100,00 %
15.11.2015 04:33 7,1 C 91 % 1020,4 hPa 0,0 l/m 5,3 km/h (1 Bft) W-SW 257 0 min 0,000 mm 0,0 UV-I 0 W/m 5,7 C 7,1 C 9,7 km/h (2 Bft) 100,00 %
15.11.2015 04:34 7,1 C 91 % 1020,4 hPa 0,0 l/m 4,9 km/h (1 Bft) W-SW 249 0 min 0,000 mm 0,0 UV-I 0 W/m 5,7 C 7,1 C 6,4 km/h (2 Bft) 95,83 %
15.11.2015 04:35 7,1 C 91 % 1020,4 hPa 0,0 l/m 5,0 km/h (1 Bft) W 276 0 min 0,000 mm 0,0 UV-I 0 W/m 5,7 C 7,1 C 6,4 km/h (2 Bft) 96,15 %
15.11.2015 04:36 7,1 C 91 % 1020,4 hPa 0,0 l/m 3,6 km/h (1 Bft) W 267 0 min 0,000 mm 0,0 UV-I 0 W/m 5,7 C 7,1 C 6,4 km/h (2 Bft) 100,00 %
15.11.2015 04:37 7,1 C 91 % 1020,3 hPa 0,0 l/m 4,0 km/h (1 Bft) W 261 0 min 0,000 mm 0,0 UV-I 0 W/m 5,7 C 7,1 C 4,8 km/h (1 Bft) 100,00 %
15.11.2015 04:38 7,1 C 91 % 1020,4 hPa 0,0 l/m 3,3 km/h (1 Bft) W-NW 283 0 min 0,000 mm 0,0 UV-I 0 W/m 5,7 C 7,1 C 4,8 km/h (1 Bft) 100,00 %
15.11.2015 04:39 7,1 C 92 % 1020,4 hPa 0,0 l/m 3,6 km/h (1 Bft) W 275 0 min 0,000 mm 0,0 UV-I 0 W/m 5,9 C 7,1 C 6,4 km/h (2 Bft) 100,00 %
15.11.2015 04:40 7,1 C 92 % 1020,4 hPa 0,0 l/m 4,7 km/h (1 Bft) W-SW 242 0 min 0,000 mm 0,0 UV-I 0 W/m 5,9 C 7,1 C 6,4 km/h (2 Bft) 100,00 %
15.11.2015 04:41 7,1 C 92 % 1020,4 hPa 0,2 l/m 5,0 km/h (1 Bft) W-SW 240 0 min 0,000 mm 0,0 UV-I 0 W/m 5,9 C 7,1 C 6,4 km/h (2 Bft) 100,00 %
15.11.2015 04:42 7,1 C 92 % 1020,3 hPa 0,0 l/m 5,4 km/h (1 Bft) W-SW 240 0 min 0,000 mm 0,0 UV-I 0 W/m 5,9 C 7,1 C 8,0 km/h (2 Bft) 100,00 %
15.11.2015 04:43 7,1 C 92 % 1020,3 hPa 0,0 l/m 6,4 km/h (2 Bft) W 279 0 min 0,000 mm 0,0 UV-I 0 W/m 5,9 C 7,1 C 11,3 km/h (2 Bft) 100,00 %
15.11.2015 04:44 7,1 C 92 % 1020,3 hPa 0,0 l/m 7,1 km/h (2 Bft) NW 304 0 min 0,000 mm 0,0 UV-I 0 W/m 5,9 C 6,5 C 12,9 km/h (3 Bft) 100,00 %
15.11.2015 04:45 7,1 C 91 % 1020,3 hPa 0,0 l/m 7,4 km/h (2 Bft) W-SW 244 0 min 0,000 mm 0,0 UV-I 0 W/m 5,7 C 6,3 C 11,3 km/h (2 Bft) 100,00 %
15.11.2015 04:46 7,1 C 91 % 1020,3 hPa 0,0 l/m 7,8 km/h (2 Bft) W 280 0 min 0,000 mm 0,0 UV-I 0 W/m 5,7 C 6,0 C 11,3 km/h (2 Bft) 100,00 %
15.11.2015 04:47 7,1 C 91 % 1020,2 hPa 0,0 l/m 9,7 km/h (2 Bft) W-NW 285 0 min 0,000 mm 0,0 UV-I 0 W/m 5,7 C 4,6 C 14,5 km/h (3 Bft) 100,00 %
15.11.2015 04:48 7,2 C 90 % 1020,2 hPa 0,0 l/m 10,2 km/h (2 Bft) W-SW 246 0 min 0,000 mm 0,0 UV-I 0 W/m 5,7 C 4,4 C 14,5 km/h (3 Bft) 100,00 %
15.11.2015 04:49 7,2 C 91 % 1020,2 hPa 0,0 l/m 6,0 km/h (2 Bft) W 272 0 min 0,000 mm 0,0 UV-I 0 W/m 5,8 C 7,2 C 11,3 km/h (2 Bft) 96,30 %
15.11.2015 04:50 7,2 C 91 % 1020,2 hPa 0,0 l/m 6,5 km/h (2 Bft) W 259 0 min 0,000 mm 0,0 UV-I 0 W/m 5,8 C 7,1 C 11,3 km/h (2 Bft) 100,00 %
15.11.2015 04:51 7,2 C 91 % 1020,2 hPa 0,0 l/m 7,6 km/h (2 Bft) W 271 0 min 0,000 mm 0,0 UV-I 0 W/m 5,8 C 6,2 C 12,9 km/h (3 Bft) 100,00 %
15.11.2015 04:52 7,2 C 91 % 1020,1 hPa 0,0 l/m 7,4 km/h (2 Bft) W 261 0 min 0,000 mm 0,0 UV-I 0 W/m 5,8 C 6,4 C 14,5 km/h (3 Bft) 96,15 %
15.11.2015 04:53 7,2 C 91 % 1020,1 hPa 0,0 l/m 4,8 km/h (1 Bft) W-NW 285 0 min 0,000 mm 0,0 UV-I 0 W/m 5,8 C 7,2 C 9,7 km/h (2 Bft) 100,00 %
15.11.2015 04:54 7,2 C 91 % 1020,0 hPa 0,0 l/m 7,5 km/h (2 Bft) W-SW 242 0 min 0,000 mm 0,0 UV-I 0 W/m 5,8 C 6,3 C 14,5 km/h (3 Bft) 100,00 %
15.11.2015 04:55 7,2 C 90 % 1020,1 hPa 0,0 l/m 7,8 km/h (2 Bft) SW 222 0 min 0,000 mm 0,0 UV-I 0 W/m 5,7 C 6,1 C 12,9 km/h (3 Bft) 100,00 %
15.11.2015 04:56 7,2 C 90 % 1019,9 hPa 0,2 l/m 7,6 km/h (2 Bft) SW 235 0 min 0,000 mm 0,0 UV-I 0 W/m 5,7 C 6,2 C 12,9 km/h (3 Bft) 100,00 %
15.11.2015 04:57 7,3 C 90 % 1019,9 hPa 0,0 l/m 10,1 km/h (2 Bft) SW 232 0 min 0,000 mm 0,0 UV-I 0 W/m 5,8 C 4,5 C 17,7 km/h (3 Bft) 100,00 %
15.11.2015 04:58 7,3 C 90 % 1019,9 hPa 0,0 l/m 10,4 km/h (2 Bft) W-SW 247 0 min 0,000 mm 0,0 UV-I 0 W/m 5,8 C 4,4 C 17,7 km/h (3 Bft) 100,00 %
15.11.2015 04:59 7,3 C 90 % 1019,8 hPa 0,0 l/m 11,6 km/h (2 Bft) W-NW 301 0 min 0,000 mm 0,0 UV-I 0 W/m 5,8 C 3,6 C 16,1 km/h (3 Bft) 100,00 %
15.11.2015 05:00 7,3 C 90 % 1019,8 hPa 0,0 l/m 7,2 km/h (2 Bft) W-SW 247 0 min 0,000 mm 0,0 UV-I 0 W/m 5,8 C 6,7 C 12,9 km/h (3 Bft) 100,00 %
15.11.2015 05:01 7,3 C 90 % 1019,8 hPa 0,0 l/m 7,9 km/h (2 Bft) W 259 0 min 0,000 mm 0,0 UV-I 0 W/m 5,8 C 6,1 C 12,9 km/h (3 Bft) 100,00 %
15.11.2015 05:02 7,3 C 89 % 1019,7 hPa 0,0 l/m 10,0 km/h (2 Bft) SW 220 0 min 0,000 mm 0,0 UV-I 0 W/m 5,6 C 4,6 C 14,5 km/h (3 Bft) 91,67 %
15.11.2015 05:03 7,3 C 90 % 1019,7 hPa 0,0 l/m 10,7 km/h (2 Bft) W-NW 291 0 min 0,000 mm 0,0 UV-I 0 W/m 5,8 C 4,2 C 14,5 km/h (3 Bft) 100,00 %
15.11.2015 05:04 7,4 C 90 % 1019,7 hPa 0,0 l/m 9,6 km/h (2 Bft) W-NW 290 0 min 0,000 mm 0,0 UV-I 0 W/m 5,9 C 5,0 C 12,9 km/h (3 Bft) 100,00 %
15.11.2015 05:05 7,4 C 90 % 1019,7 hPa 0,0 l/m 10,6 km/h (2 Bft) SW 233 0 min 0,000 mm 0,0 UV-I 0 W/m 5,9 C 4,3 C 14,5 km/h (3 Bft) 92,31 %
15.11.2015 05:06 7,4 C 90 % 1019,8 hPa 0,0 l/m 6,3 km/h (2 Bft) W 261 0 min 0,000 mm 0,0 UV-I 0 W/m 5,9 C 7,4 C 11,3 km/h (2 Bft) 100,00 %
15.11.2015 05:07 7,4 C 89 % 1019,8 hPa 0,2 l/m 9,5 km/h (2 Bft) W 274 0 min 0,000 mm 0,0 UV-I 0 W/m 5,7 C 5,1 C 14,5 km/h (3 Bft) 100,00 %
15.11.2015 05:08 7,3 C 90 % 1019,9 hPa 0,0 l/m 9,1 km/h (2 Bft) W 263 0 min 0,000 mm 0,0 UV-I 0 W/m 5,8 C 5,2 C 14,5 km/h (3 Bft) 100,00 %
15.11.2015 05:09 7,4 C 90 % 1020,0 hPa 0,0 l/m 12,3 km/h (3 Bft) SW 234 0 min 0,000 mm 0,0 UV-I 0 W/m 5,9 C 3,4 C 22,5 km/h (4 Bft) 100,00 %
15.11.2015 05:10 7,4 C 90 % 1020,1 hPa 0,0 l/m 11,4 km/h (2 Bft) W-NW 290 0 min 0,000 mm 0,0 UV-I 0 W/m 5,9 C 3,9 C 14,5 km/h (3 Bft) 100,00 %
15.11.2015 05:11 7,4 C 90 % 1020,1 hPa 0,0 l/m 9,2 km/h (2 Bft) W-NW 291 0 min 0,000 mm 0,0 UV-I 0 W/m 5,9 C 5,3 C 12,9 km/h (3 Bft) 100,00 %
15.11.2015 05:12 7,3 C 90 % 1020,1 hPa 0,0 l/m 9,6 km/h (2 Bft) W-NW 290 0 min 0,000 mm 0,0 UV-I 0 W/m 5,8 C 4,9 C 12,9 km/h (3 Bft) 100,00 %
15.11.2015 05:13 7,3 C 90 % 1020,0 hPa 0,0 l/m 7,1 km/h (2 Bft) W-NW 282 0 min 0,000 mm 0,0 UV-I 0 W/m 5,8 C 6,7 C 11,3 km/h (2 Bft) 100,00 %
15.11.2015 05:14 7,3 C 90 % 1020,0 hPa 0,0 l/m 7,2 km/h (2 Bft) NW 311 0 min 0,000 mm 0,0 UV-I 0 W/m 5,8 C 6,7 C 12,9 km/h (3 Bft) 100,00 %
15.11.2015 05:15 7,3 C 90 % 1020,0 hPa 0,0 l/m 7,4 km/h (2 Bft) W-SW 245 0 min 0,000 mm 0,0 UV-I 0 W/m 5,8 C 6,5 C 16,1 km/h (3 Bft) 95,65 %
15.11.2015 05:16 7,3 C 90 % 1019,9 hPa 0,0 l/m 7,1 km/h (2 Bft) W 266 0 min 0,000 mm 0,0 UV-I 0 W/m 5,8 C 6,7 C 12,9 km/h (3 Bft) 100,00 %
15.11.2015 05:17 7,3 C 90 % 1019,9 hPa 0,0 l/m 7,8 km/h (2 Bft) W-SW 242 0 min 0,000 mm 0,0 UV-I 0 W/m 5,8 C 6,2 C 11,3 km/h (2 Bft) 100,00 %
15.11.2015 05:18 7,3 C 90 % 1019,9 hPa 0,0 l/m 7,7 km/h (2 Bft) W 265 0 min 0,000 mm 0,0 UV-I 0 W/m 5,8 C 6,2 C 12,9 km/h (3 Bft) 91,67 %
15.11.2015 05:19 7,3 C 90 % 1019,9 hPa 0,0 l/m 9,3 km/h (2 Bft) W-NW 285 0 min 0,000 mm 0,0 UV-I 0 W/m 5,8 C 5,1 C 12,9 km/h (3 Bft) 100,00 %
15.11.2015 05:20 7,3 C 90 % 1019,8 hPa 0,0 l/m 7,4 km/h (2 Bft) W-SW 257 0 min 0,000 mm 0,0 UV-I 0 W/m 5,8 C 6,5 C 11,3 km/h (2 Bft) 100,00 %
15.11.2015 05:21 7,3 C 90 % 1019,8 hPa 0,0 l/m 8,5 km/h (2 Bft) W-SW 258 0 min 0,000 mm 0,0 UV-I 0 W/m 5,8 C 5,6 C 14,5 km/h (3 Bft) 100,00 %
15.11.2015 05:22 7,3 C 90 % 1019,8 hPa 0,0 l/m 6,6 km/h (2 Bft) W 277 0 min 0,000 mm 0,0 UV-I 0 W/m 5,8 C 7,2 C 9,7 km/h (2 Bft) 96,15 %
15.11.2015 05:23 7,3 C 90 % 1019,8 hPa 0,0 l/m 7,2 km/h (2 Bft) W 276 0 min 0,000 mm 0,0 UV-I 0 W/m 5,8 C 6,7 C 9,7 km/h (2 Bft) 100,00 %
15.11.2015 05:24 7,3 C 90 % 1019,8 hPa 0,0 l/m 6,7 km/h (2 Bft) W-SW 245 0 min 0,000 mm 0,0 UV-I 0 W/m 5,8 C 7,1 C 9,7 km/h (2 Bft) 100,00 %
15.11.2015 05:25 7,3 C 90 % 1019,8 hPa 0,0 l/m 7,9 km/h (2 Bft) SW 229 0 min 0,000 mm 0,0 UV-I 0 W/m 5,8 C 6,1 C 12,9 km/h (3 Bft) 100,00 %
15.11.2015 05:26 7,3 C 90 % 1019,9 hPa 0,0 l/m 6,9 km/h (2 Bft) SW 216 0 min 0,000 mm 0,0 UV-I 0 W/m 5,8 C 6,9 C 11,3 km/h (2 Bft) 100,00 %
15.11.2015 05:27 7,3 C 90 % 1019,8 hPa 0,2 l/m 10,0 km/h (2 Bft) W-SW 252 0 min 0,000 mm 0,0 UV-I 0 W/m 5,8 C 4,6 C 14,5 km/h (3 Bft) 100,00 %
15.11.2015 05:28 7,3 C 90 % 1019,8 hPa 0,0 l/m 8,3 km/h (2 Bft) W 265 0 min 0,000 mm 0,0 UV-I 0 W/m 5,8 C 5,8 C 11,3 km/h (2 Bft) 100,00 %
15.11.2015 05:29 7,3 C 90 % 1019,7 hPa 0,0 l/m 6,3 km/h (2 Bft) SW 217 0 min 0,000 mm 0,0 UV-I 0 W/m 5,8 C 7,3 C 9,7 km/h (2 Bft) 100,00 %
15.11.2015 05:30 7,3 C 90 % 1019,7 hPa 0,0 l/m 6,2 km/h (2 Bft) W 260 0 min 0,000 mm 0,0 UV-I 0 W/m 5,8 C 7,3 C 9,7 km/h (2 Bft) 100,00 %
15.11.2015 05:31 7,3 C 91 % 1019,6 hPa 0,0 l/m 5,3 km/h (1 Bft) W 265 0 min 0,000 mm 0,0 UV-I 0 W/m 5,9 C 7,3 C 9,7 km/h (2 Bft) 100,00 %
15.11.2015 05:32 7,2 C 90 % 1019,7 hPa 0,0 l/m 8,0 km/h (2 Bft) SW 234 0 min 0,000 mm 0,0 UV-I 0 W/m 5,7 C 5,9 C 14,5 km/h (3 Bft) 100,00 %
15.11.2015 05:33 7,2 C 91 % 1019,6 hPa 0,0 l/m 9,5 km/h (2 Bft) S-SW 211 0 min 0,000 mm 0,0 UV-I 0 W/m 5,8 C 4,8 C 12,9 km/h (3 Bft) 100,00 %
15.11.2015 05:34 7,3 C 90 % 1019,6 hPa 0,0 l/m 7,5 km/h (2 Bft) W-SW 250 0 min 0,000 mm 0,0 UV-I 0 W/m 5,8 C 6,4 C 11,3 km/h (2 Bft) 100,00 %
15.11.2015 05:35 7,3 C 90 % 1019,6 hPa 0,0 l/m 9,9 km/h (2 Bft) W 263 0 min 0,000 mm 0,0 UV-I 0 W/m 5,8 C 4,7 C 16,1 km/h (3 Bft) 100,00 %
15.11.2015 05:36 7,3 C 90 % 1019,6 hPa 0,0 l/m 7,1 km/h (2 Bft) W 260 0 min 0,000 mm 0,0 UV-I 0 W/m 5,8 C 6,7 C 11,3 km/h (2 Bft) 100,00 %
15.11.2015 05:37 7,3 C 90 % 1019,6 hPa 0,0 l/m 6,2 km/h (2 Bft) W 259 0 min 0,000 mm 0,0 UV-I 0 W/m 5,8 C 7,3 C 11,3 km/h (2 Bft) 100,00 %
15.11.2015 05:38 7,3 C 90 % 1019,6 hPa 0,0 l/m 6,8 km/h (2 Bft) W-NW 288 0 min 0,000 mm 0,0 UV-I 0 W/m 5,8 C 7,0 C 11,3 km/h (2 Bft) 100,00 %
15.11.2015 05:39 7,3 C 90 % 1019,6 hPa 0,2 l/m 4,6 km/h (1 Bft) W 281 0 min 0,000 mm 0,0 UV-I 0 W/m 5,8 C 7,3 C 8,0 km/h (2 Bft) 96,15 %
15.11.2015 05:40 7,3 C 90 % 1019,5 hPa 0,0 l/m 5,8 km/h (2 Bft) W-SW 249 0 min 0,000 mm 0,0 UV-I 0 W/m 5,8 C 7,3 C 11,3 km/h (2 Bft) 100,00 %
15.11.2015 05:41 7,3 C 91 % 1019,5 hPa 0,0 l/m 4,6 km/h (1 Bft) SW 235 0 min 0,000 mm 0,0 UV-I 0 W/m 5,9 C 7,3 C 6,4 km/h (2 Bft) 100,00 %
15.11.2015 05:42 7,3 C 90 % 1019,5 hPa 0,0 l/m 6,1 km/h (2 Bft) W-NW 297 0 min 0,000 mm 0,0 UV-I 0 W/m 5,8 C 7,3 C 9,7 km/h (2 Bft) 100,00 %
15.11.2015 05:43 7,3 C 90 % 1019,5 hPa 0,0 l/m 5,9 km/h (2 Bft) SW 234 0 min 0,000 mm 0,0 UV-I 0 W/m 5,8 C 7,3 C 11,3 km/h (2 Bft) 100,00 %
15.11.2015 05:44 7,2 C 91 % 1019,5 hPa 0,0 l/m 4,9 km/h (1 Bft) W-SW 242 0 min 0,000 mm 0,0 UV-I 0 W/m 5,8 C 7,2 C 8,0 km/h (2 Bft) 100,00 %
15.11.2015 05:45 7,2 C 90 % 1019,5 hPa 0,0 l/m 6,4 km/h (2 Bft) W-SW 242 0 min 0,000 mm 0,0 UV-I 0 W/m 5,7 C 7,2 C 9,7 km/h (2 Bft) 100,00 %
15.11.2015 05:46 7,2 C 91 % 1019,4 hPa 0,0 l/m 4,8 km/h (1 Bft) NW 308 0 min 0,000 mm 0,0 UV-I 0 W/m 5,8 C 7,2 C 6,4 km/h (2 Bft) 100,00 %
15.11.2015 05:47 7,2 C 91 % 1019,4 hPa 0,0 l/m 6,2 km/h (2 Bft) W 261 0 min 0,000 mm 0,0 UV-I 0 W/m 5,8 C 7,2 C 9,7 km/h (2 Bft) 100,00 %
15.11.2015 05:48 7,2 C 91 % 1019,4 hPa 0,0 l/m 4,5 km/h (1 Bft) W 275 0 min 0,000 mm 0,0 UV-I 0 W/m 5,8 C 7,2 C 6,4 km/h (2 Bft) 95,83 %
15.11.2015 05:49 7,2 C 91 % 1019,3 hPa 0,0 l/m 3,7 km/h (1 Bft) SW 224 0 min 0,000 mm 0,0 UV-I 0 W/m 5,8 C 7,2 C 6,4 km/h (2 Bft) 95,65 %
15.11.2015 05:50 7,2 C 91 % 1019,3 hPa 0,0 l/m 4,6 km/h (1 Bft) W 271 0 min 0,000 mm 0,0 UV-I 0 W/m 5,8 C 7,2 C 6,4 km/h (2 Bft) 100,00 %
15.11.2015 05:51 7,2 C 91 % 1019,2 hPa 0,0 l/m 4,6 km/h (1 Bft) W-SW 237 0 min 0,000 mm 0,0 UV-I 0 W/m 5,8 C 7,2 C 9,7 km/h (2 Bft) 96,15 %
15.11.2015 05:52 7,2 C 91 % 1019,3 hPa 0,0 l/m 5,2 km/h (1 Bft) W 269 0 min 0,000 mm 0,0 UV-I 0 W/m 5,8 C 7,2 C 8,0 km/h (2 Bft) 100,00 %
15.11.2015 05:53 7,2 C 91 % 1019,3 hPa 0,0 l/m 4,8 km/h (1 Bft) S-SW 206 0 min 0,000 mm 0,0 UV-I 0 W/m 5,8 C 7,2 C 8,0 km/h (2 Bft) 100,00 %
15.11.2015 05:54 7,2 C 91 % 1019,3 hPa 0,0 l/m 5,6 km/h (1 Bft) W-NW 288 0 min 0,000 mm 0,0 UV-I 0 W/m 5,8 C 7,2 C 9,7 km/h (2 Bft) 100,00 %
15.11.2015 05:55 7,2 C 91 % 1019,3 hPa 0,2 l/m 5,9 km/h (2 Bft) S-SW 204 0 min 0,000 mm 0,0 UV-I 0 W/m 5,8 C 7,2 C 11,3 km/h (2 Bft) 91,30 %
15.11.2015 05:56 7,1 C 91 % 1019,3 hPa 0,0 l/m 4,3 km/h (1 Bft) SW 222 0 min 0,000 mm 0,0 UV-I 0 W/m 5,7 C 7,1 C 6,4 km/h (2 Bft) 100,00 %
15.11.2015 05:57 7,2 C 91 % 1019,2 hPa 0,0 l/m 4,7 km/h (1 Bft) W-SW 240 0 min 0,000 mm 0,0 UV-I 0 W/m 5,8 C 7,2 C 9,7 km/h (2 Bft) 91,67 %
15.11.2015 05:58 7,2 C 91 % 1019,1 hPa 0,0 l/m 4,5 km/h (1 Bft) SW 223 0 min 0,000 mm 0,0 UV-I 0 W/m 5,8 C 7,2 C 8,0 km/h (2 Bft) 100,00 %
15.11.2015 05:59 7,1 C 91 % 1019,1 hPa 0,0 l/m 6,6 km/h (2 Bft) SW 227 0 min 0,000 mm 0,0 UV-I 0 W/m 5,7 C 7,0 C 9,7 km/h (2 Bft) 100,00 %
15.11.2015 06:00 7,1 C 91 % 1019,0 hPa 0,0 l/m 6,0 km/h (2 Bft) SW 220 0 min 0,000 mm 0,0 UV-I 0 W/m 5,7 C 7,1 C 8,0 km/h (2 Bft) 100,00 %
15.11.2015 06:01 7,1 C 91 % 1019,0 hPa 0,2 l/m 4,3 km/h (1 Bft) W 272 0 min 0,000 mm 0,0 UV-I 0 W/m 5,7 C 7,1 C 8,0 km/h (2 Bft) 100,00 %
15.11.2015 06:02 7,1 C 91 % 1019,0 hPa 0,0 l/m 3,5 km/h (1 Bft) S-SW 207 0 min 0,000 mm 0,0 UV-I 0 W/m 5,7 C 7,1 C 6,4 km/h (2 Bft) 100,00 %
15.11.2015 06:03 7,1 C 91 % 1018,9 hPa 0,0 l/m 4,6 km/h (1 Bft) SW 219 0 min 0,000 mm 0,0 UV-I 0 W/m 5,7 C 7,1 C 8,0 km/h (2 Bft) 100,00 %
15.11.2015 06:04 7,1 C 92 % 1018,9 hPa 0,0 l/m 5,0 km/h (1 Bft) SW 231 0 min 0,000 mm 0,0 UV-I 0 W/m 5,9 C 7,1 C 8,0 km/h (2 Bft) 100,00 %
15.11.2015 06:05 7,1 C 92 % 1018,9 hPa 0,0 l/m 5,2 km/h (1 Bft) W-SW 242 0 min 0,000 mm 0,0 UV-I 0 W/m 5,9 C 7,1 C 8,0 km/h (2 Bft) 100,00 %
15.11.2015 06:06 7,1 C 92 % 1018,8 hPa 0,0 l/m 5,9 km/h (2 Bft) S-SW 213 0 min 0,000 mm 0,0 UV-I 0 W/m 5,9 C 7,1 C 9,7 km/h (2 Bft) 96,15 %
15.11.2015 06:07 7,1 C 92 % 1018,9 hPa 0,0 l/m 4,2 km/h (1 Bft) W-SW 257 0 min 0,000 mm 0,0 UV-I 0 W/m 5,9 C 7,1 C 6,4 km/h (2 Bft) 100,00 %
15.11.2015 06:08 7,1 C 92 % 1018,9 hPa 0,0 l/m 4,8 km/h (1 Bft) SW 224 0 min 0,000 mm 0,0 UV-I 0 W/m 5,9 C 7,1 C 8,0 km/h (2 Bft) 100,00 %
15.11.2015 06:09 7,1 C 92 % 1018,9 hPa 0,0 l/m 5,4 km/h (1 Bft) SW 221 0 min 0,000 mm 0,0 UV-I 0 W/m 5,9 C 7,1 C 6,4 km/h (2 Bft) 95,83 %
15.11.2015 06:10 7,1 C 92 % 1018,9 hPa 0,0 l/m 4,7 km/h (1 Bft) W-SW 249 0 min 0,000 mm 0,0 UV-I 0 W/m 5,9 C 7,1 C 8,0 km/h (2 Bft) 100,00 %
15.11.2015 06:11 7,1 C 92 % 1018,9 hPa 0,0 l/m 3,3 km/h (1 Bft) SW 236 0 min 0,000 mm 0,0 UV-I 0 W/m 5,9 C 7,1 C 6,4 km/h (2 Bft) 95,83 %
15.11.2015 06:12 7,0 C 92 % 1018,8 hPa 0,0 l/m 2,7 km/h (1 Bft) S-SW 207 0 min 0,000 mm 0,0 UV-I 0 W/m 5,8 C 7,0 C 3,2 km/h (1 Bft) 96,15 %
15.11.2015 06:13 7,0 C 92 % 1018,8 hPa 0,0 l/m 3,2 km/h (1 Bft) SW 234 0 min 0,000 mm 0,0 UV-I 0 W/m 5,8 C 7,0 C 4,8 km/h (1 Bft) 95,83 %
15.11.2015 06:14 7,0 C 92 % 1018,8 hPa 0,0 l/m 4,3 km/h (1 Bft) SW 220 0 min 0,000 mm 0,0 UV-I 0 W/m 5,8 C 7,0 C 8,0 km/h (2 Bft) 100,00 %
15.11.2015 06:15 7,0 C 92 % 1018,8 hPa 0,0 l/m 4,8 km/h (1 Bft) SW 227 0 min 0,000 mm 0,0 UV-I 0 W/m 5,8 C 7,0 C 6,4 km/h (2 Bft) 100,00 %
15.11.2015 06:16 7,0 C 92 % 1018,8 hPa 0,2 l/m 4,0 km/h (1 Bft) SW 233 0 min 0,000 mm 0,0 UV-I 0 W/m 5,8 C 7,0 C 4,8 km/h (1 Bft) 95,83 %
15.11.2015 06:17 6,9 C 92 % 1018,7 hPa 0,0 l/m 3,4 km/h (1 Bft) SW 231 0 min 0,000 mm 0,0 UV-I 0 W/m 5,7 C 6,9 C 4,8 km/h (1 Bft) 100,00 %
15.11.2015 06:18 6,9 C 92 % 1018,7 hPa 0,0 l/m 3,2 km/h (1 Bft) W-NW 291 0 min 0,000 mm 0,0 UV-I 0 W/m 5,7 C 6,9 C 4,8 km/h (1 Bft) 95,83 %
15.11.2015 06:19 6,9 C 93 % 1018,7 hPa 0,0 l/m 1,9 km/h (1 Bft) W-NW 287 0 min 0,000 mm 0,0 UV-I 0 W/m 5,8 C 6,9 C 3,2 km/h (1 Bft) 100,00 %
15.11.2015 06:20 6,9 C 93 % 1018,6 hPa 0,0 l/m 3,0 km/h (1 Bft) S-SW 207 0 min 0,000 mm 0,0 UV-I 0 W/m 5,8 C 6,9 C 4,8 km/h (1 Bft) 100,00 %
15.11.2015 06:21 6,9 C 93 % 1018,6 hPa 0,0 l/m 1,5 km/h (1 Bft) S-SW 208 0 min 0,000 mm 0,0 UV-I 0 W/m 5,8 C 6,9 C 3,2 km/h (1 Bft) 100,00 %
15.11.2015 06:22 6,9 C 93 % 1018,6 hPa 0,0 l/m 3,3 km/h (1 Bft) S-SW 207 0 min 0,000 mm 0,0 UV-I 0 W/m 5,8 C 6,9 C 4,8 km/h (1 Bft) 96,30 %
15.11.2015 06:23 6,9 C 93 % 1018,6 hPa 0,0 l/m 4,1 km/h (1 Bft) S-SW 203 0 min 0,000 mm 0,0 UV-I 0 W/m 5,8 C 6,9 C 6,4 km/h (2 Bft) 100,00 %
15.11.2015 06:24 6,9 C 93 % 1018,6 hPa 0,0 l/m 2,2 km/h (1 Bft) SW 217 0 min 0,000 mm 0,0 UV-I 0 W/m 5,8 C 6,9 C 3,2 km/h (1 Bft) 100,00 %
15.11.2015 06:25 6,9 C 93 % 1018,5 hPa 0,0 l/m 3,0 km/h (1 Bft) SW 225 0 min 0,000 mm 0,0 UV-I 0 W/m 5,8 C 6,9 C 4,8 km/h (1 Bft) 100,00 %
15.11.2015 06:26 6,9 C 93 % 1018,5 hPa 0,0 l/m 0,9 km/h (0 Bft) SW 225 0 min 0,000 mm 0,0 UV-I 0 W/m 5,8 C 6,9 C 1,6 km/h (1 Bft) 100,00 %
15.11.2015 06:27 6,9 C 93 % 1018,5 hPa 0,0 l/m 2,9 km/h (1 Bft) W-SW 257 0 min 0,000 mm 0,0 UV-I 0 W/m 5,8 C 6,9 C 4,8 km/h (1 Bft) 100,00 %
15.11.2015 06:28 6,9 C 93 % 1018,6 hPa 0,0 l/m 2,5 km/h (1 Bft) W 274 0 min 0,000 mm 0,0 UV-I 0 W/m 5,8 C 6,9 C 3,2 km/h (1 Bft) 100,00 %
15.11.2015 06:29 6,9 C 93 % 1018,5 hPa 0,0 l/m 2,9 km/h (1 Bft) SW 231 0 min 0,000 mm 0,0 UV-I 0 W/m 5,8 C 6,9 C 3,2 km/h (1 Bft) 100,00 %
15.11.2015 06:30 6,9 C 93 % 1018,5 hPa 0,0 l/m 1,9 km/h (1 Bft) W-NW 284 0 min 0,000 mm 0,0 UV-I 0 W/m 5,8 C 6,9 C 3,2 km/h (1 Bft) 100,00 %
15.11.2015 06:31 6,9 C 93 % 1018,5 hPa 0,0 l/m 2,6 km/h (1 Bft) SW 222 0 min 0,000 mm 0,0 UV-I 0 W/m 5,8 C 6,9 C 3,2 km/h (1 Bft) 99,23 %
15.11.2015 06:32 6,9 C 93 % 1018,5 hPa 0,0 l/m 2,2 km/h (1 Bft) W 262 0 min 0,000 mm 0,0 UV-I 0 W/m 5,8 C 6,9 C 4,8 km/h (1 Bft) 97,37 %
15.11.2015 06:33 6,9 C 93 % 1018,5 hPa 0,0 l/m 1,5 km/h (1 Bft) W 262 0 min 0,000 mm 0,0 UV-I 0 W/m 5,8 C 6,9 C 3,2 km/h (1 Bft) 100,00 %
15.11.2015 06:34 6,9 C 93 % 1018,5 hPa 0,0 l/m 1,8 km/h (1 Bft) W 261 0 min 0,000 mm 0,0 UV-I 0 W/m 5,8 C 6,9 C 3,2 km/h (1 Bft) 100,00 %
15.11.2015 06:35 6,9 C 93 % 1018,5 hPa 0,0 l/m 2,5 km/h (1 Bft) SW 234 0 min 0,000 mm 0,0 UV-I 0 W/m 5,8 C 6,9 C 4,8 km/h (1 Bft) 96,55 %
15.11.2015 06:36 6,9 C 93 % 1018,5 hPa 0,0 l/m 1,9 km/h (1 Bft) W-SW 238 0 min 0,000 mm 0,0 UV-I 0 W/m 5,8 C 6,9 C 3,2 km/h (1 Bft) 93,33 %
15.11.2015 06:37 6,9 C 93 % 1018,5 hPa 0,2 l/m 2,3 km/h (1 Bft) W 259 0 min 0,000 mm 0,0 UV-I 0 W/m 5,8 C 6,9 C 4,8 km/h (1 Bft) 100,00 %
15.11.2015 06:38 6,9 C 93 % 1018,5 hPa 0,0 l/m 2,8 km/h (1 Bft) W-SW 246 0 min 0,000 mm 0,0 UV-I 0 W/m 5,8 C 6,9 C 3,2 km/h (1 Bft) 100,00 %
15.11.2015 06:39 6,9 C 93 % 1018,5 hPa 0,0 l/m 2,3 km/h (1 Bft) W 259 0 min 0,000 mm 0,0 UV-I 0 W/m 5,8 C 6,9 C 3,2 km/h (1 Bft) 100,00 %
15.11.2015 06:40 6,9 C 93 % 1018,5 hPa 0,0 l/m 1,5 km/h (1 Bft) W 277 0 min 0,000 mm 0,0 UV-I 0 W/m 5,8 C 6,9 C 3,2 km/h (1 Bft) 100,00 %
15.11.2015 06:41 6,9 C 93 % 1018,5 hPa 0,0 l/m 3,6 km/h (1 Bft) W-SW 258 0 min 0,000 mm 0,0 UV-I 0 W/m 5,8 C 6,9 C 4,8 km/h (1 Bft) 100,00 %
15.11.2015 06:42 6,9 C 93 % 1018,6 hPa 0,0 l/m 2,7 km/h (1 Bft) W 261 0 min 0,000 mm 0,0 UV-I 0 W/m 5,8 C 6,9 C 4,8 km/h (1 Bft) 100,00 %
15.11.2015 06:43 6,9 C 93 % 1018,5 hPa 0,0 l/m 1,7 km/h (1 Bft) W 260 0 min 0,000 mm 0,0 UV-I 0 W/m 5,8 C 6,9 C 3,2 km/h (1 Bft) 100,00 %
15.11.2015 06:44 6,9 C 93 % 1018,5 hPa 0,0 l/m 3,4 km/h (1 Bft) W 267 0 min 0,000 mm 0,0 UV-I 0 W/m 5,8 C 6,9 C 4,8 km/h (1 Bft) 100,00 %
15.11.2015 06:45 6,9 C 93 % 1018,4 hPa 0,0 l/m 3,5 km/h (1 Bft) W-NW 295 0 min 0,000 mm 0,0 UV-I 0 W/m 5,8 C 6,9 C 6,4 km/h (2 Bft) 100,00 %
15.11.2015 06:46 6,9 C 93 % 1018,4 hPa 0,0 l/m 2,4 km/h (1 Bft) W 263 0 min 0,000 mm 0,0 UV-I 0 W/m 5,8 C 6,9 C 3,2 km/h (1 Bft) 100,00 %
15.11.2015 06:47 6,9 C 93 % 1018,4 hPa 0,0 l/m 3,5 km/h (1 Bft) W 278 0 min 0,000 mm 0,0 UV-I 0 W/m 5,8 C 6,9 C 4,8 km/h (1 Bft) 100,00 %
15.11.2015 06:48 6,9 C 93 % 1018,4 hPa 0,2 l/m 3,2 km/h (1 Bft) W 271 0 min 0,000 mm 0,0 UV-I 0 W/m 5,8 C 6,9 C 6,4 km/h (2 Bft) 100,00 %
15.11.2015 06:49 6,9 C 93 % 1018,3 hPa 0,0 l/m 3,9 km/h (1 Bft) W 259 0 min 0,000 mm 0,0 UV-I 0 W/m 5,8 C 6,9 C 4,8 km/h (1 Bft) 95,83 %
15.11.2015 06:50 6,9 C 93 % 1018,3 hPa 0,0 l/m 3,6 km/h (1 Bft) W-SW 246 0 min 0,000 mm 0,0 UV-I 0 W/m 5,8 C 6,9 C 6,4 km/h (2 Bft) 100,00 %
15.11.2015 06:51 7,0 C 93 % 1018,3 hPa 0,0 l/m 4,2 km/h (1 Bft) W 269 0 min 0,000 mm 0,0 UV-I 0 W/m 5,9 C 7,0 C 8,0 km/h (2 Bft) 100,00 %
15.11.2015 06:52 7,0 C 93 % 1018,3 hPa 0,0 l/m 8,1 km/h (2 Bft) W 268 0 min 0,000 mm 0,0 UV-I 0 W/m 5,9 C 5,6 C 12,9 km/h (3 Bft) 100,00 %
15.11.2015 06:53 7,1 C 92 % 1018,3 hPa 0,2 l/m 5,2 km/h (1 Bft) W-NW 284 0 min 0,000 mm 0,0 UV-I 0 W/m 5,9 C 7,1 C 9,7 km/h (2 Bft) 100,00 %
15.11.2015 06:54 7,1 C 93 % 1018,3 hPa 0,0 l/m 6,5 km/h (2 Bft) W-SW 255 0 min 0,000 mm 0,0 UV-I 0 W/m 6,0 C 7,0 C 9,7 km/h (2 Bft) 99,23 %
15.11.2015 06:55 7,1 C 92 % 1018,3 hPa 0,0 l/m 7,2 km/h (2 Bft) W 269 0 min 0,000 mm 0,0 UV-I 0 W/m 5,9 C 6,4 C 14,5 km/h (3 Bft) 100,00 %
15.11.2015 06:56 7,1 C 92 % 1018,3 hPa 0,0 l/m 10,7 km/h (2 Bft) W 267 0 min 0,000 mm 0,0 UV-I 0 W/m 5,9 C 3,9 C 20,9 km/h (4 Bft) 100,00 %
15.11.2015 06:57 7,2 C 92 % 1018,2 hPa 0,0 l/m 6,7 km/h (2 Bft) W 267 0 min 0,000 mm 0,0 UV-I 0 W/m 6,0 C 7,0 C 11,3 km/h (2 Bft) 100,00 %
15.11.2015 06:58 7,2 C 92 % 1018,2 hPa 0,0 l/m 10,1 km/h (2 Bft) SW 215 0 min 0,000 mm 0,0 UV-I 0 W/m 6,0 C 4,4 C 14,5 km/h (3 Bft) 100,00 %
15.11.2015 06:59 7,2 C 92 % 1018,2 hPa 0,0 l/m 8,6 km/h (2 Bft) W-SW 256 0 min 0,000 mm 0,0 UV-I 0 W/m 6,0 C 5,5 C 11,3 km/h (2 Bft) 100,00 %
15.11.2015 07:00 7,2 C 92 % 1018,2 hPa 0,0 l/m 6,0 km/h (2 Bft) W 263 0 min 0,000 mm 0,0 UV-I 0 W/m 6,0 C 7,2 C 11,3 km/h (2 Bft) 100,00 %
15.11.2015 07:01 7,2 C 92 % 1018,2 hPa 0,2 l/m 9,6 km/h (2 Bft) SW 226 0 min 0,000 mm 0,0 UV-I 0 W/m 6,0 C 4,8 C 16,1 km/h (3 Bft) 100,00 %
15.11.2015 07:02 7,3 C 92 % 1018,1 hPa 0,0 l/m 6,3 km/h (2 Bft) W-NW 286 0 min 0,000 mm 0,0 UV-I 0 W/m 6,1 C 7,3 C 9,7 km/h (2 Bft) 100,00 %
15.11.2015 07:03 7,3 C 92 % 1018,1 hPa 0,0 l/m 8,7 km/h (2 Bft) W-SW 252 0 min 0,000 mm 0,0 UV-I 0 W/m 6,1 C 5,5 C 16,1 km/h (3 Bft) 100,00 %
15.11.2015 07:04 7,3 C 92 % 1018,0 hPa 0,0 l/m 6,9 km/h (2 Bft) W 281 0 min 0,000 mm 0,0 UV-I 0 W/m 6,1 C 6,9 C 9,7 km/h (2 Bft) 100,00 %
15.11.2015 07:05 7,3 C 92 % 1018,0 hPa 0,0 l/m 6,3 km/h (2 Bft) SW 228 0 min 0,000 mm 0,0 UV-I 0 W/m 6,1 C 7,3 C 12,9 km/h (3 Bft) 100,00 %
15.11.2015 07:06 7,3 C 92 % 1018,0 hPa 0,2 l/m 9,1 km/h (2 Bft) W-SW 256 0 min 0,000 mm 0,0 UV-I 0 W/m 6,1 C 5,2 C 14,5 km/h (3 Bft) 100,00 %
15.11.2015 07:07 7,3 C 92 % 1018,0 hPa 0,0 l/m 11,1 km/h (2 Bft) W 279 0 min 0,000 mm 0,0 UV-I 0 W/m 6,1 C 3,9 C 17,7 km/h (3 Bft) 100,00 %
15.11.2015 07:08 7,3 C 91 % 1018,0 hPa 0,0 l/m 10,6 km/h (2 Bft) W-SW 252 0 min 0,000 mm 0,0 UV-I 0 W/m 5,9 C 4,2 C 14,5 km/h (3 Bft) 100,00 %
15.11.2015 07:09 7,3 C 91 % 1018,1 hPa 0,0 l/m 7,6 km/h (2 Bft) W-SW 245 0 min 0,000 mm 0,0 UV-I 0 W/m 5,9 C 6,3 C 12,9 km/h (3 Bft) 100,00 %
15.11.2015 07:10 7,3 C 91 % 1018,0 hPa 0,0 l/m 10,9 km/h (2 Bft) W-NW 290 0 min 0,000 mm 0,0 UV-I 0 W/m 5,9 C 4,0 C 16,1 km/h (3 Bft) 100,00 %
15.11.2015 07:11 7,3 C 91 % 1017,9 hPa 0,0 l/m 6,9 km/h (2 Bft) W-NW 282 0 min 0,000 mm 0,0 UV-I 0 W/m 5,9 C 6,9 C 12,9 km/h (3 Bft) 100,00 %
15.11.2015 07:12 7,3 C 91 % 1018,0 hPa 0,0 l/m 7,6 km/h (2 Bft) W 268 0 min 0,000 mm 0,0 UV-I 0 W/m 5,9 C 6,3 C 11,3 km/h (2 Bft) 100,00 %
15.11.2015 07:13 7,3 C 91 % 1017,9 hPa 0,0 l/m 6,0 km/h (2 Bft) W-SW 242 0 min 0,000 mm 0,0 UV-I 0 W/m 5,9 C 7,3 C 11,3 km/h (2 Bft) 100,00 %
15.11.2015 07:14 7,3 C 91 % 1018,0 hPa 0,0 l/m 5,5 km/h (1 Bft) W-NW 288 0 min 0,000 mm 0,0 UV-I 0 W/m 5,9 C 7,3 C 11,3 km/h (2 Bft) 95,83 %
15.11.2015 07:15 7,3 C 91 % 1018,0 hPa 0,0 l/m 5,0 km/h (1 Bft) W-SW 252 0 min 0,000 mm 0,0 UV-I 0 W/m 5,9 C 7,3 C 6,4 km/h (2 Bft) 100,00 %
15.11.2015 07:16 7,3 C 91 % 1017,9 hPa 0,0 l/m 7,2 km/h (2 Bft) W 275 0 min 0,000 mm 0,0 UV-I 0 W/m 5,9 C 6,7 C 11,3 km/h (2 Bft) 100,00 %
15.11.2015 07:17 7,3 C 91 % 1017,9 hPa 0,0 l/m 5,9 km/h (2 Bft) W-NW 286 0 min 0,000 mm 0,0 UV-I 0 W/m 5,9 C 7,3 C 11,3 km/h (2 Bft) 100,00 %
15.11.2015 07:18 7,3 C 91 % 1017,9 hPa 0,0 l/m 7,6 km/h (2 Bft) W 280 0 min 0,000 mm 0,0 UV-I 0 W/m 5,9 C 6,3 C 11,3 km/h (2 Bft) 100,00 %
15.11.2015 07:19 7,3 C 91 % 1017,8 hPa 0,0 l/m 5,2 km/h (1 Bft) W 278 0 min 0,000 mm 0,0 UV-I 2 W/m 5,9 C 7,3 C 9,7 km/h (2 Bft) 100,00 %
15.11.2015 07:20 7,3 C 91 % 1017,8 hPa 0,0 l/m 4,2 km/h (1 Bft) W 278 0 min 0,000 mm 0,0 UV-I 5 W/m 5,9 C 7,3 C 6,4 km/h (2 Bft) 100,00 %
15.11.2015 07:21 7,3 C 91 % 1017,8 hPa 0,0 l/m 4,6 km/h (1 Bft) W-NW 295 0 min 0,000 mm 0,0 UV-I 5 W/m 5,9 C 7,3 C 6,4 km/h (2 Bft) 100,00 %
15.11.2015 07:22 7,3 C 91 % 1017,7 hPa 0,2 l/m 2,8 km/h (1 Bft) W-NW 300 0 min 0,000 mm 0,0 UV-I 5 W/m 5,9 C 7,3 C 4,8 km/h (1 Bft) 100,00 %
15.11.2015 07:23 7,3 C 91 % 1017,7 hPa 0,0 l/m 5,6 km/h (1 Bft) W-NW 283 0 min 0,000 mm 0,0 UV-I 5 W/m 5,9 C 7,3 C 12,9 km/h (3 Bft) 100,00 %
15.11.2015 07:24 7,3 C 91 % 1017,7 hPa 0,0 l/m 5,0 km/h (1 Bft) W 281 0 min 0,000 mm 0,0 UV-I 5 W/m 5,9 C 7,3 C 9,7 km/h (2 Bft) 100,00 %
15.11.2015 07:25 7,3 C 91 % 1017,8 hPa 0,0 l/m 3,9 km/h (1 Bft) W 273 0 min 0,000 mm 0,0 UV-I 5 W/m 5,9 C 7,3 C 4,8 km/h (1 Bft) 100,00 %
15.11.2015 07:26 7,3 C 91 % 1017,8 hPa 0,0 l/m 2,0 km/h (1 Bft) W 281 0 min 0,000 mm 0,0 UV-I 5 W/m 5,9 C 7,3 C 3,2 km/h (1 Bft) 91,30 %
15.11.2015 07:27 7,3 C 92 % 1017,7 hPa 0,0 l/m 0,7 km/h (0 Bft) W 281 0 min 0,000 mm 0,0 UV-I 5 W/m 6,1 C 7,3 C 1,6 km/h (1 Bft) 100,00 %
15.11.2015 07:28 7,2 C 92 % 1017,7 hPa 0,0 l/m 2,1 km/h (1 Bft) W-NW 291 0 min 0,000 mm 0,0 UV-I 7 W/m 6,0 C 7,2 C 3,2 km/h (1 Bft) 100,00 %
15.11.2015 07:29 7,2 C 92 % 1017,7 hPa 0,2 l/m 3,1 km/h (1 Bft) W 280 0 min 0,000 mm 0,0 UV-I 6 W/m 6,0 C 7,2 C 4,8 km/h (1 Bft) 100,00 %
15.11.2015 07:30 7,2 C 92 % 1017,7 hPa 0,0 l/m 2,1 km/h (1 Bft) W-NW 286 0 min 0,000 mm 0,0 UV-I 5 W/m 6,0 C 7,2 C 4,8 km/h (1 Bft) 100,00 %
15.11.2015 07:31 7,2 C 92 % 1017,7 hPa 0,0 l/m 3,3 km/h (1 Bft) W 267 0 min 0,000 mm 0,0 UV-I 6 W/m 6,0 C 7,2 C 4,8 km/h (1 Bft) 95,83 %
15.11.2015 07:32 7,2 C 92 % 1017,6 hPa 0,0 l/m 2,7 km/h (1 Bft) W-NW 283 0 min 0,000 mm 0,0 UV-I 7 W/m 6,0 C 7,2 C 4,8 km/h (1 Bft) 100,00 %
15.11.2015 07:33 7,2 C 92 % 1017,6 hPa 0,0 l/m 3,7 km/h (1 Bft) W 277 0 min 0,000 mm 0,0 UV-I 7 W/m 6,0 C 7,2 C 4,8 km/h (1 Bft) 100,00 %
15.11.2015 07:34 7,2 C 92 % 1017,6 hPa 0,0 l/m 3,1 km/h (1 Bft) NW 304 0 min 0,000 mm 0,0 UV-I 9 W/m 6,0 C 7,2 C 4,8 km/h (1 Bft) 96,15 %
15.11.2015 07:35 7,2 C 92 % 1017,6 hPa 0,0 l/m 3,7 km/h (1 Bft) W-NW 289 0 min 0,000 mm 0,0 UV-I 11 W/m 6,0 C 7,2 C 6,4 km/h (2 Bft) 100,00 %
15.11.2015 07:36 7,2 C 92 % 1017,6 hPa 0,0 l/m 3,4 km/h (1 Bft) W-NW 292 0 min 0,000 mm 0,0 UV-I 12 W/m 6,0 C 7,2 C 4,8 km/h (1 Bft) 100,00 %
15.11.2015 07:37 7,2 C 92 % 1017,6 hPa 0,0 l/m 3,1 km/h (1 Bft) W-NW 288 0 min 0,000 mm 0,0 UV-I 12 W/m 6,0 C 7,2 C 4,8 km/h (1 Bft) 100,00 %
15.11.2015 07:38 7,2 C 92 % 1017,4 hPa 0,0 l/m 1,9 km/h (1 Bft) W-NW 288 0 min 0,000 mm 0,0 UV-I 13 W/m 6,0 C 7,2 C 3,2 km/h (1 Bft) 100,00 %
15.11.2015 07:39 7,2 C 92 % 1017,4 hPa 0,0 l/m 1,7 km/h (1 Bft) W-NW 292 0 min 0,000 mm 0,0 UV-I 14 W/m 6,0 C 7,2 C 3,2 km/h (1 Bft) 100,00 %
15.11.2015 07:40 7,2 C 92 % 1017,4 hPa 0,0 l/m 2,1 km/h (1 Bft) W 277 0 min 0,000 mm 0,0 UV-I 14 W/m 6,0 C 7,2 C 3,2 km/h (1 Bft) 100,00 %
15.11.2015 07:41 7,2 C 92 % 1017,4 hPa 0,0 l/m 3,0 km/h (1 Bft) W-NW 286 0 min 0,000 mm 0,0 UV-I 13 W/m 6,0 C 7,2 C 4,8 km/h (1 Bft) 100,00 %
15.11.2015 07:42 7,2 C 92 % 1017,4 hPa 0,0 l/m 1,5 km/h (1 Bft) W-NW 286 0 min 0,000 mm 0,0 UV-I 12 W/m 6,0 C 7,2 C 3,2 km/h (1 Bft) 100,00 %
15.11.2015 07:43 7,2 C 92 % 1017,5 hPa 0,0 l/m 1,0 km/h (0 Bft) W-NW 286 0 min 0,000 mm 0,0 UV-I 11 W/m 6,0 C 7,2 C 1,6 km/h (1 Bft) 100,00 %
15.11.2015 07:44 7,2 C 92 % 1017,4 hPa 0,0 l/m 1,3 km/h (1 Bft) W-NW 286 0 min 0,000 mm 0,0 UV-I 11 W/m 6,0 C 7,2 C 3,2 km/h (1 Bft) 100,00 %
15.11.2015 07:45 7,2 C 92 % 1017,4 hPa 0,0 l/m 1,9 km/h (1 Bft) W 259 0 min 0,000 mm 0,0 UV-I 11 W/m 6,0 C 7,2 C 3,2 km/h (1 Bft) 100,00 %
15.11.2015 07:46 7,2 C 92 % 1017,4 hPa 0,0 l/m 1,1 km/h (1 Bft) W 259 0 min 0,000 mm 0,0 UV-I 11 W/m 6,0 C 7,2 C 1,6 km/h (1 Bft) 100,00 %
15.11.2015 07:47 7,2 C 92 % 1017,4 hPa 0,0 l/m 0,6 km/h (0 Bft) SW 223 0 min 0,000 mm 0,0 UV-I 11 W/m 6,0 C 7,2 C 1,6 km/h (1 Bft) 100,00 %
15.11.2015 07:48 7,2 C 92 % 1017,4 hPa 0,0 l/m 1,5 km/h (1 Bft) SW 225 0 min 0,000 mm 0,0 UV-I 12 W/m 6,0 C 7,2 C 3,2 km/h (1 Bft) 100,00 %
15.11.2015 07:49 7,2 C 92 % 1017,4 hPa 0,0 l/m 1,2 km/h (1 Bft) SW 225 0 min 0,000 mm 0,0 UV-I 11 W/m 6,0 C 7,2 C 3,2 km/h (1 Bft) 100,00 %
15.11.2015 07:50 7,2 C 92 % 1017,3 hPa 0,0 l/m 1,1 km/h (1 Bft) SW 225 0 min 0,000 mm 0,0 UV-I 11 W/m 6,0 C 7,2 C 1,6 km/h (1 Bft) 100,00 %
15.11.2015 07:51 7,2 C 92 % 1017,3 hPa 0,0 l/m 0,4 km/h (0 Bft) SW 225 0 min 0,000 mm 0,0 UV-I 11 W/m 6,0 C 7,2 C 1,6 km/h (1 Bft) 100,00 %
15.11.2015 07:52 7,2 C 92 % 1017,3 hPa 0,0 l/m 1,1 km/h (1 Bft) SW 225 0 min 0,000 mm 0,0 UV-I 12 W/m 6,0 C 7,2 C 3,2 km/h (1 Bft) 100,00 %
15.11.2015 07:53 7,2 C 92 % 1017,3 hPa 0,0 l/m 0,8 km/h (0 Bft) SW 225 0 min 0,000 mm 0,0 UV-I 12 W/m 6,0 C 7,2 C 1,6 km/h (1 Bft) 100,00 %
15.11.2015 07:54 7,2 C 92 % 1017,2 hPa 0,0 l/m 1,4 km/h (1 Bft) SW 225 0 min 0,000 mm 0,0 UV-I 12 W/m 6,0 C 7,2 C 3,2 km/h (1 Bft) 100,00 %
15.11.2015 07:55 7,2 C 92 % 1017,1 hPa 0,0 l/m 0,5 km/h (0 Bft) SW 225 0 min 0,000 mm 0,0 UV-I 12 W/m 6,0 C 7,2 C 1,6 km/h (1 Bft) 100,00 %
15.11.2015 07:56 7,2 C 92 % 1017,2 hPa 0,0 l/m 0,8 km/h (0 Bft) SW 225 0 min 0,000 mm 0,0 UV-I 14 W/m 6,0 C 7,2 C 1,6 km/h (1 Bft) 100,00 %
15.11.2015 07:57 7,2 C 92 % 1017,1 hPa 0,0 l/m 1,4 km/h (1 Bft) SW 225 0 min 0,000 mm 0,0 UV-I 14 W/m 6,0 C 7,2 C 1,6 km/h (1 Bft) 96,30 %
15.11.2015 07:58 7,2 C 92 % 1017,0 hPa 0,0 l/m 0,7 km/h (0 Bft) SW 225 0 min 0,000 mm 0,0 UV-I 16 W/m 6,0 C 7,2 C 1,6 km/h (1 Bft) 100,00 %
15.11.2015 07:59 7,2 C 92 % 1017,1 hPa 0,0 l/m 0,9 km/h (0 Bft) SW 225 0 min 0,000 mm 0,0 UV-I 17 W/m 6,0 C 7,2 C 1,6 km/h (1 Bft) 100,00 %
15.11.2015 08:00 7,2 C 92 % 1017,2 hPa 0,0 l/m 0,2 km/h (0 Bft) SW 225 0 min 0,000 mm 0,0 UV-I 17 W/m 6,0 C 7,2 C 1,6 km/h (1 Bft) 100,00 %
15.11.2015 08:01 7,2 C 92 % 1017,2 hPa 0,0 l/m 1,7 km/h (1 Bft) W-NW 300 0 min 0,000 mm 0,0 UV-I 15 W/m 6,0 C 7,2 C 3,2 km/h (1 Bft) 100,00 %
15.11.2015 08:02 7,2 C 92 % 1017,3 hPa 0,0 l/m 2,5 km/h (1 Bft) W-NW 303 0 min 0,000 mm 0,0 UV-I 14 W/m 6,0 C 7,2 C 3,2 km/h (1 Bft) 100,00 %
15.11.2015 08:03 7,2 C 92 % 1017,3 hPa 0,0 l/m 0,3 km/h (0 Bft) W-NW 302 0 min 0,000 mm 0,0 UV-I 18 W/m 6,0 C 7,2 C 1,6 km/h (1 Bft) 100,00 %
15.11.2015 08:04 7,2 C 93 % 1017,2 hPa 0,0 l/m 0,0 km/h (0 Bft) W-NW 302 0 min 0,000 mm 0,0 UV-I 22 W/m 6,1 C 7,2 C 0,0 km/h (0 Bft) 100,00 %
15.11.2015 08:05 7,1 C 93 % 1017,2 hPa 0,0 l/m 0,1 km/h (0 Bft) W-NW 302 0 min 0,000 mm 0,0 UV-I 20 W/m 6,0 C 7,1 C 1,6 km/h (1 Bft) 100,00 %
15.11.2015 08:06 7,1 C 94 % 1017,3 hPa 0,0 l/m 0,4 km/h (0 Bft) W-NW 302 0 min 0,000 mm 0,0 UV-I 17 W/m 6,2 C 7,1 C 1,6 km/h (1 Bft) 96,15 %
15.11.2015 08:07 7,1 C 94 % 1017,3 hPa 0,0 l/m 0,0 km/h (0 Bft) W-NW 303 0 min 0,000 mm 0,0 UV-I 15 W/m 6,2 C 7,1 C 0,0 km/h (0 Bft) 100,00 %
15.11.2015 08:08 7,0 C 94 % 1017,3 hPa 0,0 l/m 0,1 km/h (0 Bft) W-NW 303 0 min 0,000 mm 0,0 UV-I 16 W/m 6,1 C 7,0 C 1,6 km/h (1 Bft) 100,00 %
15.11.2015 08:09 7,0 C 95 % 1017,2 hPa 0,0 l/m 0,0 km/h (0 Bft) W-NW 303 0 min 0,000 mm 0,0 UV-I 19 W/m 6,3 C 7,0 C 0,0 km/h (0 Bft) 100,00 %
15.11.2015 08:10 6,9 C 95 % 1017,2 hPa 0,0 l/m 0,0 km/h (0 Bft) W-NW 303 0 min 0,000 mm 0,0 UV-I 23 W/m 6,2 C 6,9 C 0,0 km/h (0 Bft) 100,00 %
15.11.2015 08:11 6,9 C 95 % 1017,2 hPa 0,0 l/m 0,0 km/h (0 Bft) W-NW 303 0 min 0,000 mm 0,0 UV-I 22 W/m 6,2 C 6,9 C 0,0 km/h (0 Bft) 100,00 %
15.11.2015 08:12 6,9 C 95 % 1017,2 hPa 0,0 l/m 0,0 km/h (0 Bft) W-NW 303 0 min 0,000 mm 0,0 UV-I 20 W/m 6,2 C 6,9 C 0,0 km/h (0 Bft) 100,00 %
15.11.2015 08:13 6,9 C 95 % 1017,2 hPa 0,0 l/m 0,0 km/h (0 Bft) W-NW 303 0 min 0,000 mm 0,0 UV-I 19 W/m 6,2 C 6,9 C 0,0 km/h (0 Bft) 100,00 %
15.11.2015 08:14 6,9 C 95 % 1017,1 hPa 0,0 l/m 0,0 km/h (0 Bft) W-NW 303 0 min 0,000 mm 0,0 UV-I 18 W/m 6,2 C 6,9 C 0,0 km/h (0 Bft) 100,00 %
15.11.2015 08:15 6,9 C 96 % 1017,1 hPa 0,0 l/m 0,4 km/h (0 Bft) W-NW 303 0 min 0,000 mm 0,0 UV-I 18 W/m 6,3 C 6,9 C 1,6 km/h (1 Bft) 100,00 %
15.11.2015 08:16 6,9 C 96 % 1017,2 hPa 0,0 l/m 2,2 km/h (1 Bft) W-NW 303 0 min 0,000 mm 0,0 UV-I 19 W/m 6,3 C 6,9 C 3,2 km/h (1 Bft) 96,15 %
15.11.2015 08:17 6,9 C 95 % 1017,1 hPa 0,0 l/m 1,0 km/h (0 Bft) W-NW 303 0 min 0,000 mm 0,0 UV-I 21 W/m 6,2 C 6,9 C 1,6 km/h (1 Bft) 100,00 %
15.11.2015 08:18 6,9 C 95 % 1017,1 hPa 0,0 l/m 1,2 km/h (1 Bft) W-NW 302 0 min 0,000 mm 0,0 UV-I 21 W/m 6,2 C 6,9 C 1,6 km/h (1 Bft) 100,00 %
15.11.2015 08:19 6,9 C 94 % 1017,1 hPa 0,0 l/m 1,5 km/h (1 Bft) W-NW 303 0 min 0,000 mm 0,0 UV-I 21 W/m 6,0 C 6,9 C 3,2 km/h (1 Bft) 100,00 %
15.11.2015 08:20 7,0 C 94 % 1017,1 hPa 0,0 l/m 0,4 km/h (0 Bft) W-NW 303 0 min 0,000 mm 0,0 UV-I 21 W/m 6,1 C 7,0 C 1,6 km/h (1 Bft) 96,30 %
15.11.2015 08:21 7,0 C 94 % 1017,1 hPa 0,0 l/m 0,1 km/h (0 Bft) W-NW 302 0 min 0,000 mm 0,0 UV-I 19 W/m 6,1 C 7,0 C 1,6 km/h (1 Bft) 100,00 %
15.11.2015 08:22 7,0 C 94 % 1017,1 hPa 0,0 l/m 1,1 km/h (1 Bft) W-NW 302 0 min 0,000 mm 0,0 UV-I 18 W/m 6,1 C 7,0 C 1,6 km/h (1 Bft) 100,00 %
15.11.2015 08:23 7,1 C 94 % 1017,1 hPa 0,0 l/m 0,9 km/h (0 Bft) W-NW 302 0 min 0,000 mm 0,0 UV-I 20 W/m 6,2 C 7,1 C 1,6 km/h (1 Bft) 100,00 %
15.11.2015 08:24 7,1 C 94 % 1017,1 hPa 0,0 l/m 0,7 km/h (0 Bft) W-NW 303 0 min 0,000 mm 0,0 UV-I 22 W/m 6,2 C 7,1 C 1,6 km/h (1 Bft) 100,00 %
15.11.2015 08:25 7,1 C 94 % 1017,1 hPa 0,0 l/m 0,1 km/h (0 Bft) W-NW 303 0 min 0,000 mm 0,0 UV-I 25 W/m 6,2 C 7,1 C 1,6 km/h (1 Bft) 100,00 %
15.11.2015 08:26 7,1 C 94 % 1017,1 hPa 0,0 l/m 0,0 km/h (0 Bft) W-NW 303 0 min 0,000 mm 0,0 UV-I 26 W/m 6,2 C 7,1 C 0,0 km/h (0 Bft) 100,00 %
15.11.2015 08:27 7,1 C 94 % 1017,0 hPa 0,0 l/m 0,3 km/h (0 Bft) W-NW 303 0 min 0,000 mm 0,0 UV-I 30 W/m 6,2 C 7,1 C 1,6 km/h (1 Bft) 100,00 %
15.11.2015 08:28 7,1 C 94 % 1017,0 hPa 0,0 l/m 0,0 km/h (0 Bft) W-NW 302 0 min 0,000 mm 0,0 UV-I 33 W/m 6,2 C 7,1 C 0,0 km/h (0 Bft) 100,00 %
15.11.2015 08:29 7,1 C 94 % 1017,0 hPa 0,0 l/m 0,0 km/h (0 Bft) W-NW 303 0 min 0,000 mm 0,0 UV-I 37 W/m 6,2 C 7,1 C 0,0 km/h (0 Bft) 100,00 %
15.11.2015 08:30 7,1 C 94 % 1017,0 hPa 0,0 l/m 0,1 km/h (0 Bft) W-NW 303 0 min 0,000 mm 0,0 UV-I 40 W/m 6,2 C 7,1 C 1,6 km/h (1 Bft) 100,00 %
15.11.2015 08:31 7,1 C 94 % 1017,0 hPa 0,0 l/m 0,9 km/h (0 Bft) W-NW 302 0 min 0,000 mm 0,0 UV-I 39 W/m 6,2 C 7,1 C 3,2 km/h (1 Bft) 100,00 %
15.11.2015 08:32 7,2 C 94 % 1017,0 hPa 0,0 l/m 0,5 km/h (0 Bft) W-NW 302 0 min 0,000 mm 0,0 UV-I 37 W/m 6,3 C 7,2 C 1,6 km/h (1 Bft) 100,00 %
15.11.2015 08:33 7,2 C 94 % 1017,0 hPa 0,0 l/m 1,1 km/h (1 Bft) W-NW 303 0 min 0,000 mm 0,0 UV-I 33 W/m 6,3 C 7,2 C 1,6 km/h (1 Bft) 91,67 %
15.11.2015 08:34 7,2 C 94 % 1017,0 hPa 0,0 l/m 0,3 km/h (0 Bft) W-NW 302 0 min 0,000 mm 0,0 UV-I 31 W/m 6,3 C 7,2 C 1,6 km/h (1 Bft) 100,00 %
15.11.2015 08:35 7,2 C 94 % 1016,9 hPa 0,0 l/m 0,1 km/h (0 Bft) W-NW 303 0 min 0,000 mm 0,0 UV-I 28 W/m 6,3 C 7,2 C 1,6 km/h (1 Bft) 100,00 %
15.11.2015 08:36 7,2 C 93 % 1016,9 hPa 0,0 l/m 1,0 km/h (0 Bft) NW 315 0 min 0,000 mm 0,0 UV-I 28 W/m 6,1 C 7,2 C 1,6 km/h (1 Bft) 100,00 %
15.11.2015 08:37 7,2 C 94 % 1016,9 hPa 0,0 l/m 1,0 km/h (0 Bft) NW 315 0 min 0,000 mm 0,0 UV-I 26 W/m 6,3 C 7,2 C 3,2 km/h (1 Bft) 100,00 %
15.11.2015 08:38 7,2 C 93 % 1016,9 hPa 0,0 l/m 0,3 km/h (0 Bft) NW 315 0 min 0,000 mm 0,0 UV-I 26 W/m 6,1 C 7,2 C 1,6 km/h (1 Bft) 100,00 %
15.11.2015 08:39 7,2 C 93 % 1016,9 hPa 0,0 l/m 1,1 km/h (1 Bft) NW 315 0 min 0,000 mm 0,0 UV-I 32 W/m 6,1 C 7,2 C 3,2 km/h (1 Bft) 100,00 %
15.11.2015 08:40 7,2 C 93 % 1016,9 hPa 0,0 l/m 1,2 km/h (1 Bft) NW 315 0 min 0,000 mm 0,0 UV-I 38 W/m 6,1 C 7,2 C 1,6 km/h (1 Bft) 100,00 %
15.11.2015 08:41 7,2 C 93 % 1016,9 hPa 0,0 l/m 0,9 km/h (0 Bft) NW 305 0 min 0,000 mm 0,0 UV-I 42 W/m 6,1 C 7,2 C 3,2 km/h (1 Bft) 100,00 %
15.11.2015 08:42 7,2 C 93 % 1016,8 hPa 0,0 l/m 1,3 km/h (1 Bft) NW 305 0 min 0,000 mm 0,0 UV-I 49 W/m 6,1 C 7,2 C 1,6 km/h (1 Bft) 100,00 %
15.11.2015 08:43 7,2 C 94 % 1016,8 hPa 0,0 l/m 0,1 km/h (0 Bft) NW 305 0 min 0,000 mm 0,0 UV-I 55 W/m 6,3 C 7,2 C 1,6 km/h (1 Bft) 100,00 %
15.11.2015 08:44 7,2 C 94 % 1016,8 hPa 0,0 l/m 0,2 km/h (0 Bft) NW 305 0 min 0,000 mm 0,0 UV-I 51 W/m 6,3 C 7,2 C 1,6 km/h (1 Bft) 100,00 %
15.11.2015 08:45 7,3 C 94 % 1016,8 hPa 0,0 l/m 0,0 km/h (0 Bft) NW 305 0 min 0,000 mm 0,0 UV-I 43 W/m 6,4 C 7,3 C 0,0 km/h (0 Bft) 96,15 %
15.11.2015 08:46 7,3 C 94 % 1016,8 hPa 0,0 l/m 0,9 km/h (0 Bft) NW 305 0 min 0,000 mm 0,0 UV-I 44 W/m 6,4 C 7,3 C 3,2 km/h (1 Bft) 100,00 %
15.11.2015 08:47 7,3 C 94 % 1016,8 hPa 0,0 l/m 1,8 km/h (1 Bft) NW 305 0 min 0,000 mm 0,0 UV-I 50 W/m 6,4 C 7,3 C 3,2 km/h (1 Bft) 100,00 %
15.11.2015 08:48 7,3 C 94 % 1016,8 hPa 0,0 l/m 0,6 km/h (0 Bft) NW 305 0 min 0,000 mm 0,0 UV-I 57 W/m 6,4 C 7,3 C 1,6 km/h (1 Bft) 92,86 %
15.11.2015 08:49 7,3 C 94 % 1016,7 hPa 0,0 l/m 1,5 km/h (1 Bft) NW 305 0 min 0,000 mm 0,0 UV-I 61 W/m 6,4 C 7,3 C 3,2 km/h (1 Bft) 100,00 %
15.11.2015 08:50 7,3 C 94 % 1016,7 hPa 0,0 l/m 0,4 km/h (0 Bft) NW 305 0 min 0,000 mm 0,0 UV-I 63 W/m 6,4 C 7,3 C 1,6 km/h (1 Bft) 100,00 %
15.11.2015 08:51 7,4 C 94 % 1016,6 hPa 0,0 l/m 0,5 km/h (0 Bft) NW 305 0 min 0,000 mm 0,0 UV-I 63 W/m 6,5 C 7,4 C 1,6 km/h (1 Bft) 100,00 %
15.11.2015 08:52 7,4 C 94 % 1016,6 hPa 0,0 l/m 1,2 km/h (1 Bft) NW 305 0 min 0,000 mm 0,0 UV-I 63 W/m 6,5 C 7,4 C 1,6 km/h (1 Bft) 100,00 %
15.11.2015 08:53 7,5 C 93 % 1016,6 hPa 0,0 l/m 1,3 km/h (1 Bft) NW 305 0 min 0,000 mm 0,0 UV-I 62 W/m 6,4 C 7,5 C 3,2 km/h (1 Bft) 100,00 %
15.11.2015 08:54 7,5 C 93 % 1016,6 hPa 0,0 l/m 0,5 km/h (0 Bft) NW 305 0 min 0,000 mm 0,0 UV-I 58 W/m 6,4 C 7,5 C 1,6 km/h (1 Bft) 100,00 %
15.11.2015 08:55 7,6 C 93 % 1016,6 hPa 0,0 l/m 2,0 km/h (1 Bft) NW 305 0 min 0,000 mm 0,0 UV-I 50 W/m 6,5 C 7,6 C 3,2 km/h (1 Bft) 95,83 %
15.11.2015 08:56 7,6 C 92 % 1016,6 hPa 0,0 l/m 2,1 km/h (1 Bft) NW 323 0 min 0,000 mm 0,0 UV-I 44 W/m 6,4 C 7,6 C 3,2 km/h (1 Bft) 100,00 %
15.11.2015 08:57 7,6 C 92 % 1016,6 hPa 0,0 l/m 1,6 km/h (1 Bft) NW 321 0 min 0,000 mm 0,0 UV-I 44 W/m 6,4 C 7,6 C 3,2 km/h (1 Bft) 100,00 %
15.11.2015 08:58 7,6 C 92 % 1016,6 hPa 0,0 l/m 1,2 km/h (1 Bft) NW 322 0 min 0,000 mm 0,0 UV-I 50 W/m 6,4 C 7,6 C 1,6 km/h (1 Bft) 100,00 %
15.11.2015 08:59 7,6 C 92 % 1016,6 hPa 0,0 l/m 1,6 km/h (1 Bft) NW 321 0 min 0,000 mm 0,0 UV-I 58 W/m 6,4 C 7,6 C 3,2 km/h (1 Bft) 100,00 %
15.11.2015 09:00 7,6 C 92 % 1016,6 hPa 0,0 l/m 1,8 km/h (1 Bft) NW 321 0 min 0,026 mm 0,0 UV-I 62 W/m 6,4 C 7,6 C 3,2 km/h (1 Bft) 100,00 %
15.11.2015 09:01 7,6 C 92 % 1016,5 hPa 0,0 l/m 1,2 km/h (1 Bft) NW 321 0 min 0,000 mm 0,0 UV-I 63 W/m 6,4 C 7,6 C 1,6 km/h (1 Bft) 100,00 %
15.11.2015 09:02 7,6 C 92 % 1016,5 hPa 0,0 l/m 1,6 km/h (1 Bft) NW 317 0 min 0,000 mm 0,0 UV-I 64 W/m 6,4 C 7,6 C 3,2 km/h (1 Bft) 100,00 %
15.11.2015 09:03 7,6 C 92 % 1016,5 hPa 0,0 l/m 1,7 km/h (1 Bft) NW 309 0 min 0,000 mm 0,0 UV-I 58 W/m 6,4 C 7,6 C 3,2 km/h (1 Bft) 96,00 %
15.11.2015 09:04 7,6 C 92 % 1016,6 hPa 0,0 l/m 0,3 km/h (0 Bft) NW 309 0 min 0,000 mm 0,0 UV-I 51 W/m 6,4 C 7,6 C 1,6 km/h (1 Bft) 95,83 %
15.11.2015 09:05 7,6 C 93 % 1016,6 hPa 0,0 l/m 0,0 km/h (0 Bft) NW 309 0 min 0,000 mm 0,0 UV-I 44 W/m 6,5 C 7,6 C 0,0 km/h (0 Bft) 100,00 %
15.11.2015 09:06 7,6 C 94 % 1016,5 hPa 0,0 l/m 0,1 km/h (0 Bft) NW 309 0 min 0,000 mm 0,0 UV-I 42 W/m 6,7 C 7,6 C 1,6 km/h (1 Bft) 95,83 %
15.11.2015 09:07 7,6 C 94 % 1016,6 hPa 0,0 l/m 0,1 km/h (0 Bft) NW 309 0 min 0,000 mm 0,0 UV-I 47 W/m 6,7 C 7,6 C 1,6 km/h (1 Bft) 100,00 %
15.11.2015 09:08 7,6 C 94 % 1016,5 hPa 0,0 l/m 0,3 km/h (0 Bft) NW 311 0 min 0,000 mm 0,0 UV-I 56 W/m 6,7 C 7,6 C 1,6 km/h (1 Bft) 100,00 %
15.11.2015 09:09 7,6 C 94 % 1016,5 hPa 0,0 l/m 0,1 km/h (0 Bft) NW 311 0 min 0,000 mm 0,0 UV-I 64 W/m 6,7 C 7,6 C 1,6 km/h (1 Bft) 100,00 %
15.11.2015 09:10 7,6 C 94 % 1016,5 hPa 0,0 l/m 0,0 km/h (0 Bft) NW 311 0 min 0,000 mm 0,0 UV-I 67 W/m 6,7 C 7,6 C 0,0 km/h (0 Bft) 100,00 %
15.11.2015 09:11 7,6 C 94 % 1016,5 hPa 0,0 l/m 0,7 km/h (0 Bft) NW 311 0 min 0,000 mm 0,0 UV-I 66 W/m 6,7 C 7,6 C 1,6 km/h (1 Bft) 100,00 %
15.11.2015 09:12 7,6 C 94 % 1016,5 hPa 0,0 l/m 0,2 km/h (0 Bft) NW 313 0 min 0,000 mm 0,0 UV-I 69 W/m 6,7 C 7,6 C 1,6 km/h (1 Bft) 100,00 %
15.11.2015 09:13 7,6 C 94 % 1016,5 hPa 0,0 l/m 0,2 km/h (0 Bft) NW 315 0 min 0,000 mm 0,0 UV-I 74 W/m 6,7 C 7,6 C 1,6 km/h (1 Bft) 100,00 %
15.11.2015 09:14 7,6 C 93 % 1016,5 hPa 0,0 l/m 0,0 km/h (0 Bft) NW 315 0 min 0,000 mm 0,0 UV-I 74 W/m 6,5 C 7,6 C 0,0 km/h (0 Bft) 100,00 %
15.11.2015 09:15 7,7 C 93 % 1016,5 hPa 0,0 l/m 1,9 km/h (1 Bft) NW 325 0 min 0,000 mm 0,0 UV-I 72 W/m 6,6 C 7,7 C 3,2 km/h (1 Bft) 100,00 %
15.11.2015 09:16 7,7 C 92 % 1016,5 hPa 0,0 l/m 1,9 km/h (1 Bft) NW 315 0 min 0,000 mm 0,0 UV-I 74 W/m 6,5 C 7,7 C 3,2 km/h (1 Bft) 100,00 %
15.11.2015 09:17 7,7 C 91 % 1016,6 hPa 0,0 l/m 1,8 km/h (1 Bft) NW 315 0 min 0,000 mm 0,0 UV-I 72 W/m 6,3 C 7,7 C 3,2 km/h (1 Bft) 100,00 %
15.11.2015 09:18 7,7 C 92 % 1016,6 hPa 0,0 l/m 1,3 km/h (1 Bft) NW 315 0 min 0,000 mm 0,0 UV-I 68 W/m 6,5 C 7,7 C 3,2 km/h (1 Bft) 100,00 %
15.11.2015 09:19 7,7 C 92 % 1016,5 hPa 0,0 l/m 0,0 km/h (0 Bft) NW 315 0 min 0,000 mm 0,0 UV-I 63 W/m 6,5 C 7,7 C 0,0 km/h (0 Bft) 100,00 %
15.11.2015 09:20 7,7 C 93 % 1016,6 hPa 0,0 l/m 0,3 km/h (0 Bft) NW 315 0 min 0,000 mm 0,0 UV-I 64 W/m 6,6 C 7,7 C 1,6 km/h (1 Bft) 100,00 %
15.11.2015 09:21 7,7 C 93 % 1016,6 hPa 0,0 l/m 0,1 km/h (0 Bft) NW 315 0 min 0,000 mm 0,0 UV-I 65 W/m 6,6 C 7,7 C 1,6 km/h (1 Bft) 95,83 %
15.11.2015 09:22 7,7 C 93 % 1016,6 hPa 0,0 l/m 0,8 km/h (0 Bft) NW 315 0 min 0,000 mm 0,0 UV-I 65 W/m 6,6 C 7,7 C 1,6 km/h (1 Bft) 100,00 %
15.11.2015 09:23 7,7 C 93 % 1016,6 hPa 0,2 l/m 0,8 km/h (0 Bft) NW 315 0 min 0,000 mm 0,0 UV-I 64 W/m 6,6 C 7,7 C 1,6 km/h (1 Bft) 100,00 %
15.11.2015 09:24 7,6 C 94 % 1016,6 hPa 0,0 l/m 0,0 km/h (0 Bft) NW 315 0 min 0,000 mm 0,0 UV-I 63 W/m 6,7 C 7,6 C 0,0 km/h (0 Bft) 100,00 %
15.11.2015 09:25 7,6 C 94 % 1016,6 hPa 0,0 l/m 0,0 km/h (0 Bft) NW 315 0 min 0,000 mm 0,0 UV-I 65 W/m 6,7 C 7,6 C 0,0 km/h (0 Bft) 100,00 %
15.11.2015 09:26 7,6 C 95 % 1016,6 hPa 0,0 l/m 0,0 km/h (0 Bft) NW 315 0 min 0,000 mm 0,0 UV-I 59 W/m 6,9 C 7,6 C 0,0 km/h (0 Bft) 100,00 %
15.11.2015 09:27 7,6 C 94 % 1016,5 hPa 0,0 l/m 0,0 km/h (0 Bft) NW 315 0 min 0,000 mm 0,0 UV-I 48 W/m 6,7 C 7,6 C 0,0 km/h (0 Bft) 100,00 %
15.11.2015 09:28 7,6 C 94 % 1016,5 hPa 0,0 l/m 0,3 km/h (0 Bft) NW 315 0 min 0,000 mm 0,0 UV-I 45 W/m 6,7 C 7,6 C 1,6 km/h (1 Bft) 100,00 %
15.11.2015 09:29 7,5 C 94 % 1016,4 hPa 0,0 l/m 0,5 km/h (0 Bft) NW 315 0 min 0,000 mm 0,0 UV-I 50 W/m 6,6 C 7,5 C 1,6 km/h (1 Bft) 100,00 %
15.11.2015 09:30 7,5 C 94 % 1016,4 hPa 0,0 l/m 0,6 km/h (0 Bft) NW 315 0 min 0,000 mm 0,0 UV-I 53 W/m 6,6 C 7,5 C 1,6 km/h (1 Bft) 100,00 %
15.11.2015 09:31 7,5 C 94 % 1016,5 hPa 0,0 l/m 0,9 km/h (0 Bft) NW 315 0 min 0,000 mm 0,0 UV-I 52 W/m 6,6 C 7,5 C 1,6 km/h (1 Bft) 100,00 %
15.11.2015 09:32 7,6 C 94 % 1016,4 hPa 0,0 l/m 1,5 km/h (1 Bft) NW 315 0 min 0,000 mm 0,0 UV-I 54 W/m 6,7 C 7,6 C 3,2 km/h (1 Bft) 100,00 %
15.11.2015 09:33 7,5 C 94 % 1016,4 hPa 0,0 l/m 0,3 km/h (0 Bft) NW 315 0 min 0,000 mm 0,0 UV-I 52 W/m 6,6 C 7,5 C 1,6 km/h (1 Bft) 100,00 %
15.11.2015 09:34 7,5 C 94 % 1016,4 hPa 0,0 l/m 0,0 km/h (0 Bft) NW 315 0 min 0,000 mm 0,0 UV-I 51 W/m 6,6 C 7,5 C 0,0 km/h (0 Bft) 100,00 %
15.11.2015 09:35 7,5 C 94 % 1016,4 hPa 0,0 l/m 0,5 km/h (0 Bft) NW 315 0 min 0,000 mm 0,0 UV-I 48 W/m 6,6 C 7,5 C 1,6 km/h (1 Bft) 95,65 %
15.11.2015 09:36 7,5 C 94 % 1016,4 hPa 0,0 l/m 1,0 km/h (0 Bft) NW 315 0 min 0,000 mm 0,0 UV-I 41 W/m 6,6 C 7,5 C 3,2 km/h (1 Bft) 100,00 %
15.11.2015 09:37 7,5 C 94 % 1016,4 hPa 0,2 l/m 0,9 km/h (0 Bft) NW 315 0 min 0,000 mm 0,0 UV-I 35 W/m 6,6 C 7,5 C 1,6 km/h (1 Bft) 100,00 %
15.11.2015 09:38 7,5 C 94 % 1016,4 hPa 0,0 l/m 1,3 km/h (1 Bft) W-NW 294 0 min 0,000 mm 0,0 UV-I 33 W/m 6,6 C 7,5 C 3,2 km/h (1 Bft) 100,00 %
15.11.2015 09:39 7,5 C 94 % 1016,5 hPa 0,0 l/m 1,3 km/h (1 Bft) W-NW 294 0 min 0,000 mm 0,0 UV-I 30 W/m 6,6 C 7,5 C 1,6 km/h (1 Bft) 100,00 %
15.11.2015 09:40 7,4 C 94 % 1016,5 hPa 0,0 l/m 0,9 km/h (0 Bft) W-NW 294 0 min 0,000 mm 0,0 UV-I 27 W/m 6,5 C 7,4 C 1,6 km/h (1 Bft) 100,00 %
15.11.2015 09:41 7,4 C 94 % 1016,4 hPa 0,0 l/m 0,9 km/h (0 Bft) W-NW 294 0 min 0,000 mm 0,0 UV-I 25 W/m 6,5 C 7,4 C 1,6 km/h (1 Bft) 100,00 %
15.11.2015 09:42 7,4 C 94 % 1016,3 hPa 0,0 l/m 0,2 km/h (0 Bft) W-NW 294 0 min 0,000 mm 0,0 UV-I 26 W/m 6,5 C 7,4 C 1,6 km/h (1 Bft) 100,00 %
15.11.2015 09:43 7,5 C 94 % 1016,3 hPa 0,0 l/m 0,0 km/h (0 Bft) W-NW 294 0 min 0,000 mm 0,0 UV-I 32 W/m 6,6 C 7,5 C 0,0 km/h (0 Bft) 100,00 %
15.11.2015 09:44 7,5 C 94 % 1016,3 hPa 0,0 l/m 0,0 km/h (0 Bft) W-NW 295 0 min 0,000 mm 0,0 UV-I 33 W/m 6,6 C 7,5 C 0,0 km/h (0 Bft) 100,00 %
15.11.2015 09:45 7,5 C 94 % 1016,2 hPa 0,0 l/m 0,7 km/h (0 Bft) W-NW 298 0 min 0,000 mm 0,0 UV-I 36 W/m 6,6 C 7,5 C 1,6 km/h (1 Bft) 100,00 %
15.11.2015 09:46 7,6 C 93 % 1016,2 hPa 0,0 l/m 0,5 km/h (0 Bft) W-NW 298 0 min 0,000 mm 0,0 UV-I 41 W/m 6,5 C 7,6 C 1,6 km/h (1 Bft) 96,30 %
15.11.2015 09:47 7,6 C 93 % 1016,1 hPa 0,0 l/m 0,9 km/h (0 Bft) W-NW 298 0 min 0,000 mm 0,0 UV-I 42 W/m 6,5 C 7,6 C 1,6 km/h (1 Bft) 95,65 %
15.11.2015 09:48 7,6 C 93 % 1016,1 hPa 0,0 l/m 0,2 km/h (0 Bft) W-NW 298 0 min 0,000 mm 0,0 UV-I 49 W/m 6,5 C 7,6 C 1,6 km/h (1 Bft) 100,00 %
15.11.2015 09:49 7,6 C 93 % 1016,1 hPa 0,0 l/m 0,1 km/h (0 Bft) W-NW 298 0 min 0,000 mm 0,0 UV-I 59 W/m 6,5 C 7,6 C 1,6 km/h (1 Bft) 100,00 %
15.11.2015 09:50 7,6 C 92 % 1016,0 hPa 0,0 l/m 0,6 km/h (0 Bft) W-NW 298 0 min 0,000 mm 0,0 UV-I 66 W/m 6,4 C 7,6 C 1,6 km/h (1 Bft) 100,00 %
15.11.2015 09:51 7,7 C 92 % 1016,0 hPa 0,2 l/m 0,2 km/h (0 Bft) W-NW 298 0 min 0,000 mm 0,0 UV-I 67 W/m 6,5 C 7,7 C 1,6 km/h (1 Bft) 100,00 %
15.11.2015 09:52 7,7 C 93 % 1015,9 hPa 0,0 l/m 0,5 km/h (0 Bft) W-NW 298 0 min 0,000 mm 0,0 UV-I 66 W/m 6,6 C 7,7 C 1,6 km/h (1 Bft) 100,00 %
15.11.2015 09:53 7,7 C 92 % 1015,9 hPa 0,0 l/m 0,1 km/h (0 Bft) W-NW 298 0 min 0,000 mm 0,0 UV-I 63 W/m 6,5 C 7,7 C 1,6 km/h (1 Bft) 95,83 %
15.11.2015 09:54 7,7 C 93 % 1015,9 hPa 0,0 l/m 0,0 km/h (0 Bft) W-NW 298 0 min 0,000 mm 0,0 UV-I 63 W/m 6,6 C 7,7 C 0,0 km/h (0 Bft) 100,00 %
15.11.2015 09:55 7,7 C 93 % 1015,9 hPa 0,0 l/m 0,1 km/h (0 Bft) W-NW 298 0 min 0,000 mm 0,0 UV-I 61 W/m 6,6 C 7,7 C 1,6 km/h (1 Bft) 100,00 %
15.11.2015 09:56 7,7 C 92 % 1015,9 hPa 0,0 l/m 0,9 km/h (0 Bft) W-NW 298 0 min 0,000 mm 0,0 UV-I 57 W/m 6,5 C 7,7 C 3,2 km/h (1 Bft) 100,00 %
15.11.2015 09:57 7,7 C 93 % 1015,9 hPa 0,0 l/m 1,0 km/h (0 Bft) W-NW 298 0 min 0,000 mm 0,0 UV-I 56 W/m 6,6 C 7,7 C 3,2 km/h (1 Bft) 100,00 %
15.11.2015 09:58 7,8 C 92 % 1015,9 hPa 0,0 l/m 0,7 km/h (0 Bft) W-NW 298 0 min 0,000 mm 0,0 UV-I 57 W/m 6,6 C 7,8 C 1,6 km/h (1 Bft) 100,00 %
15.11.2015 09:59 7,8 C 93 % 1015,9 hPa 0,0 l/m 0,0 km/h (0 Bft) W-NW 298 0 min 0,000 mm 0,0 UV-I 58 W/m 6,7 C 7,8 C 0,0 km/h (0 Bft) 83,33 %
15.11.2015 10:00 7,8 C 93 % 1015,9 hPa 0,0 l/m 0,1 km/h (0 Bft) W-NW 298 0 min 0,025 mm 0,0 UV-I 56 W/m 6,7 C 7,8 C 1,6 km/h (1 Bft) 96,77 %
15.11.2015 10:02 7,8 C 93 % 1015,8 hPa 0,0 l/m 0,0 km/h (0 Bft) W-NW 298 0 min 0,000 mm 0,0 UV-I 48 W/m 6,7 C 7,8 C 0,0 km/h (0 Bft) 100,00 %
15.11.2015 10:03 7,8 C 93 % 1015,8 hPa 0,0 l/m 0,0 km/h (0 Bft) W-NW 298 0 min 0,000 mm 0,0 UV-I 43 W/m 6,7 C 7,8 C 0,0 km/h (0 Bft) 100,00 %
15.11.2015 10:04 7,7 C 93 % 1015,8 hPa 0,0 l/m 0,0 km/h (0 Bft) W-NW 298 0 min 0,000 mm 0,0 UV-I 42 W/m 6,6 C 7,7 C 0,0 km/h (0 Bft) 100,00 %
15.11.2015 10:05 7,7 C 92 % 1015,7 hPa 0,0 l/m 0,0 km/h (0 Bft) W-NW 298 0 min 0,000 mm 0,0 UV-I 42 W/m 6,5 C 7,7 C 0,0 km/h (0 Bft) 100,00 %
15.11.2015 10:06 7,7 C 92 % 1015,7 hPa 0,0 l/m 0,1 km/h (0 Bft) W-NW 298 0 min 0,000 mm 0,0 UV-I 40 W/m 6,5 C 7,7 C 1,6 km/h (1 Bft) 100,00 %
15.11.2015 10:07 7,7 C 92 % 1015,7 hPa 0,0 l/m 0,0 km/h (0 Bft) W-NW 298 0 min 0,000 mm 0,0 UV-I 40 W/m 6,5 C 7,7 C 0,0 km/h (0 Bft) 95,83 %
15.11.2015 10:08 7,8 C 92 % 1015,7 hPa 0,0 l/m 0,0 km/h (0 Bft) W-NW 298 0 min 0,000 mm 0,0 UV-I 41 W/m 6,6 C 7,8 C 0,0 km/h (0 Bft) 95,65 %
15.11.2015 10:09 7,8 C 92 % 1015,7 hPa 0,0 l/m 0,0 km/h (0 Bft) W-NW 298 0 min 0,000 mm 0,0 UV-I 43 W/m 6,6 C 7,8 C 0,0 km/h (0 Bft) 100,00 %
15.11.2015 10:10 7,8 C 91 % 1015,7 hPa 0,0 l/m 0,0 km/h (0 Bft) W-NW 298 0 min 0,000 mm 0,0 UV-I 46 W/m 6,4 C 7,8 C 0,0 km/h (0 Bft) 100,00 %
15.11.2015 10:11 7,8 C 91 % 1015,6 hPa 0,0 l/m 0,0 km/h (0 Bft) W-NW 298 0 min 0,000 mm 0,0 UV-I 49 W/m 6,4 C 7,8 C 0,0 km/h (0 Bft) 100,00 %
15.11.2015 10:12 7,8 C 91 % 1015,5 hPa 0,0 l/m 0,0 km/h (0 Bft) W-NW 298 0 min 0,000 mm 0,0 UV-I 49 W/m 6,4 C 7,8 C 0,0 km/h (0 Bft) 100,00 %
15.11.2015 10:13 7,8 C 91 % 1015,5 hPa 0,0 l/m 0,0 km/h (0 Bft) W-NW 298 0 min 0,000 mm 0,0 UV-I 50 W/m 6,4 C 7,8 C 0,0 km/h (0 Bft) 100,00 %
15.11.2015 10:14 7,8 C 91 % 1015,5 hPa 0,0 l/m 0,0 km/h (0 Bft) W-NW 298 0 min 0,000 mm 0,0 UV-I 57 W/m 6,4 C 7,8 C 0,0 km/h (0 Bft) 100,00 %
15.11.2015 10:15 7,8 C 91 % 1015,4 hPa 0,0 l/m 0,0 km/h (0 Bft) W-NW 298 0 min 0,000 mm 0,0 UV-I 64 W/m 6,4 C 7,8 C 0,0 km/h (0 Bft) 100,00 %
15.11.2015 10:16 7,8 C 91 % 1015,4 hPa 0,0 l/m 0,0 km/h (0 Bft) W-NW 298 0 min 0,000 mm 0,0 UV-I 64 W/m 6,4 C 7,8 C 0,0 km/h (0 Bft) 96,15 %
15.11.2015 10:17 7,9 C 92 % 1015,5 hPa 0,0 l/m 0,0 km/h (0 Bft) W-NW 298 0 min 0,000 mm 0,0 UV-I 63 W/m 6,7 C 7,9 C 0,0 km/h (0 Bft) 91,67 %
15.11.2015 10:18 7,9 C 91 % 1015,5 hPa 0,0 l/m 0,0 km/h (0 Bft) W-NW 298 0 min 0,000 mm 0,0 UV-I 65 W/m 6,5 C 7,9 C 0,0 km/h (0 Bft) 100,00 %
15.11.2015 10:19 7,9 C 91 % 1015,5 hPa 0,0 l/m 0,0 km/h (0 Bft) W-NW 298 0 min 0,000 mm 0,0 UV-I 63 W/m 6,5 C 7,9 C 0,0 km/h (0 Bft) 100,00 %
15.11.2015 10:20 7,9 C 91 % 1015,6 hPa 0,0 l/m 0,0 km/h (0 Bft) W-NW 298 0 min 0,000 mm 0,0 UV-I 61 W/m 6,5 C 7,9 C 0,0 km/h (0 Bft) 100,00 %
15.11.2015 10:21 7,9 C 92 % 1015,6 hPa 0,0 l/m 0,3 km/h (0 Bft) N-NW 344 0 min 0,000 mm 0,0 UV-I 60 W/m 6,7 C 7,9 C 1,6 km/h (1 Bft) 91,30 %
15.11.2015 10:22 8,0 C 92 % 1015,6 hPa 0,0 l/m 1,4 km/h (1 Bft) N-NW 347 0 min 0,000 mm 0,0 UV-I 53 W/m 6,8 C 8,0 C 3,2 km/h (1 Bft) 100,00 %
15.11.2015 10:23 8,0 C 93 % 1015,6 hPa 0,0 l/m 0,8 km/h (0 Bft) N-NW 347 0 min 0,000 mm 0,0 UV-I 49 W/m 6,9 C 8,0 C 1,6 km/h (1 Bft) 100,00 %
15.11.2015 10:24 8,1 C 93 % 1015,6 hPa 0,0 l/m 1,1 km/h (1 Bft) N 355 0 min 0,000 mm 0,0 UV-I 47 W/m 7,0 C 8,1 C 1,6 km/h (1 Bft) 100,00 %
15.11.2015 10:25 8,1 C 94 % 1015,6 hPa 0,0 l/m 1,8 km/h (1 Bft) N 5 0 min 0,000 mm 0,0 UV-I 46 W/m 7,2 C 8,1 C 3,2 km/h (1 Bft) 100,00 %
15.11.2015 10:26 8,1 C 94 % 1015,6 hPa 0,0 l/m 1,1 km/h (1 Bft) N 5 0 min 0,000 mm 0,0 UV-I 46 W/m 7,2 C 8,1 C 1,6 km/h (1 Bft) 100,00 %
15.11.2015 10:27 8,1 C 94 % 1015,6 hPa 0,0 l/m 1,1 km/h (1 Bft) N 5 0 min 0,000 mm 0,0 UV-I 47 W/m 7,2 C 8,1 C 3,2 km/h (1 Bft) 100,00 %
15.11.2015 10:28 8,0 C 94 % 1015,6 hPa 0,0 l/m 1,6 km/h (1 Bft) N 5 0 min 0,000 mm 0,0 UV-I 41 W/m 7,1 C 8,0 C 3,2 km/h (1 Bft) 100,00 %
15.11.2015 10:29 8,0 C 94 % 1015,6 hPa 0,0 l/m 1,1 km/h (1 Bft) N 11 0 min 0,000 mm 0,0 UV-I 39 W/m 7,1 C 8,0 C 3,2 km/h (1 Bft) 100,00 %
15.11.2015 10:30 8,0 C 94 % 1015,7 hPa 0,0 l/m 2,1 km/h (1 Bft) N-NO 13 0 min 0,000 mm 0,0 UV-I 40 W/m 7,1 C 8,0 C 3,2 km/h (1 Bft) 100,00 %
15.11.2015 10:31 7,9 C 93 % 1015,7 hPa 0,2 l/m 2,5 km/h (1 Bft) N-NO 13 0 min 0,000 mm 0,0 UV-I 41 W/m 6,8 C 7,9 C 3,2 km/h (1 Bft) 100,00 %
15.11.2015 10:32 7,9 C 93 % 1015,7 hPa 0,0 l/m 2,0 km/h (1 Bft) N 11 0 min 0,000 mm 0,0 UV-I 41 W/m 6,8 C 7,9 C 3,2 km/h (1 Bft) 100,00 %
15.11.2015 10:33 7,9 C 93 % 1015,6 hPa 0,0 l/m 2,2 km/h (1 Bft) N 5 0 min 0,000 mm 0,0 UV-I 40 W/m 6,8 C 7,9 C 3,2 km/h (1 Bft) 100,00 %
15.11.2015 10:34 7,9 C 94 % 1015,5 hPa 0,0 l/m 1,9 km/h (1 Bft) N-NO 19 0 min 0,000 mm 0,0 UV-I 38 W/m 7,0 C 7,9 C 3,2 km/h (1 Bft) 100,00 %
15.11.2015 10:35 7,8 C 94 % 1015,4 hPa 0,0 l/m 0,8 km/h (0 Bft) O 88 0 min 0,000 mm 0,0 UV-I 39 W/m 6,9 C 7,8 C 1,6 km/h (1 Bft) 100,00 %
15.11.2015 10:36 7,8 C 94 % 1015,3 hPa 0,0 l/m 0,6 km/h (0 Bft) O-NO 77 0 min 0,000 mm 0,0 UV-I 43 W/m 6,9 C 7,8 C 1,6 km/h (1 Bft) 100,00 %
15.11.2015 10:37 7,8 C 94 % 1015,3 hPa 0,0 l/m 1,3 km/h (1 Bft) O-NO 76 0 min 0,000 mm 0,0 UV-I 48 W/m 6,9 C 7,8 C 1,6 km/h (1 Bft) 100,00 %
15.11.2015 10:38 7,8 C 93 % 1015,3 hPa 0,0 l/m 1,8 km/h (1 Bft) O 94 0 min 0,000 mm 0,0 UV-I 56 W/m 6,7 C 7,8 C 3,2 km/h (1 Bft) 100,00 %
15.11.2015 10:39 7,8 C 93 % 1015,2 hPa 0,0 l/m 1,7 km/h (1 Bft) O-NO 71 0 min 0,000 mm 0,0 UV-I 63 W/m 6,7 C 7,8 C 4,8 km/h (1 Bft) 95,83 %
15.11.2015 10:40 7,8 C 93 % 1015,2 hPa 0,0 l/m 1,1 km/h (1 Bft) N 355 0 min 0,000 mm 0,0 UV-I 68 W/m 6,7 C 7,8 C 3,2 km/h (1 Bft) 100,00 %
15.11.2015 10:41 7,8 C 93 % 1015,2 hPa 0,0 l/m 1,9 km/h (1 Bft) N 10 0 min 0,000 mm 0,0 UV-I 70 W/m 6,7 C 7,8 C 3,2 km/h (1 Bft) 100,00 %
15.11.2015 10:42 7,8 C 93 % 1015,2 hPa 0,0 l/m 2,7 km/h (1 Bft) N 5 0 min 0,000 mm 0,0 UV-I 67 W/m 6,7 C 7,8 C 4,8 km/h (1 Bft) 100,00 %
15.11.2015 10:43 7,9 C 93 % 1015,2 hPa 0,0 l/m 2,9 km/h (1 Bft) N-NO 17 0 min 0,000 mm 0,0 UV-I 63 W/m 6,8 C 7,9 C 4,8 km/h (1 Bft) 100,00 %
15.11.2015 10:44 7,9 C 93 % 1015,1 hPa 0,0 l/m 0,5 km/h (0 Bft) N-NO 26 0 min 0,000 mm 0,0 UV-I 68 W/m 6,8 C 7,9 C 1,6 km/h (1 Bft) 100,00 %
15.11.2015 10:45 7,9 C 93 % 1015,0 hPa 0,0 l/m 0,5 km/h (0 Bft) N-NO 25 0 min 0,000 mm 0,0 UV-I 83 W/m 6,8 C 7,9 C 1,6 km/h (1 Bft) 95,83 %
15.11.2015 10:46 7,9 C 93 % 1015,0 hPa 0,0 l/m 0,0 km/h (0 Bft) N-NO 25 0 min 0,000 mm 0,0 UV-I 92 W/m 6,8 C 7,9 C 0,0 km/h (0 Bft) 100,00 %
15.11.2015 10:47 7,9 C 93 % 1015,0 hPa 0,0 l/m 0,0 km/h (0 Bft) N-NO 25 0 min 0,000 mm 0,0 UV-I 89 W/m 6,8 C 7,9 C 0,0 km/h (0 Bft) 100,00 %
15.11.2015 10:48 7,9 C 93 % 1015,0 hPa 0,0 l/m 0,0 km/h (0 Bft) N-NO 25 0 min 0,000 mm 0,0 UV-I 84 W/m 6,8 C 7,9 C 0,0 km/h (0 Bft) 95,65 %
15.11.2015 10:49 8,0 C 93 % 1015,0 hPa 0,0 l/m 1,1 km/h (1 Bft) N-NO 24 0 min 0,000 mm 0,0 UV-I 80 W/m 6,9 C 8,0 C 3,2 km/h (1 Bft) 100,00 %
15.11.2015 10:50 8,0 C 92 % 1015,1 hPa 0,0 l/m 1,6 km/h (1 Bft) N 11 0 min 0,000 mm 0,0 UV-I 75 W/m 6,8 C 8,0 C 4,8 km/h (1 Bft) 100,00 %
15.11.2015 10:51 8,1 C 92 % 1015,0 hPa 0,0 l/m 1,1 km/h (1 Bft) N 11 0 min 0,000 mm 0,0 UV-I 71 W/m 6,9 C 8,1 C 3,2 km/h (1 Bft) 100,00 %
15.11.2015 10:52 8,0 C 92 % 1015,0 hPa 0,0 l/m 1,5 km/h (1 Bft) N 11 0 min 0,000 mm 0,0 UV-I 72 W/m 6,8 C 8,0 C 3,2 km/h (1 Bft) 100,00 %
15.11.2015 10:53 8,1 C 93 % 1015,1 hPa 0,0 l/m 1,2 km/h (1 Bft) N 11 0 min 0,000 mm 0,0 UV-I 77 W/m 7,0 C 8,1 C 1,6 km/h (1 Bft) 95,83 %
15.11.2015 10:54 8,1 C 93 % 1015,0 hPa 0,0 l/m 0,6 km/h (0 Bft) N 11 0 min 0,000 mm 0,0 UV-I 88 W/m 7,0 C 8,1 C 1,6 km/h (1 Bft) 100,00 %
15.11.2015 10:55 8,0 C 93 % 1014,9 hPa 0,0 l/m 0,7 km/h (0 Bft) N 11 0 min 0,000 mm 0,1 UV-I 106 W/m 6,9 C 8,0 C 1,6 km/h (1 Bft) 100,00 %
15.11.2015 10:56 8,1 C 93 % 1014,8 hPa 0,0 l/m 0,2 km/h (0 Bft) N 11 0 min 0,000 mm 0,5 UV-I 125 W/m 7,0 C 8,1 C 1,6 km/h (1 Bft) 91,67 %
15.11.2015 10:57 8,1 C 92 % 1014,8 hPa 0,0 l/m 0,0 km/h (0 Bft) N 11 0 min 0,000 mm 0,6 UV-I 137 W/m 6,9 C 8,1 C 0,0 km/h (0 Bft) 100,00 %
15.11.2015 10:58 8,1 C 93 % 1014,8 hPa 0,0 l/m 0,9 km/h (0 Bft) N 11 0 min 0,000 mm 0,6 UV-I 141 W/m 7,0 C 8,1 C 1,6 km/h (1 Bft) 100,00 %
15.11.2015 10:59 8,1 C 93 % 1014,8 hPa 0,0 l/m 0,7 km/h (0 Bft) N 11 0 min 0,000 mm 0,6 UV-I 143 W/m 7,0 C 8,1 C 1,6 km/h (1 Bft) 96,15 %
15.11.2015 11:00 8,1 C 92 % 1014,8 hPa 0,0 l/m 1,3 km/h (1 Bft) N 11 0 min 0,000 mm 0,6 UV-I 147 W/m 6,9 C 8,1 C 1,6 km/h (1 Bft) 100,00 %
15.11.2015 11:01 8,2 C 93 % 1014,7 hPa 0,0 l/m 1,1 km/h (1 Bft) N 11 0 min 0,025 mm 0,6 UV-I 147 W/m 7,1 C 8,2 C 3,2 km/h (1 Bft) 100,00 %
15.11.2015 11:02 8,2 C 93 % 1014,7 hPa 0,0 l/m 1,4 km/h (1 Bft) N 11 0 min 0,000 mm 0,6 UV-I 140 W/m 7,1 C 8,2 C 1,6 km/h (1 Bft) 100,00 %
15.11.2015 11:03 8,2 C 92 % 1014,7 hPa 0,0 l/m 1,0 km/h (0 Bft) N-NO 12 0 min 0,000 mm 0,5 UV-I 134 W/m 7,0 C 8,2 C 3,2 km/h (1 Bft) 100,00 %
15.11.2015 11:04 8,2 C 92 % 1014,7 hPa 0,0 l/m 0,8 km/h (0 Bft) N-NO 12 0 min 0,000 mm 0,5 UV-I 134 W/m 7,0 C 8,2 C 1,6 km/h (1 Bft) 100,00 %
15.11.2015 11:05 8,3 C 93 % 1014,7 hPa 0,0 l/m 1,4 km/h (1 Bft) N 5 0 min 0,000 mm 0,6 UV-I 144 W/m 7,2 C 8,3 C 3,2 km/h (1 Bft) 96,15 %
15.11.2015 11:06 8,3 C 91 % 1014,7 hPa 0,0 l/m 0,9 km/h (0 Bft) N 5 0 min 0,000 mm 0,6 UV-I 143 W/m 6,9 C 8,3 C 1,6 km/h (1 Bft) 95,83 %
15.11.2015 11:07 8,3 C 92 % 1014,7 hPa 0,0 l/m 0,5 km/h (0 Bft) N 355 0 min 0,000 mm 0,6 UV-I 144 W/m 7,1 C 8,3 C 1,6 km/h (1 Bft) 100,00 %
15.11.2015 11:08 8,3 C 92 % 1014,7 hPa 0,0 l/m 1,7 km/h (1 Bft) N 10 0 min 0,000 mm 0,5 UV-I 143 W/m 7,1 C 8,3 C 3,2 km/h (1 Bft) 100,00 %
15.11.2015 11:09 8,4 C 93 % 1014,7 hPa 0,0 l/m 2,3 km/h (1 Bft) N 5 0 min 0,000 mm 0,6 UV-I 147 W/m 7,3 C 8,4 C 3,2 km/h (1 Bft) 100,00 %
15.11.2015 11:10 8,4 C 94 % 1014,7 hPa 0,0 l/m 2,0 km/h (1 Bft) N-NO 19 0 min 0,000 mm 0,6 UV-I 148 W/m 7,5 C 8,4 C 4,8 km/h (1 Bft) 100,00 %
15.11.2015 11:11 8,4 C 94 % 1014,7 hPa 0,0 l/m 2,7 km/h (1 Bft) N 355 0 min 0,000 mm 0,6 UV-I 146 W/m 7,5 C 8,4 C 3,2 km/h (1 Bft) 100,00 %
15.11.2015 11:12 8,5 C 92 % 1014,7 hPa 0,0 l/m 2,3 km/h (1 Bft) N 355 0 min 0,000 mm 0,6 UV-I 147 W/m 7,3 C 8,5 C 3,2 km/h (1 Bft) 100,00 %
15.11.2015 11:13 8,5 C 93 % 1014,7 hPa 0,0 l/m 2,6 km/h (1 Bft) N-NO 32 0 min 0,000 mm 0,6 UV-I 147 W/m 7,4 C 8,5 C 3,2 km/h (1 Bft) 100,00 %
15.11.2015 11:14 8,5 C 92 % 1014,8 hPa 0,0 l/m 3,3 km/h (1 Bft) N 355 0 min 0,000 mm 0,6 UV-I 140 W/m 7,3 C 8,5 C 4,8 km/h (1 Bft) 100,00 %
15.11.2015 11:15 8,5 C 92 % 1014,8 hPa 0,0 l/m 3,1 km/h (1 Bft) N 9 0 min 0,000 mm 0,6 UV-I 130 W/m 7,3 C 8,5 C 4,8 km/h (1 Bft) 91,67 %
15.11.2015 11:16 8,6 C 92 % 1014,8 hPa 0,0 l/m 1,8 km/h (1 Bft) N 355 0 min 0,000 mm 0,5 UV-I 121 W/m 7,4 C 8,6 C 3,2 km/h (1 Bft) 100,00 %
15.11.2015 11:17 8,6 C 92 % 1014,8 hPa 0,0 l/m 1,9 km/h (1 Bft) N 360 0 min 0,000 mm 0,5 UV-I 114 W/m 7,4 C 8,6 C 3,2 km/h (1 Bft) 100,00 %
15.11.2015 11:18 8,6 C 92 % 1014,8 hPa 0,0 l/m 3,5 km/h (1 Bft) NW 326 0 min 0,000 mm 0,5 UV-I 118 W/m 7,4 C 8,6 C 6,4 km/h (2 Bft) 96,15 %
15.11.2015 11:19 8,6 C 91 % 1014,8 hPa 0,0 l/m 3,6 km/h (1 Bft) N 5 0 min 0,000 mm 0,5 UV-I 125 W/m 7,2 C 8,6 C 6,4 km/h (2 Bft) 95,83 %
15.11.2015 11:20 8,6 C 92 % 1014,8 hPa 0,0 l/m 2,7 km/h (1 Bft) N 5 0 min 0,000 mm 0,5 UV-I 126 W/m 7,4 C 8,6 C 4,8 km/h (1 Bft) 90,91 %
15.11.2015 11:21 8,6 C 91 % 1014,9 hPa 0,0 l/m 1,5 km/h (1 Bft) N 11 0 min 0,000 mm 0,6 UV-I 129 W/m 7,2 C 8,6 C 3,2 km/h (1 Bft) 100,00 %
15.11.2015 11:22 8,6 C 92 % 1014,8 hPa 0,0 l/m 1,6 km/h (1 Bft) W-NW 302 0 min 0,000 mm 0,6 UV-I 141 W/m 7,4 C 8,6 C 3,2 km/h (1 Bft) 100,00 %
15.11.2015 11:23 8,6 C 92 % 1014,9 hPa 0,0 l/m 2,7 km/h (1 Bft) N-NO 18 0 min 0,000 mm 0,7 UV-I 148 W/m 7,4 C 8,6 C 4,8 km/h (1 Bft) 100,00 %
15.11.2015 11:24 8,6 C 91 % 1014,8 hPa 0,0 l/m 3,9 km/h (1 Bft) NW 316 0 min 0,000 mm 0,7 UV-I 157 W/m 7,2 C 8,6 C 9,7 km/h (2 Bft) 100,00 %
15.11.2015 11:25 8,6 C 91 % 1014,8 hPa 0,0 l/m 3,8 km/h (1 Bft) NW 325 0 min 0,000 mm 0,7 UV-I 161 W/m 7,2 C 8,6 C 6,4 km/h (2 Bft) 100,00 %
15.11.2015 11:26 8,6 C 92 % 1014,8 hPa 0,0 l/m 3,7 km/h (1 Bft) N 5 0 min 0,000 mm 0,8 UV-I 164 W/m 7,4 C 8,6 C 6,4 km/h (2 Bft) 100,00 %
15.11.2015 11:27 8,6 C 92 % 1014,8 hPa 0,0 l/m 3,8 km/h (1 Bft) N-NW 336 0 min 0,000 mm 0,8 UV-I 163 W/m 7,4 C 8,6 C 6,4 km/h (2 Bft) 100,00 %
15.11.2015 11:28 8,7 C 91 % 1014,8 hPa 0,0 l/m 4,7 km/h (1 Bft) N 5 0 min 0,000 mm 0,8 UV-I 165 W/m 7,3 C 8,7 C 8,0 km/h (2 Bft) 100,00 %
15.11.2015 11:29 8,7 C 92 % 1014,9 hPa 0,0 l/m 7,1 km/h (2 Bft) N-NW 345 0 min 0,000 mm 0,8 UV-I 166 W/m 7,5 C 8,2 C 14,5 km/h (3 Bft) 100,00 %
15.11.2015 11:30 8,7 C 92 % 1015,0 hPa 0,0 l/m 6,4 km/h (2 Bft) NW 319 0 min 0,000 mm 0,7 UV-I 166 W/m 7,5 C 8,7 C 12,9 km/h (3 Bft) 100,00 %
15.11.2015 11:31 8,7 C 92 % 1015,1 hPa 0,0 l/m 4,8 km/h (1 Bft) N-NW 348 0 min 0,000 mm 0,7 UV-I 158 W/m 7,5 C 8,7 C 8,0 km/h (2 Bft) 100,00 %
15.11.2015 11:32 8,7 C 92 % 1015,0 hPa 0,0 l/m 4,9 km/h (1 Bft) N-NW 340 0 min 0,000 mm 0,6 UV-I 144 W/m 7,5 C 8,7 C 8,0 km/h (2 Bft) 91,67 %
15.11.2015 11:33 8,7 C 92 % 1014,9 hPa 0,0 l/m 2,3 km/h (1 Bft) N 355 0 min 0,000 mm 0,6 UV-I 135 W/m 7,5 C 8,7 C 3,2 km/h (1 Bft) 96,15 %
15.11.2015 11:34 8,7 C 92 % 1014,9 hPa 0,0 l/m 2,7 km/h (1 Bft) N 9 0 min 0,000 mm 0,6 UV-I 140 W/m 7,5 C 8,7 C 4,8 km/h (1 Bft) 100,00 %
15.11.2015 11:35 8,7 C 91 % 1014,9 hPa 0,0 l/m 4,2 km/h (1 Bft) N-NW 345 0 min 0,000 mm 0,7 UV-I 150 W/m 7,3 C 8,7 C 6,4 km/h (2 Bft) 100,00 %
15.11.2015 11:36 8,7 C 91 % 1014,9 hPa 0,0 l/m 3,8 km/h (1 Bft) W-NW 286 0 min 0,000 mm 0,7 UV-I 156 W/m 7,3 C 8,7 C 4,8 km/h (1 Bft) 100,00 %
15.11.2015 11:37 8,7 C 91 % 1014,9 hPa 0,0 l/m 2,5 km/h (1 Bft) N 11 0 min 0,000 mm 0,6 UV-I 150 W/m 7,3 C 8,7 C 3,2 km/h (1 Bft) 100,00 %
15.11.2015 11:38 8,7 C 91 % 1014,9 hPa 0,0 l/m 2,9 km/h (1 Bft) N-NW 346 0 min 0,000 mm 0,6 UV-I 141 W/m 7,3 C 8,7 C 4,8 km/h (1 Bft) 100,00 %
15.11.2015 11:39 8,7 C 91 % 1014,9 hPa 0,0 l/m 2,5 km/h (1 Bft) N 355 0 min 0,000 mm 0,6 UV-I 133 W/m 7,3 C 8,7 C 3,2 km/h (1 Bft) 100,00 %
15.11.2015 11:40 8,7 C 92 % 1014,9 hPa 0,0 l/m 1,5 km/h (1 Bft) N-NW 336 0 min 0,000 mm 0,6 UV-I 136 W/m 7,5 C 8,7 C 3,2 km/h (1 Bft) 100,00 %
15.11.2015 11:41 8,8 C 91 % 1015,0 hPa 0,0 l/m 2,8 km/h (1 Bft) N 5 0 min 0,000 mm 0,6 UV-I 142 W/m 7,4 C 8,8 C 3,2 km/h (1 Bft) 100,00 %
15.11.2015 11:42 8,8 C 90 % 1014,9 hPa 0,0 l/m 1,6 km/h (1 Bft) N 5 0 min 0,000 mm 0,6 UV-I 142 W/m 7,3 C 8,8 C 3,2 km/h (1 Bft) 100,00 %
15.11.2015 11:43 8,8 C 91 % 1014,9 hPa 0,0 l/m 1,3 km/h (1 Bft) N 5 0 min 0,000 mm 0,6 UV-I 146 W/m 7,4 C 8,8 C 1,6 km/h (1 Bft) 100,00 %
15.11.2015 11:44 8,8 C 90 % 1014,9 hPa 0,0 l/m 1,7 km/h (1 Bft) N 355 0 min 0,000 mm 0,6 UV-I 149 W/m 7,3 C 8,8 C 3,2 km/h (1 Bft) 100,00 %
15.11.2015 11:45 8,8 C 89 % 1014,8 hPa 0,0 l/m 2,1 km/h (1 Bft) N-NW 345 0 min 0,000 mm 0,5 UV-I 138 W/m 7,1 C 8,8 C 4,8 km/h (1 Bft) 100,00 %
15.11.2015 11:46 8,8 C 89 % 1014,8 hPa 0,0 l/m 2,4 km/h (1 Bft) W 275 0 min 0,000 mm 0,5 UV-I 133 W/m 7,1 C 8,8 C 4,8 km/h (1 Bft) 100,00 %
15.11.2015 11:47 8,8 C 89 % 1014,8 hPa 0,0 l/m 5,1 km/h (1 Bft) N-NO 15 0 min 0,000 mm 0,6 UV-I 141 W/m 7,1 C 8,8 C 6,4 km/h (2 Bft) 100,00 %
15.11.2015 11:48 8,8 C 88 % 1014,7 hPa 0,0 l/m 3,0 km/h (1 Bft) NW 315 0 min 0,000 mm 0,6 UV-I 144 W/m 6,9 C 8,8 C 4,8 km/h (1 Bft) 95,83 %
15.11.2015 11:49 8,8 C 88 % 1014,8 hPa 0,0 l/m 2,4 km/h (1 Bft) NW 304 0 min 0,000 mm 0,6 UV-I 142 W/m 6,9 C 8,8 C 4,8 km/h (1 Bft) 100,00 %
15.11.2015 11:50 8,8 C 89 % 1014,8 hPa 0,0 l/m 2,7 km/h (1 Bft) N-NW 339 0 min 0,000 mm 0,6 UV-I 143 W/m 7,1 C 8,8 C 4,8 km/h (1 Bft) 100,00 %
15.11.2015 11:51 8,8 C 89 % 1014,8 hPa 0,0 l/m 2,7 km/h (1 Bft) W-NW 303 0 min 0,000 mm 0,6 UV-I 146 W/m 7,1 C 8,8 C 4,8 km/h (1 Bft) 100,00 %
15.11.2015 11:52 8,8 C 88 % 1014,8 hPa 0,0 l/m 4,1 km/h (1 Bft) W-SW 240 0 min 0,000 mm 0,6 UV-I 146 W/m 6,9 C 8,8 C 6,4 km/h (2 Bft) 100,00 %
15.11.2015 11:53 8,9 C 88 % 1014,8 hPa 0,0 l/m 3,5 km/h (1 Bft) W 275 0 min 0,000 mm 0,6 UV-I 148 W/m 7,0 C 8,9 C 4,8 km/h (1 Bft) 100,00 %
15.11.2015 11:54 8,9 C 88 % 1014,8 hPa 0,0 l/m 6,1 km/h (2 Bft) W 279 0 min 0,000 mm 0,6 UV-I 144 W/m 7,0 C 8,9 C 11,3 km/h (2 Bft) 96,15 %
15.11.2015 11:55 8,9 C 86 % 1014,8 hPa 0,0 l/m 3,0 km/h (1 Bft) W-NW 301 0 min 0,000 mm 0,6 UV-I 137 W/m 6,7 C 8,9 C 4,8 km/h (1 Bft) 100,00 %
15.11.2015 11:56 9,0 C 87 % 1014,8 hPa 0,0 l/m 4,2 km/h (1 Bft) NW 323 0 min 0,000 mm 0,5 UV-I 130 W/m 7,0 C 9,0 C 6,4 km/h (2 Bft) 100,00 %
15.11.2015 11:57 9,0 C 87 % 1014,8 hPa 0,0 l/m 4,2 km/h (1 Bft) W 265 0 min 0,000 mm 0,5 UV-I 127 W/m 7,0 C 9,0 C 6,4 km/h (2 Bft) 100,00 %
15.11.2015 11:58 9,0 C 88 % 1014,8 hPa 0,0 l/m 2,7 km/h (1 Bft) NW 304 0 min 0,000 mm 0,5 UV-I 134 W/m 7,1 C 9,0 C 4,8 km/h (1 Bft) 100,00 %
15.11.2015 11:59 9,0 C 88 % 1014,7 hPa 0,0 l/m 3,6 km/h (1 Bft) W 259 0 min 0,000 mm 0,6 UV-I 148 W/m 7,1 C 9,0 C 6,4 km/h (2 Bft) 100,00 %
15.11.2015 12:00 9,0 C 88 % 1014,7 hPa 0,0 l/m 3,8 km/h (1 Bft) W-NW 294 0 min 0,077 mm 0,6 UV-I 164 W/m 7,1 C 9,0 C 6,4 km/h (2 Bft) 100,00 %
15.11.2015 12:01 9,0 C 88 % 1014,7 hPa 0,0 l/m 2,9 km/h (1 Bft) W 279 0 min 0,000 mm 0,7 UV-I 170 W/m 7,1 C 9,0 C 4,8 km/h (1 Bft) 100,00 %
15.11.2015 12:02 9,0 C 89 % 1014,7 hPa 0,0 l/m 2,3 km/h (1 Bft) W 273 0 min 0,000 mm 0,7 UV-I 174 W/m 7,3 C 9,0 C 3,2 km/h (1 Bft) 96,15 %
15.11.2015 12:03 9,0 C 90 % 1014,6 hPa 0,0 l/m 2,5 km/h (1 Bft) W 267 0 min 0,000 mm 0,7 UV-I 174 W/m 7,4 C 9,0 C 3,2 km/h (1 Bft) 100,00 %
15.11.2015 12:04 9,0 C 90 % 1014,6 hPa 0,0 l/m 4,5 km/h (1 Bft) W 261 0 min 0,000 mm 0,7 UV-I 175 W/m 7,4 C 9,0 C 6,4 km/h (2 Bft) 100,00 %
15.11.2015 12:05 9,0 C 90 % 1014,6 hPa 0,0 l/m 2,9 km/h (1 Bft) W-SW 248 0 min 0,000 mm 0,7 UV-I 173 W/m 7,4 C 9,0 C 4,8 km/h (1 Bft) 100,00 %
15.11.2015 12:06 9,1 C 89 % 1014,5 hPa 0,0 l/m 4,3 km/h (1 Bft) W-NW 287 0 min 0,000 mm 0,7 UV-I 170 W/m 7,4 C 9,1 C 6,4 km/h (2 Bft) 100,00 %
15.11.2015 12:07 9,1 C 88 % 1014,5 hPa 0,0 l/m 3,5 km/h (1 Bft) W 277 0 min 0,000 mm 0,7 UV-I 165 W/m 7,2 C 9,1 C 6,4 km/h (2 Bft) 100,00 %
15.11.2015 12:08 9,2 C 88 % 1014,5 hPa 0,0 l/m 4,1 km/h (1 Bft) W-NW 284 0 min 0,000 mm 0,6 UV-I 160 W/m 7,3 C 9,2 C 9,7 km/h (2 Bft) 100,00 %
15.11.2015 12:09 9,2 C 89 % 1014,5 hPa 0,0 l/m 3,5 km/h (1 Bft) W-NW 301 0 min 0,000 mm 0,7 UV-I 165 W/m 7,5 C 9,2 C 4,8 km/h (1 Bft) 100,00 %
15.11.2015 12:10 9,2 C 88 % 1014,5 hPa 0,0 l/m 7,6 km/h (2 Bft) W 267 0 min 0,000 mm 0,7 UV-I 170 W/m 7,3 C 8,3 C 12,9 km/h (3 Bft) 100,00 %
15.11.2015 12:11 9,2 C 87 % 1014,5 hPa 0,0 l/m 5,2 km/h (1 Bft) W-NW 302 0 min 0,000 mm 0,7 UV-I 176 W/m 7,2 C 9,2 C 8,0 km/h (2 Bft) 100,00 %
15.11.2015 12:12 9,2 C 88 % 1014,4 hPa 0,0 l/m 3,9 km/h (1 Bft) W 264 0 min 0,000 mm 0,7 UV-I 182 W/m 7,3 C 9,2 C 4,8 km/h (1 Bft) 100,00 %
15.11.2015 12:13 9,2 C 88 % 1014,4 hPa 0,0 l/m 6,4 km/h (2 Bft) W 274 0 min 0,000 mm 0,7 UV-I 194 W/m 7,3 C 9,2 C 12,9 km/h (3 Bft) 100,00 %
15.11.2015 12:14 9,3 C 89 % 1014,4 hPa 0,0 l/m 5,2 km/h (1 Bft) W 267 0 min 0,000 mm 0,7 UV-I 204 W/m 7,6 C 9,3 C 9,7 km/h (2 Bft) 86,67 %
15.11.2015 12:15 9,3 C 88 % 1014,5 hPa 0,0 l/m 6,1 km/h (2 Bft) W 268 0 min 0,000 mm 0,7 UV-I 196 W/m 7,4 C 9,3 C 9,7 km/h (2 Bft) 100,00 %
15.11.2015 12:16 9,4 C 87 % 1014,5 hPa 0,0 l/m 6,8 km/h (2 Bft) W 268 0 min 0,000 mm 0,7 UV-I 192 W/m 7,3 C 9,1 C 9,7 km/h (2 Bft) 100,00 %
15.11.2015 12:17 9,4 C 87 % 1014,5 hPa 0,0 l/m 3,2 km/h (1 Bft) W-NW 284 0 min 0,000 mm 0,7 UV-I 196 W/m 7,3 C 9,4 C 6,4 km/h (2 Bft) 100,00 %
15.11.2015 12:18 9,4 C 89 % 1014,5 hPa 0,0 l/m 2,7 km/h (1 Bft) W 269 0 min 0,000 mm 0,7 UV-I 179 W/m 7,7 C 9,4 C 6,4 km/h (2 Bft) 100,00 %
15.11.2015 12:19 9,4 C 89 % 1014,5 hPa 0,0 l/m 2,8 km/h (1 Bft) W 269 0 min 0,000 mm 0,6 UV-I 162 W/m 7,7 C 9,4 C 9,7 km/h (2 Bft) 100,00 %
15.11.2015 12:20 9,4 C 89 % 1014,5 hPa 0,0 l/m 2,5 km/h (1 Bft) NW 304 0 min 0,000 mm 0,6 UV-I 148 W/m 7,7 C 9,4 C 4,8 km/h (1 Bft) 100,00 %
15.11.2015 12:21 9,4 C 89 % 1014,4 hPa 0,0 l/m 2,0 km/h (1 Bft) W 277 0 min 0,000 mm 0,6 UV-I 142 W/m 7,7 C 9,4 C 3,2 km/h (1 Bft) 100,00 %
15.11.2015 12:22 9,5 C 89 % 1014,4 hPa 0,0 l/m 2,6 km/h (1 Bft) W 269 0 min 0,000 mm 0,6 UV-I 142 W/m 7,8 C 9,5 C 4,8 km/h (1 Bft) 100,00 %
15.11.2015 12:23 9,5 C 89 % 1014,3 hPa 0,0 l/m 2,6 km/h (1 Bft) NW 308 0 min 0,000 mm 0,6 UV-I 142 W/m 7,8 C 9,5 C 4,8 km/h (1 Bft) 100,00 %
15.11.2015 12:24 9,5 C 89 % 1014,3 hPa 0,0 l/m 3,9 km/h (1 Bft) W 278 0 min 0,000 mm 0,6 UV-I 142 W/m 7,8 C 9,5 C 4,8 km/h (1 Bft) 100,00 %
15.11.2015 12:25 9,5 C 89 % 1014,2 hPa 0,0 l/m 1,9 km/h (1 Bft) W 278 0 min 0,000 mm 0,6 UV-I 143 W/m 7,8 C 9,5 C 3,2 km/h (1 Bft) 100,00 %
15.11.2015 12:26 9,5 C 89 % 1014,2 hPa 0,0 l/m 3,1 km/h (1 Bft) W 279 0 min 0,000 mm 0,6 UV-I 149 W/m 7,8 C 9,5 C 4,8 km/h (1 Bft) 100,00 %
15.11.2015 12:27 9,5 C 89 % 1014,1 hPa 0,0 l/m 5,2 km/h (1 Bft) W-NW 301 0 min 0,000 mm 0,6 UV-I 156 W/m 7,8 C 9,5 C 8,0 km/h (2 Bft) 95,65 %
15.11.2015 12:28 9,5 C 89 % 1014,1 hPa 0,0 l/m 3,0 km/h (1 Bft) N-NO 23 0 min 0,000 mm 0,7 UV-I 164 W/m 7,8 C 9,5 C 4,8 km/h (1 Bft) 100,00 %
15.11.2015 12:29 9,6 C 89 % 1014,1 hPa 0,0 l/m 3,2 km/h (1 Bft) W 275 0 min 0,000 mm 0,7 UV-I 172 W/m 7,9 C 9,6 C 6,4 km/h (2 Bft) 100,00 %
15.11.2015 12:30 9,6 C 89 % 1014,1 hPa 0,0 l/m 5,4 km/h (1 Bft) W 271 0 min 0,000 mm 0,7 UV-I 175 W/m 7,9 C 9,6 C 9,7 km/h (2 Bft) 100,00 %
15.11.2015 12:31 9,6 C 89 % 1014,1 hPa 0,0 l/m 5,1 km/h (1 Bft) W 280 0 min 0,000 mm 0,8 UV-I 184 W/m 7,9 C 9,6 C 9,7 km/h (2 Bft) 100,00 %
15.11.2015 12:32 9,6 C 88 % 1014,1 hPa 0,0 l/m 5,1 km/h (1 Bft) W-NW 292 0 min 0,000 mm 0,8 UV-I 192 W/m 7,7 C 9,6 C 9,7 km/h (2 Bft) 100,00 %
15.11.2015 12:33 9,6 C 88 % 1014,0 hPa 0,0 l/m 3,9 km/h (1 Bft) W 272 0 min 0,000 mm 0,8 UV-I 195 W/m 7,7 C 9,6 C 6,4 km/h (2 Bft) 95,83 %
15.11.2015 12:34 9,7 C 87 % 1014,0 hPa 0,0 l/m 4,7 km/h (1 Bft) W 278 0 min 0,000 mm 0,7 UV-I 191 W/m 7,6 C 9,7 C 6,4 km/h (2 Bft) 96,55 %
15.11.2015 12:35 9,7 C 88 % 1014,0 hPa 0,0 l/m 2,1 km/h (1 Bft) W 261 0 min 0,000 mm 0,7 UV-I 189 W/m 7,8 C 9,7 C 4,8 km/h (1 Bft) 100,00 %
15.11.2015 12:36 9,7 C 87 % 1014,0 hPa 0,0 l/m 5,0 km/h (1 Bft) W-NW 303 0 min 0,000 mm 0,7 UV-I 188 W/m 7,6 C 9,7 C 8,0 km/h (2 Bft) 97,37 %
15.11.2015 12:37 9,8 C 86 % 1014,0 hPa 0,0 l/m 6,7 km/h (2 Bft) W 267 0 min 0,000 mm 0,7 UV-I 186 W/m 7,6 C 9,6 C 12,9 km/h (3 Bft) 100,00 %
15.11.2015 12:38 9,8 C 87 % 1013,9 hPa 0,0 l/m 5,6 km/h (1 Bft) W-SW 246 0 min 0,000 mm 0,7 UV-I 186 W/m 7,7 C 9,8 C 9,7 km/h (2 Bft) 100,00 %
15.11.2015 12:39 9,8 C 86 % 1013,9 hPa 0,0 l/m 4,0 km/h (1 Bft) W 280 0 min 0,000 mm 0,7 UV-I 185 W/m 7,6 C 9,8 C 6,4 km/h (2 Bft) 100,00 %
15.11.2015 12:40 9,8 C 87 % 1013,9 hPa 0,0 l/m 5,1 km/h (1 Bft) W-SW 254 0 min 0,000 mm 0,7 UV-I 183 W/m 7,7 C 9,8 C 6,4 km/h (2 Bft) 100,00 %
15.11.2015 12:41 9,8 C 86 % 1013,9 hPa 0,0 l/m 7,0 km/h (2 Bft) W 271 0 min 0,000 mm 0,7 UV-I 182 W/m 7,6 C 9,4 C 11,3 km/h (2 Bft) 100,00 %
15.11.2015 12:42 9,8 C 85 % 1013,8 hPa 0,0 l/m 10,0 km/h (2 Bft) W-NW 302 0 min 0,000 mm 0,7 UV-I 179 W/m 7,4 C 7,4 C 14,5 km/h (3 Bft) 100,00 %
15.11.2015 12:43 9,9 C 85 % 1013,7 hPa 0,0 l/m 5,6 km/h (1 Bft) W 266 0 min 0,000 mm 0,7 UV-I 175 W/m 7,5 C 9,9 C 9,7 km/h (2 Bft) 100,00 %
15.11.2015 12:44 9,9 C 85 % 1013,7 hPa 0,0 l/m 7,4 km/h (2 Bft) S-SW 198 0 min 0,000 mm 0,7 UV-I 169 W/m 7,5 C 9,2 C 14,5 km/h (3 Bft) 100,00 %
15.11.2015 12:45 10,0 C 84 % 1013,7 hPa 0,0 l/m 6,9 km/h (2 Bft) W 277 0 min 0,000 mm 0,7 UV-I 166 W/m 7,4 C 9,6 C 11,3 km/h (2 Bft) 95,83 %
15.11.2015 12:46 10,0 C 84 % 1013,7 hPa 0,0 l/m 8,9 km/h (2 Bft) W 278 0 min 0,000 mm 0,7 UV-I 157 W/m 7,4 C 8,3 C 11,3 km/h (2 Bft) 100,00 %
15.11.2015 12:47 10,1 C 84 % 1013,7 hPa 0,0 l/m 6,9 km/h (2 Bft) W-NW 284 0 min 0,000 mm 0,6 UV-I 155 W/m 7,5 C 9,7 C 11,3 km/h (2 Bft) 100,00 %
15.11.2015 12:48 10,1 C 86 % 1013,7 hPa 0,0 l/m 4,4 km/h (1 Bft) SW 222 0 min 0,000 mm 0,6 UV-I 150 W/m 7,9 C 10,1 C 9,7 km/h (2 Bft) 100,00 %
15.11.2015 12:49 10,1 C 83 % 1013,7 hPa 0,0 l/m 8,5 km/h (2 Bft) W 277 0 min 0,000 mm 0,6 UV-I 141 W/m 7,3 C 8,6 C 14,5 km/h (3 Bft) 100,00 %
15.11.2015 12:50 10,2 C 84 % 1013,7 hPa 0,0 l/m 6,0 km/h (2 Bft) W-NW 302 0 min 0,000 mm 0,5 UV-I 130 W/m 7,6 C 10,2 C 11,3 km/h (2 Bft) 100,00 %
15.11.2015 12:51 10,2 C 83 % 1013,7 hPa 0,0 l/m 7,5 km/h (2 Bft) W-SW 258 0 min 0,000 mm 0,5 UV-I 122 W/m 7,4 C 9,4 C 12,9 km/h (3 Bft) 100,00 %
15.11.2015 12:52 10,2 C 83 % 1013,7 hPa 0,0 l/m 6,6 km/h (2 Bft) W-NW 282 0 min 0,000 mm 0,5 UV-I 119 W/m 7,4 C 10,1 C 9,7 km/h (2 Bft) 100,00 %
15.11.2015 12:53 10,2 C 84 % 1013,7 hPa 0,0 l/m 7,6 km/h (2 Bft) W-NW 292 0 min 0,000 mm 0,5 UV-I 115 W/m 7,6 C 9,3 C 11,3 km/h (2 Bft) 100,00 %
15.11.2015 12:54 10,2 C 83 % 1013,7 hPa 0,0 l/m 6,6 km/h (2 Bft) W 266 0 min 0,000 mm 0,3 UV-I 108 W/m 7,4 C 10,1 C 12,9 km/h (3 Bft) 100,00 %
15.11.2015 12:55 10,2 C 84 % 1013,6 hPa 0,0 l/m 6,1 km/h (2 Bft) W 264 0 min 0,000 mm 0,0 UV-I 100 W/m 7,6 C 10,2 C 12,9 km/h (3 Bft) 100,00 %
15.11.2015 12:56 10,2 C 83 % 1013,6 hPa 0,0 l/m 10,0 km/h (2 Bft) W-NW 296 0 min 0,000 mm 0,0 UV-I 98 W/m 7,4 C 7,8 C 14,5 km/h (3 Bft) 100,00 %
15.11.2015 12:57 10,2 C 83 % 1013,6 hPa 0,0 l/m 6,2 km/h (2 Bft) W-NW 285 0 min 0,000 mm 0,0 UV-I 97 W/m 7,4 C 10,2 C 9,7 km/h (2 Bft) 100,00 %
15.11.2015 12:58 10,2 C 82 % 1013,6 hPa 0,0 l/m 6,7 km/h (2 Bft) W 274 0 min 0,000 mm 0,0 UV-I 99 W/m 7,3 C 10,0 C 9,7 km/h (2 Bft) 100,00 %
15.11.2015 12:59 10,2 C 82 % 1013,6 hPa 0,0 l/m 6,7 km/h (2 Bft) W 280 0 min 0,000 mm 0,0 UV-I 101 W/m 7,3 C 10,0 C 11,3 km/h (2 Bft) 100,00 %
15.11.2015 13:00 10,3 C 82 % 1013,6 hPa 0,0 l/m 7,2 km/h (2 Bft) W 277 0 min 0,076 mm 0,2 UV-I 103 W/m 7,4 C 9,7 C 12,9 km/h (3 Bft) 100,00 %
15.11.2015 13:01 10,3 C 82 % 1013,6 hPa 0,0 l/m 4,7 km/h (1 Bft) W 279 0 min 0,000 mm 0,5 UV-I 107 W/m 7,4 C 10,3 C 9,7 km/h (2 Bft) 100,00 %
15.11.2015 13:02 10,3 C 82 % 1013,7 hPa 0,0 l/m 6,1 km/h (2 Bft) W 268 0 min 0,000 mm 0,5 UV-I 114 W/m 7,4 C 10,3 C 9,7 km/h (2 Bft) 100,00 %
15.11.2015 13:03 10,3 C 82 % 1013,7 hPa 0,0 l/m 6,6 km/h (2 Bft) N-NW 334 0 min 0,000 mm 0,5 UV-I 120 W/m 7,4 C 10,2 C 11,3 km/h (2 Bft) 100,00 %
15.11.2015 13:04 10,3 C 81 % 1013,7 hPa 0,0 l/m 5,9 km/h (2 Bft) W-SW 246 0 min 0,000 mm 0,5 UV-I 128 W/m 7,2 C 10,3 C 9,7 km/h (2 Bft) 95,83 %
15.11.2015 13:05 10,3 C 81 % 1013,7 hPa 0,0 l/m 3,9 km/h (1 Bft) SW 232 0 min 0,000 mm 0,6 UV-I 135 W/m 7,2 C 10,3 C 6,4 km/h (2 Bft) 96,15 %
15.11.2015 13:06 10,3 C 82 % 1013,7 hPa 0,0 l/m 4,4 km/h (1 Bft) W-NW 282 0 min 0,000 mm 0,6 UV-I 141 W/m 7,4 C 10,3 C 11,3 km/h (2 Bft) 100,00 %
15.11.2015 13:07 10,3 C 81 % 1013,7 hPa 0,0 l/m 5,7 km/h (1 Bft) W-NW 283 0 min 0,000 mm 0,6 UV-I 147 W/m 7,2 C 10,3 C 6,4 km/h (2 Bft) 100,00 %
15.11.2015 13:08 10,3 C 82 % 1013,7 hPa 0,0 l/m 5,6 km/h (1 Bft) W 259 0 min 0,000 mm 0,6 UV-I 156 W/m 7,4 C 10,3 C 9,7 km/h (2 Bft) 100,00 %
15.11.2015 13:09 10,4 C 81 % 1013,7 hPa 0,0 l/m 5,5 km/h (1 Bft) SW 224 0 min 0,000 mm 0,6 UV-I 162 W/m 7,3 C 10,4 C 11,3 km/h (2 Bft) 100,00 %
15.11.2015 13:10 10,4 C 81 % 1013,7 hPa 0,0 l/m 5,4 km/h (1 Bft) W 280 0 min 0,000 mm 0,7 UV-I 167 W/m 7,3 C 10,4 C 8,0 km/h (2 Bft) 100,00 %
15.11.2015 13:11 10,4 C 80 % 1013,7 hPa 0,0 l/m 5,5 km/h (1 Bft) W-SW 256 0 min 0,000 mm 0,7 UV-I 170 W/m 7,1 C 10,4 C 11,3 km/h (2 Bft) 100,00 %
15.11.2015 13:12 10,4 C 81 % 1013,7 hPa 0,0 l/m 5,2 km/h (1 Bft) N 350 0 min 0,000 mm 0,7 UV-I 173 W/m 7,3 C 10,4 C 9,7 km/h (2 Bft) 100,00 %
15.11.2015 13:13 10,4 C 80 % 1013,6 hPa 0,0 l/m 4,8 km/h (1 Bft) W 265 0 min 0,000 mm 0,7 UV-I 177 W/m 7,1 C 10,4 C 9,7 km/h (2 Bft) 100,00 %
15.11.2015 13:14 10,5 C 79 % 1013,6 hPa 0,0 l/m 7,5 km/h (2 Bft) W 273 0 min 0,000 mm 0,7 UV-I 167 W/m 7,0 C 9,7 C 16,1 km/h (3 Bft) 100,00 %
15.11.2015 13:15 10,5 C 80 % 1013,7 hPa 0,0 l/m 4,9 km/h (1 Bft) W 266 0 min 0,000 mm 0,7 UV-I 164 W/m 7,2 C 10,5 C 6,4 km/h (2 Bft) 100,00 %
15.11.2015 13:16 10,5 C 80 % 1013,7 hPa 0,0 l/m 3,8 km/h (1 Bft) W-NW 283 0 min 0,000 mm 0,7 UV-I 162 W/m 7,2 C 10,5 C 4,8 km/h (1 Bft) 96,55 %
15.11.2015 13:17 10,5 C 81 % 1013,7 hPa 0,0 l/m 4,0 km/h (1 Bft) W 262 0 min 0,000 mm 0,7 UV-I 166 W/m 7,4 C 10,5 C 6,4 km/h (2 Bft) 100,00 %
15.11.2015 13:18 10,5 C 81 % 1013,8 hPa 0,0 l/m 5,0 km/h (1 Bft) W-NW 283 0 min 0,000 mm 0,7 UV-I 179 W/m 7,4 C 10,5 C 9,7 km/h (2 Bft) 100,00 %
15.11.2015 13:19 10,6 C 81 % 1013,7 hPa 0,0 l/m 2,1 km/h (1 Bft) W-NW 286 0 min 0,000 mm 0,7 UV-I 185 W/m 7,5 C 10,6 C 3,2 km/h (1 Bft) 100,00 %
15.11.2015 13:20 10,6 C 81 % 1013,8 hPa 0,0 l/m 3,5 km/h (1 Bft) W 265 0 min 0,000 mm 0,7 UV-I 187 W/m 7,5 C 10,6 C 4,8 km/h (1 Bft) 100,00 %
15.11.2015 13:21 10,6 C 81 % 1013,8 hPa 0,0 l/m 5,3 km/h (1 Bft) W-NW 291 0 min 0,000 mm 0,7 UV-I 187 W/m 7,5 C 10,6 C 12,9 km/h (3 Bft) 100,00 %
15.11.2015 13:22 10,6 C 80 % 1013,7 hPa 0,0 l/m 2,8 km/h (1 Bft) W 267 0 min 0,000 mm 0,7 UV-I 192 W/m 7,3 C 10,6 C 4,8 km/h (1 Bft) 100,00 %
15.11.2015 13:23 10,6 C 81 % 1013,8 hPa 0,0 l/m 3,6 km/h (1 Bft) N-NW 327 1 min 0,000 mm 0,7 UV-I 206 W/m 7,5 C 10,6 C 6,4 km/h (2 Bft) 95,83 %
15.11.2015 13:24 10,7 C 81 % 1013,8 hPa 0,0 l/m 4,0 km/h (1 Bft) W-NW 283 1 min 0,000 mm 0,7 UV-I 215 W/m 7,6 C 10,7 C 9,7 km/h (2 Bft) 92,86 %
15.11.2015 13:25 10,7 C 80 % 1013,8 hPa 0,0 l/m 5,8 km/h (2 Bft) NW 314 1 min 0,000 mm 0,7 UV-I 218 W/m 7,4 C 10,7 C 9,7 km/h (2 Bft) 100,00 %
15.11.2015 13:26 10,8 C 80 % 1013,7 hPa 0,0 l/m 2,4 km/h (1 Bft) W 277 1 min 0,000 mm 0,7 UV-I 226 W/m 7,5 C 10,8 C 4,8 km/h (1 Bft) 100,00 %
15.11.2015 13:27 10,8 C 80 % 1013,7 hPa 0,0 l/m 3,8 km/h (1 Bft) W-NW 290 1 min 0,000 mm 0,7 UV-I 231 W/m 7,5 C 10,8 C 9,7 km/h (2 Bft) 100,00 %
15.11.2015 13:28 10,9 C 81 % 1013,7 hPa 0,0 l/m 3,1 km/h (1 Bft) N 11 1 min 0,000 mm 0,7 UV-I 236 W/m 7,8 C 10,9 C 11,3 km/h (2 Bft) 100,00 %
15.11.2015 13:29 10,9 C 80 % 1013,7 hPa 0,0 l/m 6,3 km/h (2 Bft) N 11 1 min 0,000 mm 0,7 UV-I 258 W/m 7,6 C 10,9 C 14,5 km/h (3 Bft) 100,00 %
15.11.2015 13:30 11,0 C 80 % 1013,7 hPa 0,0 l/m 2,8 km/h (1 Bft) NW 325 1 min 0,000 mm 0,7 UV-I 283 W/m 7,7 C 11,0 C 4,8 km/h (1 Bft) 100,00 %
15.11.2015 13:31 11,1 C 81 % 1013,7 hPa 0,0 l/m 4,9 km/h (1 Bft) W-NW 284 1 min 0,000 mm 0,7 UV-I 288 W/m 8,0 C 11,1 C 8,0 km/h (2 Bft) 100,00 %
15.11.2015 13:32 11,1 C 80 % 1013,7 hPa 0,0 l/m 2,3 km/h (1 Bft) W 275 1 min 0,000 mm 0,7 UV-I 262 W/m 7,8 C 11,1 C 4,8 km/h (1 Bft) 100,00 %
15.11.2015 13:33 11,2 C 80 % 1013,7 hPa 0,0 l/m 1,8 km/h (1 Bft) NO 42 1 min 0,000 mm 0,7 UV-I 335 W/m 7,9 C 11,2 C 9,7 km/h (2 Bft) 96,15 %
15.11.2015 13:34 11,3 C 80 % 1013,7 hPa 0,0 l/m 3,5 km/h (1 Bft) N-NW 339 1 min 0,000 mm 0,7 UV-I 319 W/m 8,0 C 11,3 C 8,0 km/h (2 Bft) 100,00 %
15.11.2015 13:35 11,4 C 79 % 1013,7 hPa 0,0 l/m 6,5 km/h (2 Bft) W-SW 251 1 min 0,000 mm 0,7 UV-I 271 W/m 7,9 C 11,4 C 11,3 km/h (2 Bft) 100,00 %
15.11.2015 13:36 11,4 C 79 % 1013,7 hPa 0,0 l/m 4,4 km/h (1 Bft) W 267 1 min 0,000 mm 0,7 UV-I 355 W/m 7,9 C 11,4 C 9,7 km/h (2 Bft) 100,00 %
15.11.2015 13:37 11,4 C 79 % 1013,7 hPa 0,0 l/m 5,3 km/h (1 Bft) W-NW 296 1 min 0,000 mm 0,7 UV-I 372 W/m 7,9 C 11,4 C 8,0 km/h (2 Bft) 96,15 %
15.11.2015 13:38 11,5 C 79 % 1013,7 hPa 0,0 l/m 8,4 km/h (2 Bft) SW 236 1 min 0,000 mm 0,7 UV-I 346 W/m 8,0 C 10,2 C 16,1 km/h (3 Bft) 100,00 %
15.11.2015 13:39 11,6 C 79 % 1013,8 hPa 0,0 l/m 5,3 km/h (1 Bft) NW 315 1 min 0,000 mm 0,7 UV-I 324 W/m 8,1 C 11,6 C 11,3 km/h (2 Bft) 100,00 %
15.11.2015 13:40 11,6 C 80 % 1013,8 hPa 0,0 l/m 3,6 km/h (1 Bft) NW 309 1 min 0,000 mm 0,7 UV-I 303 W/m 8,3 C 11,6 C 11,3 km/h (2 Bft) 100,00 %
15.11.2015 13:41 11,6 C 79 % 1013,8 hPa 0,0 l/m 6,9 km/h (2 Bft) W-NW 299 1 min 0,000 mm 0,7 UV-I 214 W/m 8,1 C 11,3 C 17,7 km/h (3 Bft) 100,00 %
15.11.2015 13:42 11,6 C 79 % 1013,7 hPa 0,0 l/m 5,7 km/h (1 Bft) N-NW 328 1 min 0,000 mm 0,7 UV-I 211 W/m 8,1 C 11,6 C 11,3 km/h (2 Bft) 100,00 %
15.11.2015 13:43 11,6 C 79 % 1013,7 hPa 0,0 l/m 4,0 km/h (1 Bft) N-NO 25 1 min 0,000 mm 0,7 UV-I 204 W/m 8,1 C 11,6 C 6,4 km/h (2 Bft) 100,00 %
15.11.2015 13:44 11,6 C 79 % 1013,8 hPa 0,0 l/m 3,6 km/h (1 Bft) N-NO 32 1 min 0,000 mm 0,7 UV-I 203 W/m 8,1 C 11,6 C 6,4 km/h (2 Bft) 100,00 %
15.11.2015 13:45 11,6 C 81 % 1013,8 hPa 0,0 l/m 2,6 km/h (1 Bft) W 276 1 min 0,000 mm 0,7 UV-I 218 W/m 8,5 C 11,6 C 6,4 km/h (2 Bft) 100,00 %
15.11.2015 13:46 11,6 C 79 % 1013,8 hPa 0,0 l/m 5,2 km/h (1 Bft) W 259 1 min 0,000 mm 0,7 UV-I 286 W/m 8,1 C 11,6 C 11,3 km/h (2 Bft) 100,00 %
15.11.2015 13:47 11,5 C 80 % 1013,8 hPa 0,0 l/m 3,6 km/h (1 Bft) W 268 1 min 0,000 mm 0,7 UV-I 321 W/m 8,2 C 11,5 C 6,4 km/h (2 Bft) 100,00 %
15.11.2015 13:48 11,5 C 79 % 1013,8 hPa 0,0 l/m 6,0 km/h (2 Bft) W-NW 290 1 min 0,000 mm 0,7 UV-I 332 W/m 8,0 C 11,5 C 9,7 km/h (2 Bft) 100,00 %
15.11.2015 13:49 11,6 C 79 % 1013,8 hPa 0,0 l/m 3,2 km/h (1 Bft) NW 319 1 min 0,000 mm 0,7 UV-I 337 W/m 8,1 C 11,6 C 4,8 km/h (1 Bft) 100,00 %
15.11.2015 13:50 11,6 C 78 % 1013,7 hPa 0,0 l/m 4,6 km/h (1 Bft) W-NW 297 1 min 0,000 mm 0,7 UV-I 292 W/m 7,9 C 11,6 C 8,0 km/h (2 Bft) 100,00 %
15.11.2015 13:51 11,6 C 80 % 1013,7 hPa 0,0 l/m 8,5 km/h (2 Bft) W 281 1 min 0,000 mm 0,7 UV-I 268 W/m 8,3 C 10,2 C 19,3 km/h (3 Bft) 100,00 %
15.11.2015 13:52 11,6 C 79 % 1013,7 hPa 0,0 l/m 5,2 km/h (1 Bft) W-SW 246 1 min 0,000 mm 0,7 UV-I 230 W/m 8,1 C 11,6 C 8,0 km/h (2 Bft) 100,00 %
15.11.2015 13:53 11,7 C 80 % 1013,7 hPa 0,0 l/m 4,9 km/h (1 Bft) N-NW 338 1 min 0,000 mm 0,7 UV-I 223 W/m 8,4 C 11,7 C 9,7 km/h (2 Bft) 95,83 %
15.11.2015 13:54 11,7 C 78 % 1013,8 hPa 0,0 l/m 6,4 km/h (2 Bft) NW 325 1 min 0,000 mm 0,7 UV-I 317 W/m 8,0 C 11,7 C 11,3 km/h (2 Bft) 96,15 %
15.11.2015 13:55 11,7 C 77 % 1013,9 hPa 0,0 l/m 10,8 km/h (2 Bft) NW 316 1 min 0,000 mm 0,7 UV-I 323 W/m 7,8 C 9,1 C 19,3 km/h (3 Bft) 100,00 %
15.11.2015 13:56 11,7 C 78 % 1013,8 hPa 0,0 l/m 4,0 km/h (1 Bft) NW 314 1 min 0,000 mm 0,6 UV-I 317 W/m 8,0 C 11,7 C 8,0 km/h (2 Bft) 100,00 %
15.11.2015 13:57 11,7 C 78 % 1013,8 hPa 0,0 l/m 8,8 km/h (2 Bft) NW 310 1 min 0,000 mm 0,6 UV-I 291 W/m 8,0 C 10,1 C 16,1 km/h (3 Bft) 100,00 %
15.11.2015 13:58 11,7 C 79 % 1013,8 hPa 0,0 l/m 2,7 km/h (1 Bft) W-NW 298 1 min 0,000 mm 0,6 UV-I 269 W/m 8,2 C 11,7 C 4,8 km/h (1 Bft) 100,00 %
15.11.2015 13:59 11,7 C 79 % 1013,8 hPa 0,0 l/m 3,6 km/h (1 Bft) W-NW 294 1 min 0,000 mm 0,6 UV-I 249 W/m 8,2 C 11,7 C 6,4 km/h (2 Bft) 100,00 %
15.11.2015 14:00 11,7 C 79 % 1013,8 hPa 0,0 l/m 3,4 km/h (1 Bft) W 275 1 min 0,127 mm 0,6 UV-I 266 W/m 8,2 C 11,7 C 6,4 km/h (2 Bft) 100,00 %
15.11.2015 14:01 11,8 C 80 % 1013,8 hPa 0,0 l/m 4,5 km/h (1 Bft) W-NW 288 1 min 0,000 mm 0,5 UV-I 235 W/m 8,5 C 11,8 C 6,4 km/h (2 Bft) 100,00 %
15.11.2015 14:02 11,7 C 79 % 1013,8 hPa 0,0 l/m 6,3 km/h (2 Bft) W-NW 298 1 min 0,000 mm 0,5 UV-I 242 W/m 8,2 C 11,7 C 11,3 km/h (2 Bft) 100,00 %
15.11.2015 14:03 11,7 C 78 % 1013,8 hPa 0,0 l/m 7,3 km/h (2 Bft) W 271 1 min 0,000 mm 0,5 UV-I 234 W/m 8,0 C 11,1 C 14,5 km/h (3 Bft) 100,00 %
15.11.2015 14:04 11,7 C 79 % 1013,7 hPa 0,0 l/m 5,5 km/h (1 Bft) W-SW 243 1 min 0,000 mm 0,5 UV-I 243 W/m 8,2 C 11,7 C 8,0 km/h (2 Bft) 100,00 %
15.11.2015 14:05 11,7 C 79 % 1013,8 hPa 0,0 l/m 6,8 km/h (2 Bft) W 268 1 min 0,000 mm 0,5 UV-I 250 W/m 8,2 C 11,4 C 12,9 km/h (3 Bft) 100,00 %
15.11.2015 14:06 11,7 C 77 % 1013,7 hPa 0,0 l/m 9,5 km/h (2 Bft) W-SW 250 1 min 0,000 mm 0,5 UV-I 227 W/m 7,8 C 9,7 C 16,1 km/h (3 Bft) 95,65 %
15.11.2015 14:07 11,7 C 78 % 1013,7 hPa 0,0 l/m 4,1 km/h (1 Bft) NO 42 1 min 0,000 mm 0,5 UV-I 185 W/m 8,0 C 11,7 C 8,0 km/h (2 Bft) 100,00 %
15.11.2015 14:08 11,7 C 79 % 1013,8 hPa 0,0 l/m 6,7 km/h (2 Bft) W 279 1 min 0,000 mm 0,0 UV-I 187 W/m 8,2 C 11,5 C 12,9 km/h (3 Bft) 100,00 %
15.11.2015 14:09 11,7 C 78 % 1013,8 hPa 0,0 l/m 5,7 km/h (1 Bft) N-NW 348 1 min 0,000 mm 0,0 UV-I 185 W/m 8,0 C 11,7 C 12,9 km/h (3 Bft) 100,00 %
15.11.2015 14:10 11,7 C 79 % 1013,7 hPa 0,0 l/m 3,8 km/h (1 Bft) W 263 1 min 0,000 mm 0,0 UV-I 175 W/m 8,2 C 11,7 C 6,4 km/h (2 Bft) 100,00 %
15.11.2015 14:11 11,7 C 79 % 1013,7 hPa 0,0 l/m 3,7 km/h (1 Bft) NW 321 1 min 0,000 mm 0,0 UV-I 165 W/m 8,2 C 11,7 C 6,4 km/h (2 Bft) 96,55 %
15.11.2015 14:12 11,7 C 80 % 1013,7 hPa 0,0 l/m 4,3 km/h (1 Bft) W-NW 292 1 min 0,000 mm 0,0 UV-I 160 W/m 8,4 C 11,7 C 8,0 km/h (2 Bft) 100,00 %
15.11.2015 14:13 11,7 C 80 % 1013,7 hPa 0,0 l/m 3,4 km/h (1 Bft) N-NW 327 0 min 0,000 mm 0,0 UV-I 150 W/m 8,4 C 11,7 C 4,8 km/h (1 Bft) 100,00 %
15.11.2015 14:14 11,7 C 79 % 1013,7 hPa 0,0 l/m 3,5 km/h (1 Bft) W 281 0 min 0,000 mm 0,0 UV-I 148 W/m 8,2 C 11,7 C 4,8 km/h (1 Bft) 100,00 %
15.11.2015 14:15 11,7 C 79 % 1013,7 hPa 0,0 l/m 7,0 km/h (2 Bft) W 262 0 min 0,000 mm 0,0 UV-I 147 W/m 8,2 C 11,3 C 12,9 km/h (3 Bft) 100,00 %
15.11.2015 14:16 11,7 C 79 % 1013,7 hPa 0,0 l/m 8,6 km/h (2 Bft) W-NW 301 0 min 0,000 mm 0,0 UV-I 145 W/m 8,2 C 10,3 C 12,9 km/h (3 Bft) 100,00 %
15.11.2015 14:17 11,7 C 79 % 1013,7 hPa 0,0 l/m 7,9 km/h (2 Bft) W 275 0 min 0,000 mm 0,0 UV-I 144 W/m 8,2 C 10,7 C 12,9 km/h (3 Bft) 100,00 %
15.11.2015 14:18 11,7 C 80 % 1013,7 hPa 0,0 l/m 2,4 km/h (1 Bft) W-SW 252 0 min 0,000 mm 0,0 UV-I 146 W/m 8,4 C 11,7 C 4,8 km/h (1 Bft) 100,00 %
15.11.2015 14:19 11,7 C 79 % 1013,7 hPa 0,0 l/m 3,7 km/h (1 Bft) W 267 0 min 0,000 mm 0,0 UV-I 145 W/m 8,2 C 11,7 C 4,8 km/h (1 Bft) 96,15 %
15.11.2015 14:20 11,6 C 81 % 1013,7 hPa 0,0 l/m 6,5 km/h (2 Bft) O-NO 67 0 min 0,000 mm 0,0 UV-I 144 W/m 8,5 C 11,6 C 14,5 km/h (3 Bft) 100,00 %
15.11.2015 14:21 11,7 C 79 % 1013,7 hPa 0,0 l/m 10,0 km/h (2 Bft) W-NW 293 0 min 0,000 mm 0,0 UV-I 134 W/m 8,2 C 9,5 C 16,1 km/h (3 Bft) 100,00 %
15.11.2015 14:22 11,6 C 79 % 1013,7 hPa 0,0 l/m 4,8 km/h (1 Bft) W-SW 240 0 min 0,000 mm 0,0 UV-I 131 W/m 8,1 C 11,6 C 6,4 km/h (2 Bft) 100,00 %
15.11.2015 14:23 11,7 C 79 % 1013,7 hPa 0,0 l/m 7,6 km/h (2 Bft) W 265 0 min 0,000 mm 0,0 UV-I 126 W/m 8,2 C 10,9 C 14,5 km/h (3 Bft) 100,00 %
15.11.2015 14:24 11,6 C 79 % 1013,7 hPa 0,0 l/m 6,5 km/h (2 Bft) NW 310 0 min 0,000 mm 0,0 UV-I 121 W/m 8,1 C 11,6 C 14,5 km/h (3 Bft) 100,00 %
15.11.2015 14:25 11,6 C 79 % 1013,6 hPa 0,0 l/m 5,5 km/h (1 Bft) N-NW 347 0 min 0,000 mm 0,0 UV-I 121 W/m 8,1 C 11,6 C 11,3 km/h (2 Bft) 100,00 %
15.11.2015 14:26 11,6 C 79 % 1013,7 hPa 0,0 l/m 5,4 km/h (1 Bft) W-SW 254 0 min 0,000 mm 0,0 UV-I 122 W/m 8,1 C 11,6 C 11,3 km/h (2 Bft) 100,00 %
15.11.2015 14:27 11,6 C 80 % 1013,7 hPa 0,0 l/m 6,0 km/h (2 Bft) O 82 0 min 0,000 mm 0,0 UV-I 124 W/m 8,3 C 11,6 C 14,5 km/h (3 Bft) 100,00 %
15.11.2015 14:28 11,6 C 80 % 1013,7 hPa 0,0 l/m 5,3 km/h (1 Bft) NW 307 0 min 0,000 mm 0,0 UV-I 122 W/m 8,3 C 11,6 C 14,5 km/h (3 Bft) 100,00 %
15.11.2015 14:29 11,6 C 79 % 1013,7 hPa 0,0 l/m 8,5 km/h (2 Bft) W-SW 242 0 min 0,000 mm 0,0 UV-I 120 W/m 8,1 C 10,2 C 12,9 km/h (3 Bft) 100,00 %
15.11.2015 14:30 11,5 C 81 % 1013,7 hPa 0,0 l/m 5,4 km/h (1 Bft) W 273 0 min 0,000 mm 0,0 UV-I 118 W/m 8,4 C 11,5 C 12,9 km/h (3 Bft) 100,00 %
15.11.2015 14:31 11,5 C 80 % 1013,7 hPa 0,0 l/m 5,3 km/h (1 Bft) W-NW 293 0 min 0,000 mm 0,0 UV-I 115 W/m 8,2 C 11,5 C 11,3 km/h (2 Bft) 100,00 %
15.11.2015 14:32 11,5 C 80 % 1013,7 hPa 0,0 l/m 5,7 km/h (1 Bft) W-SW 257 0 min 0,000 mm 0,0 UV-I 113 W/m 8,2 C 11,5 C 12,9 km/h (3 Bft) 100,00 %
15.11.2015 14:33 11,5 C 80 % 1013,7 hPa 0,0 l/m 6,2 km/h (2 Bft) NW 317 0 min 0,000 mm 0,0 UV-I 112 W/m 8,2 C 11,5 C 11,3 km/h (2 Bft) 100,00 %
15.11.2015 14:34 11,5 C 81 % 1013,7 hPa 0,0 l/m 4,8 km/h (1 Bft) NW 306 0 min 0,000 mm 0,0 UV-I 110 W/m 8,4 C 11,5 C 9,7 km/h (2 Bft) 100,00 %
15.11.2015 14:35 11,5 C 81 % 1013,7 hPa 0,0 l/m 6,5 km/h (2 Bft) W-NW 288 0 min 0,000 mm 0,0 UV-I 109 W/m 8,4 C 11,5 C 9,7 km/h (2 Bft) 100,00 %
15.11.2015 14:36 11,5 C 80 % 1013,7 hPa 0,0 l/m 4,6 km/h (1 Bft) W 267 0 min 0,000 mm 0,0 UV-I 109 W/m 8,2 C 11,5 C 9,7 km/h (2 Bft) 100,00 %
15.11.2015 14:37 11,4 C 81 % 1013,7 hPa 0,0 l/m 5,7 km/h (1 Bft) W 271 0 min 0,000 mm 0,0 UV-I 108 W/m 8,3 C 11,4 C 11,3 km/h (2 Bft) 100,00 %
15.11.2015 14:38 11,4 C 81 % 1013,7 hPa 0,0 l/m 7,9 km/h (2 Bft) W 273 0 min 0,000 mm 0,0 UV-I 106 W/m 8,3 C 10,4 C 12,9 km/h (3 Bft) 100,00 %
15.11.2015 14:39 11,4 C 81 % 1013,7 hPa 0,0 l/m 4,4 km/h (1 Bft) W-NW 287 0 min 0,000 mm 0,0 UV-I 104 W/m 8,3 C 11,4 C 6,4 km/h (2 Bft) 100,00 %
15.11.2015 14:40 11,5 C 80 % 1013,7 hPa 0,0 l/m 7,3 km/h (2 Bft) W 281 0 min 0,000 mm 0,0 UV-I 101 W/m 8,2 C 10,9 C 17,7 km/h (3 Bft) 100,00 %
15.11.2015 14:41 11,5 C 81 % 1013,7 hPa 0,0 l/m 3,7 km/h (1 Bft) N-NW 333 0 min 0,000 mm 0,0 UV-I 98 W/m 8,4 C 11,5 C 11,3 km/h (2 Bft) 100,00 %
15.11.2015 14:42 11,5 C 81 % 1013,7 hPa 0,0 l/m 4,2 km/h (1 Bft) W 277 0 min 0,000 mm 0,0 UV-I 97 W/m 8,4 C 11,5 C 6,4 km/h (2 Bft) 100,00 %
15.11.2015 14:43 11,4 C 80 % 1013,8 hPa 0,0 l/m 4,5 km/h (1 Bft) W 273 0 min 0,000 mm 0,0 UV-I 94 W/m 8,1 C 11,4 C 8,0 km/h (2 Bft) 100,00 %
15.11.2015 14:44 11,5 C 81 % 1013,7 hPa 0,0 l/m 3,7 km/h (1 Bft) NW 316 0 min 0,000 mm 0,0 UV-I 93 W/m 8,4 C 11,5 C 6,4 km/h (2 Bft) 100,00 %
15.11.2015 14:45 11,5 C 81 % 1013,7 hPa 0,0 l/m 1,3 km/h (1 Bft) N 355 0 min 0,000 mm 0,0 UV-I 92 W/m 8,4 C 11,5 C 3,2 km/h (1 Bft) 100,00 %
15.11.2015 14:46 11,4 C 82 % 1013,8 hPa 0,0 l/m 2,3 km/h (1 Bft) N 9 0 min 0,000 mm 0,0 UV-I 87 W/m 8,4 C 11,4 C 6,4 km/h (2 Bft) 100,00 %
15.11.2015 14:47 11,4 C 82 % 1013,8 hPa 0,0 l/m 2,7 km/h (1 Bft) NW 308 0 min 0,000 mm 0,0 UV-I 84 W/m 8,4 C 11,4 C 14,5 km/h (3 Bft) 95,83 %
15.11.2015 14:48 11,4 C 81 % 1013,8 hPa 0,0 l/m 5,0 km/h (1 Bft) W 266 0 min 0,000 mm 0,0 UV-I 82 W/m 8,3 C 11,4 C 12,9 km/h (3 Bft) 100,00 %
15.11.2015 14:49 11,3 C 81 % 1013,8 hPa 0,0 l/m 3,6 km/h (1 Bft) NW 311 0 min 0,000 mm 0,0 UV-I 80 W/m 8,2 C 11,3 C 6,4 km/h (2 Bft) 100,00 %
15.11.2015 14:50 11,3 C 81 % 1013,8 hPa 0,0 l/m 4,0 km/h (1 Bft) W 259 0 min 0,000 mm 0,0 UV-I 78 W/m 8,2 C 11,3 C 6,4 km/h (2 Bft) 100,00 %
15.11.2015 14:51 11,3 C 82 % 1013,8 hPa 0,0 l/m 4,2 km/h (1 Bft) W-NW 292 0 min 0,000 mm 0,0 UV-I 76 W/m 8,3 C 11,3 C 6,4 km/h (2 Bft) 100,00 %
15.11.2015 14:52 11,3 C 82 % 1013,8 hPa 0,0 l/m 3,2 km/h (1 Bft) N-NO 28 0 min 0,000 mm 0,0 UV-I 74 W/m 8,3 C 11,3 C 4,8 km/h (1 Bft) 100,00 %
15.11.2015 14:53 11,3 C 82 % 1013,8 hPa 0,0 l/m 5,7 km/h (1 Bft) W 265 0 min 0,000 mm 0,0 UV-I 74 W/m 8,3 C 11,3 C 11,3 km/h (2 Bft) 100,00 %
15.11.2015 14:54 11,3 C 82 % 1013,8 hPa 0,0 l/m 3,6 km/h (1 Bft) NW 317 0 min 0,000 mm 0,0 UV-I 74 W/m 8,3 C 11,3 C 6,4 km/h (2 Bft) 100,00 %
15.11.2015 14:55 11,3 C 82 % 1013,9 hPa 0,0 l/m 6,2 km/h (2 Bft) W 280 0 min 0,000 mm 0,0 UV-I 74 W/m 8,3 C 11,3 C 9,7 km/h (2 Bft) 100,00 %
15.11.2015 14:56 11,3 C 82 % 1013,9 hPa 0,0 l/m 5,5 km/h (1 Bft) W 270 0 min 0,000 mm 0,0 UV-I 74 W/m 8,3 C 11,3 C 9,7 km/h (2 Bft) 100,00 %
15.11.2015 14:57 11,2 C 82 % 1013,9 hPa 0,0 l/m 3,0 km/h (1 Bft) W-NW 288 0 min 0,000 mm 0,0 UV-I 72 W/m 8,2 C 11,2 C 4,8 km/h (1 Bft) 100,00 %
15.11.2015 14:58 11,2 C 82 % 1014,0 hPa 0,0 l/m 3,7 km/h (1 Bft) W 277 0 min 0,000 mm 0,0 UV-I 72 W/m 8,2 C 11,2 C 4,8 km/h (1 Bft) 100,00 %
15.11.2015 14:59 11,2 C 82 % 1014,0 hPa 0,0 l/m 4,1 km/h (1 Bft) N-NO 30 0 min 0,000 mm 0,0 UV-I 70 W/m 8,2 C 11,2 C 6,4 km/h (2 Bft) 96,15 %
15.11.2015 15:00 11,3 C 81 % 1014,0 hPa 0,0 l/m 5,7 km/h (1 Bft) S-SW 205 0 min 0,076 mm 0,0 UV-I 66 W/m 8,2 C 11,3 C 8,0 km/h (2 Bft) 91,67 %
15.11.2015 15:01 11,3 C 82 % 1014,0 hPa 0,0 l/m 6,9 km/h (2 Bft) NW 312 0 min 0,000 mm 0,0 UV-I 62 W/m 8,3 C 11,0 C 12,9 km/h (3 Bft) 100,00 %
15.11.2015 15:02 11,3 C 81 % 1014,0 hPa 0,0 l/m 7,2 km/h (2 Bft) W 265 0 min 0,000 mm 0,0 UV-I 62 W/m 8,2 C 10,8 C 14,5 km/h (3 Bft) 100,00 %
15.11.2015 15:03 11,3 C 81 % 1014,1 hPa 0,0 l/m 8,6 km/h (2 Bft) W 269 0 min 0,000 mm 0,0 UV-I 61 W/m 8,2 C 9,8 C 12,9 km/h (3 Bft) 100,00 %
15.11.2015 15:04 11,4 C 81 % 1014,1 hPa 0,0 l/m 4,9 km/h (1 Bft) W 277 0 min 0,000 mm 0,0 UV-I 62 W/m 8,3 C 11,4 C 6,4 km/h (2 Bft) 100,00 %
15.11.2015 15:05 11,4 C 81 % 1014,1 hPa 0,0 l/m 5,7 km/h (1 Bft) W 275 0 min 0,000 mm 0,0 UV-I 62 W/m 8,3 C 11,4 C 11,3 km/h (2 Bft) 100,00 %
15.11.2015 15:06 11,4 C 81 % 1014,1 hPa 0,0 l/m 6,2 km/h (2 Bft) W-SW 241 0 min 0,000 mm 0,0 UV-I 62 W/m 8,3 C 11,4 C 12,9 km/h (3 Bft) 95,83 %
15.11.2015 15:07 11,4 C 81 % 1014,1 hPa 0,0 l/m 9,0 km/h (2 Bft) W 268 0 min 0,000 mm 0,0 UV-I 62 W/m 8,3 C 9,7 C 19,3 km/h (3 Bft) 100,00 %
15.11.2015 15:08 11,4 C 80 % 1014,0 hPa 0,0 l/m 7,5 km/h (2 Bft) W-SW 251 0 min 0,000 mm 0,0 UV-I 63 W/m 8,1 C 10,7 C 14,5 km/h (3 Bft) 100,00 %
15.11.2015 15:09 11,4 C 80 % 1014,0 hPa 0,0 l/m 9,5 km/h (2 Bft) W 281 0 min 0,000 mm 0,0 UV-I 64 W/m 8,1 C 9,4 C 16,1 km/h (3 Bft) 100,00 %
15.11.2015 15:10 11,5 C 80 % 1014,1 hPa 0,0 l/m 7,4 km/h (2 Bft) W 261 0 min 0,000 mm 0,0 UV-I 63 W/m 8,2 C 10,8 C 12,9 km/h (3 Bft) 100,00 %
15.11.2015 15:11 11,5 C 80 % 1014,1 hPa 0,0 l/m 9,5 km/h (2 Bft) W-NW 285 0 min 0,000 mm 0,0 UV-I 63 W/m 8,2 C 9,5 C 17,7 km/h (3 Bft) 95,83 %
15.11.2015 15:12 11,5 C 80 % 1014,1 hPa 0,0 l/m 9,0 km/h (2 Bft) W 278 0 min 0,000 mm 0,0 UV-I 61 W/m 8,2 C 9,8 C 12,9 km/h (3 Bft) 95,65 %
15.11.2015 15:13 11,5 C 80 % 1014,0 hPa 0,0 l/m 7,4 km/h (2 Bft) W-SW 255 0 min 0,000 mm 0,0 UV-I 58 W/m 8,2 C 10,8 C 12,9 km/h (3 Bft) 100,00 %
15.11.2015 15:14 11,5 C 80 % 1014,1 hPa 0,0 l/m 10,8 km/h (2 Bft) W-NW 288 0 min 0,000 mm 0,0 UV-I 57 W/m 8,2 C 8,8 C 16,1 km/h (3 Bft) 100,00 %
15.11.2015 15:15 11,5 C 80 % 1014,1 hPa 0,0 l/m 7,6 km/h (2 Bft) W-NW 290 0 min 0,000 mm 0,0 UV-I 55 W/m 8,2 C 10,7 C 22,5 km/h (4 Bft) 100,00 %
15.11.2015 15:16 11,5 C 79 % 1014,0 hPa 0,0 l/m 7,3 km/h (2 Bft) NW 309 0 min 0,000 mm 0,0 UV-I 53 W/m 8,0 C 10,9 C 11,3 km/h (2 Bft) 100,00 %
15.11.2015 15:17 11,5 C 80 % 1014,1 hPa 0,0 l/m 6,7 km/h (2 Bft) W-SW 257 0 min 0,000 mm 0,0 UV-I 51 W/m 8,2 C 11,3 C 11,3 km/h (2 Bft) 100,00 %
15.11.2015 15:18 11,5 C 80 % 1014,0 hPa 0,0 l/m 4,3 km/h (1 Bft) W 281 0 min 0,000 mm 0,0 UV-I 50 W/m 8,2 C 11,5 C 6,4 km/h (2 Bft) 100,00 %
15.11.2015 15:19 11,5 C 80 % 1014,0 hPa 0,0 l/m 5,5 km/h (1 Bft) W-SW 249 0 min 0,000 mm 0,0 UV-I 49 W/m 8,2 C 11,5 C 9,7 km/h (2 Bft) 100,00 %
15.11.2015 15:20 11,4 C 80 % 1014,1 hPa 0,0 l/m 9,1 km/h (2 Bft) W-NW 284 0 min 0,000 mm 0,0 UV-I 49 W/m 8,1 C 9,6 C 16,1 km/h (3 Bft) 100,00 %
15.11.2015 15:21 11,4 C 80 % 1014,0 hPa 0,0 l/m 9,7 km/h (2 Bft) W 265 0 min 0,000 mm 0,0 UV-I 47 W/m 8,1 C 9,3 C 12,9 km/h (3 Bft) 100,00 %
15.11.2015 15:22 11,4 C 80 % 1014,0 hPa 0,0 l/m 4,8 km/h (1 Bft) W 259 0 min 0,000 mm 0,0 UV-I 47 W/m 8,1 C 11,4 C 9,7 km/h (2 Bft) 100,00 %
15.11.2015 15:23 11,4 C 80 % 1014,0 hPa 0,0 l/m 6,3 km/h (2 Bft) NW 308 0 min 0,000 mm 0,0 UV-I 47 W/m 8,1 C 11,4 C 11,3 km/h (2 Bft) 100,00 %
15.11.2015 15:24 11,4 C 80 % 1014,0 hPa 0,0 l/m 7,3 km/h (2 Bft) W 259 0 min 0,000 mm 0,0 UV-I 47 W/m 8,1 C 10,8 C 12,9 km/h (3 Bft) 95,65 %
15.11.2015 15:25 11,4 C 80 % 1013,9 hPa 0,0 l/m 7,0 km/h (2 Bft) W-NW 294 0 min 0,000 mm 0,0 UV-I 46 W/m 8,1 C 11,0 C 11,3 km/h (2 Bft) 95,83 %
15.11.2015 15:26 11,4 C 80 % 1014,0 hPa 0,0 l/m 8,0 km/h (2 Bft) W 279 0 min 0,000 mm 0,0 UV-I 47 W/m 8,1 C 10,3 C 12,9 km/h (3 Bft) 100,00 %
15.11.2015 15:27 11,4 C 80 % 1014,0 hPa 0,0 l/m 5,6 km/h (1 Bft) W 280 0 min 0,000 mm 0,0 UV-I 47 W/m 8,1 C 11,4 C 9,7 km/h (2 Bft) 100,00 %
15.11.2015 15:28 11,4 C 80 % 1014,0 hPa 0,0 l/m 6,5 km/h (2 Bft) W-NW 289 0 min 0,000 mm 0,0 UV-I 49 W/m 8,1 C 11,4 C 9,7 km/h (2 Bft) 100,00 %
15.11.2015 15:29 11,4 C 80 % 1014,0 hPa 0,0 l/m 3,6 km/h (1 Bft) W 273 0 min 0,000 mm 0,0 UV-I 49 W/m 8,1 C 11,4 C 6,4 km/h (2 Bft) 100,00 %
15.11.2015 15:30 11,3 C 80 % 1014,0 hPa 0,0 l/m 5,2 km/h (1 Bft) W 275 0 min 0,000 mm 0,0 UV-I 50 W/m 8,0 C 11,3 C 11,3 km/h (2 Bft) 95,83 %
15.11.2015 15:31 11,3 C 80 % 1014,0 hPa 0,0 l/m 5,0 km/h (1 Bft) W 274 0 min 0,000 mm 0,0 UV-I 64 W/m 8,0 C 11,3 C 9,7 km/h (2 Bft) 95,65 %
15.11.2015 15:32 11,3 C 81 % 1014,0 hPa 0,0 l/m 7,0 km/h (2 Bft) W 263 1 min 0,000 mm 0,0 UV-I 70 W/m 8,2 C 10,9 C 11,3 km/h (2 Bft) 100,00 %
15.11.2015 15:33 11,3 C 81 % 1014,1 hPa 0,0 l/m 5,4 km/h (1 Bft) W 271 1 min 0,000 mm 0,0 UV-I 71 W/m 8,2 C 11,3 C 9,7 km/h (2 Bft) 100,00 %
15.11.2015 15:34 11,4 C 80 % 1014,0 hPa 0,0 l/m 7,1 km/h (2 Bft) W 267 1 min 0,000 mm 0,0 UV-I 65 W/m 8,1 C 10,9 C 11,3 km/h (2 Bft) 100,00 %
15.11.2015 15:35 11,4 C 81 % 1014,0 hPa 0,0 l/m 5,4 km/h (1 Bft) W-NW 302 1 min 0,000 mm 0,0 UV-I 74 W/m 8,3 C 11,4 C 11,3 km/h (2 Bft) 96,15 %
15.11.2015 15:36 11,4 C 80 % 1014,0 hPa 0,0 l/m 6,4 km/h (2 Bft) W 275 1 min 0,000 mm 0,0 UV-I 73 W/m 8,1 C 11,4 C 12,9 km/h (3 Bft) 100,00 %
15.11.2015 15:37 11,4 C 80 % 1014,0 hPa 0,0 l/m 9,0 km/h (2 Bft) W 273 1 min 0,000 mm 0,0 UV-I 79 W/m 8,1 C 9,7 C 12,9 km/h (3 Bft) 100,00 %
15.11.2015 15:38 11,5 C 80 % 1014,0 hPa 0,0 l/m 7,8 km/h (2 Bft) W 272 1 min 0,000 mm 0,0 UV-I 78 W/m 8,2 C 10,6 C 14,5 km/h (3 Bft) 95,83 %
15.11.2015 15:39 11,6 C 79 % 1013,9 hPa 0,0 l/m 9,9 km/h (2 Bft) W 279 1 min 0,000 mm 0,0 UV-I 74 W/m 8,1 C 9,4 C 12,9 km/h (3 Bft) 100,00 %
15.11.2015 15:40 11,6 C 79 % 1013,9 hPa 0,0 l/m 5,7 km/h (1 Bft) W 281 1 min 0,000 mm 0,0 UV-I 69 W/m 8,1 C 11,6 C 9,7 km/h (2 Bft) 100,00 %
15.11.2015 15:41 11,6 C 80 % 1013,9 hPa 0,0 l/m 4,7 km/h (1 Bft) W-NW 285 1 min 0,000 mm 0,0 UV-I 67 W/m 8,3 C 11,6 C 6,4 km/h (2 Bft) 95,65 %
15.11.2015 15:42 11,6 C 80 % 1013,9 hPa 0,0 l/m 4,4 km/h (1 Bft) W 269 1 min 0,000 mm 0,0 UV-I 66 W/m 8,3 C 11,6 C 6,4 km/h (2 Bft) 100,00 %
15.11.2015 15:43 11,6 C 79 % 1014,0 hPa 0,0 l/m 7,6 km/h (2 Bft) W-NW 295 1 min 0,000 mm 0,0 UV-I 63 W/m 8,1 C 10,8 C 11,3 km/h (2 Bft) 100,00 %
15.11.2015 15:44 11,6 C 79 % 1014,0 hPa 0,0 l/m 7,9 km/h (2 Bft) N-NW 335 1 min 0,000 mm 0,0 UV-I 56 W/m 8,1 C 10,6 C 11,3 km/h (2 Bft) 91,67 %
15.11.2015 15:45 11,6 C 79 % 1013,9 hPa 0,0 l/m 6,2 km/h (2 Bft) W-NW 284 1 min 0,000 mm 0,0 UV-I 53 W/m 8,1 C 11,6 C 12,9 km/h (3 Bft) 100,00 %
15.11.2015 15:46 11,6 C 79 % 1013,9 hPa 0,0 l/m 5,1 km/h (1 Bft) W 271 1 min 0,000 mm 0,0 UV-I 53 W/m 8,1 C 11,6 C 6,4 km/h (2 Bft) 100,00 %
15.11.2015 15:47 11,6 C 80 % 1014,0 hPa 0,0 l/m 4,9 km/h (1 Bft) NW 304 1 min 0,000 mm 0,0 UV-I 52 W/m 8,3 C 11,6 C 9,7 km/h (2 Bft) 100,00 %
15.11.2015 15:48 11,6 C 80 % 1014,0 hPa 0,0 l/m 4,8 km/h (1 Bft) W 275 1 min 0,000 mm 0,0 UV-I 50 W/m 8,3 C 11,6 C 9,7 km/h (2 Bft) 100,00 %
15.11.2015 15:49 11,6 C 80 % 1014,0 hPa 0,0 l/m 4,1 km/h (1 Bft) W-NW 291 1 min 0,000 mm 0,0 UV-I 48 W/m 8,3 C 11,6 C 4,8 km/h (1 Bft) 100,00 %
15.11.2015 15:50 11,5 C 80 % 1014,0 hPa 0,0 l/m 2,9 km/h (1 Bft) W-SW 251 1 min 0,000 mm 0,0 UV-I 47 W/m 8,2 C 11,5 C 4,8 km/h (1 Bft) 95,83 %
15.11.2015 15:51 11,4 C 81 % 1014,0 hPa 0,0 l/m 2,8 km/h (1 Bft) W-NW 297 1 min 0,000 mm 0,0 UV-I 44 W/m 8,3 C 11,4 C 4,8 km/h (1 Bft) 100,00 %
15.11.2015 15:52 11,4 C 81 % 1014,0 hPa 0,0 l/m 3,3 km/h (1 Bft) W-NW 298 1 min 0,000 mm 0,0 UV-I 42 W/m 8,3 C 11,4 C 4,8 km/h (1 Bft) 100,00 %
15.11.2015 15:53 11,4 C 80 % 1014,0 hPa 0,0 l/m 5,3 km/h (1 Bft) W-NW 292 1 min 0,000 mm 0,0 UV-I 40 W/m 8,1 C 11,4 C 11,3 km/h (2 Bft) 100,00 %
15.11.2015 15:54 11,4 C 80 % 1014,0 hPa 0,0 l/m 3,0 km/h (1 Bft) W-SW 247 1 min 0,000 mm 0,0 UV-I 41 W/m 8,1 C 11,4 C 4,8 km/h (1 Bft) 100,00 %
15.11.2015 15:55 11,3 C 81 % 1014,1 hPa 0,0 l/m 0,9 km/h (0 Bft) W 278 1 min 0,000 mm 0,0 UV-I 43 W/m 8,2 C 11,3 C 3,2 km/h (1 Bft) 100,00 %
15.11.2015 15:56 11,3 C 81 % 1014,1 hPa 0,0 l/m 1,2 km/h (1 Bft) W 261 1 min 0,000 mm 0,0 UV-I 46 W/m 8,2 C 11,3 C 4,8 km/h (1 Bft) 100,00 %
15.11.2015 15:57 11,3 C 81 % 1014,0 hPa 0,0 l/m 2,9 km/h (1 Bft) W 270 1 min 0,000 mm 0,0 UV-I 46 W/m 8,2 C 11,3 C 4,8 km/h (1 Bft) 95,83 %
15.11.2015 15:58 11,3 C 81 % 1014,1 hPa 0,0 l/m 1,2 km/h (1 Bft) W-NW 303 1 min 0,000 mm 0,0 UV-I 46 W/m 8,2 C 11,3 C 3,2 km/h (1 Bft) 100,00 %
15.11.2015 15:59 11,3 C 81 % 1014,1 hPa 0,0 l/m 3,6 km/h (1 Bft) W 265 1 min 0,000 mm 0,0 UV-I 44 W/m 8,2 C 11,3 C 4,8 km/h (1 Bft) 95,83 %
15.11.2015 16:00 11,3 C 81 % 1014,1 hPa 0,0 l/m 2,8 km/h (1 Bft) W-NW 293 1 min 0,000 mm 0,0 UV-I 43 W/m 8,2 C 11,3 C 4,8 km/h (1 Bft) 100,00 %
15.11.2015 16:01 11,3 C 81 % 1014,1 hPa 0,0 l/m 4,2 km/h (1 Bft) W-SW 243 1 min 0,051 mm 0,0 UV-I 41 W/m 8,2 C 11,3 C 6,4 km/h (2 Bft) 100,00 %
15.11.2015 16:02 11,3 C 81 % 1014,0 hPa 0,0 l/m 8,1 km/h (2 Bft) W-NW 295 1 min 0,000 mm 0,0 UV-I 40 W/m 8,2 C 10,2 C 14,5 km/h (3 Bft) 100,00 %
15.11.2015 16:03 11,3 C 81 % 1014,0 hPa 0,0 l/m 4,8 km/h (1 Bft) NW 305 1 min 0,000 mm 0,0 UV-I 39 W/m 8,2 C 11,3 C 6,4 km/h (2 Bft) 100,00 %
15.11.2015 16:04 11,4 C 81 % 1014,1 hPa 0,0 l/m 5,6 km/h (1 Bft) W-NW 286 1 min 0,000 mm 0,0 UV-I 36 W/m 8,3 C 11,4 C 9,7 km/h (2 Bft) 100,00 %
15.11.2015 16:05 11,4 C 80 % 1014,0 hPa 0,0 l/m 6,2 km/h (2 Bft) W 278 1 min 0,000 mm 0,0 UV-I 35 W/m 8,1 C 11,4 C 12,9 km/h (3 Bft) 100,00 %
15.11.2015 16:06 11,4 C 80 % 1014,1 hPa 0,0 l/m 7,8 km/h (2 Bft) W-SW 257 1 min 0,000 mm 0,0 UV-I 33 W/m 8,1 C 10,5 C 12,9 km/h (3 Bft) 100,00 %
15.11.2015 16:07 11,4 C 80 % 1014,1 hPa 0,0 l/m 5,0 km/h (1 Bft) NW 321 1 min 0,000 mm 0,0 UV-I 30 W/m 8,1 C 11,4 C 8,0 km/h (2 Bft) 100,00 %
15.11.2015 16:08 11,4 C 80 % 1014,1 hPa 0,0 l/m 4,8 km/h (1 Bft) W-NW 288 1 min 0,000 mm 0,0 UV-I 28 W/m 8,1 C 11,4 C 11,3 km/h (2 Bft) 100,00 %
15.11.2015 16:09 11,4 C 80 % 1014,1 hPa 0,0 l/m 5,3 km/h (1 Bft) W 272 1 min 0,000 mm 0,0 UV-I 25 W/m 8,1 C 11,4 C 11,3 km/h (2 Bft) 100,00 %
15.11.2015 16:10 11,4 C 81 % 1014,1 hPa 0,0 l/m 2,5 km/h (1 Bft) W 275 1 min 0,000 mm 0,0 UV-I 23 W/m 8,3 C 11,4 C 4,8 km/h (1 Bft) 95,65 %
15.11.2015 16:11 11,3 C 80 % 1014,1 hPa 0,0 l/m 5,0 km/h (1 Bft) W-NW 301 1 min 0,000 mm 0,0 UV-I 22 W/m 8,0 C 11,3 C 9,7 km/h (2 Bft) 100,00 %
15.11.2015 16:12 11,3 C 80 % 1014,1 hPa 0,0 l/m 3,0 km/h (1 Bft) W-NW 285 1 min 0,000 mm 0,0 UV-I 21 W/m 8,0 C 11,3 C 6,4 km/h (2 Bft) 100,00 %
15.11.2015 16:13 11,3 C 80 % 1014,1 hPa 0,0 l/m 5,7 km/h (1 Bft) W 271 1 min 0,000 mm 0,0 UV-I 20 W/m 8,0 C 11,3 C 9,7 km/h (2 Bft) 100,00 %
15.11.2015 16:14 11,3 C 80 % 1014,0 hPa 0,0 l/m 6,1 km/h (2 Bft) W 269 1 min 0,000 mm 0,0 UV-I 19 W/m 8,0 C 11,3 C 9,7 km/h (2 Bft) 100,00 %
15.11.2015 16:15 11,3 C 80 % 1014,1 hPa 0,0 l/m 7,1 km/h (2 Bft) N-NW 329 0 min 0,000 mm 0,0 UV-I 18 W/m 8,0 C 10,8 C 12,9 km/h (3 Bft) 100,00 %
15.11.2015 16:16 11,3 C 80 % 1014,0 hPa 0,0 l/m 4,4 km/h (1 Bft) W 269 0 min 0,000 mm 0,0 UV-I 18 W/m 8,0 C 11,3 C 8,0 km/h (2 Bft) 100,00 %
15.11.2015 16:17 11,3 C 80 % 1013,9 hPa 0,0 l/m 4,6 km/h (1 Bft) NW 304 0 min 0,000 mm 0,0 UV-I 17 W/m 8,0 C 11,3 C 6,4 km/h (2 Bft) 100,00 %
15.11.2015 16:18 11,3 C 80 % 1013,8 hPa 0,0 l/m 5,0 km/h (1 Bft) W-SW 252 0 min 0,000 mm 0,0 UV-I 16 W/m 8,0 C 11,3 C 9,7 km/h (2 Bft) 95,83 %
15.11.2015 16:19 11,3 C 80 % 1013,7 hPa 0,0 l/m 7,6 km/h (2 Bft) W-NW 288 0 min 0,000 mm 0,0 UV-I 16 W/m 8,0 C 10,5 C 12,9 km/h (3 Bft) 100,00 %
15.11.2015 16:20 11,3 C 80 % 1013,8 hPa 0,0 l/m 8,6 km/h (2 Bft) W 267 0 min 0,000 mm 0,0 UV-I 14 W/m 8,0 C 9,8 C 11,3 km/h (2 Bft) 100,00 %
15.11.2015 16:21 11,4 C 80 % 1013,8 hPa 0,0 l/m 7,8 km/h (2 Bft) W 268 0 min 0,000 mm 0,0 UV-I 12 W/m 8,1 C 10,5 C 16,1 km/h (3 Bft) 100,00 %
15.11.2015 16:22 11,4 C 79 % 1013,7 hPa 0,0 l/m 9,0 km/h (2 Bft) W 267 0 min 0,000 mm 0,0 UV-I 11 W/m 7,9 C 9,7 C 16,1 km/h (3 Bft) 100,00 %
15.11.2015 16:23 11,4 C 79 % 1013,7 hPa 0,0 l/m 5,3 km/h (1 Bft) W-NW 284 0 min 0,000 mm 0,0 UV-I 10 W/m 7,9 C 11,4 C 11,3 km/h (2 Bft) 100,00 %
15.11.2015 16:24 11,5 C 79 % 1013,7 hPa 0,0 l/m 8,4 km/h (2 Bft) W 271 0 min 0,000 mm 0,0 UV-I 9 W/m 8,0 C 10,2 C 14,5 km/h (3 Bft) 100,00 %
15.11.2015 16:25 11,5 C 79 % 1013,7 hPa 0,0 l/m 6,4 km/h (2 Bft) NW 318 0 min 0,000 mm 0,0 UV-I 8 W/m 8,0 C 11,5 C 9,7 km/h (2 Bft) 96,15 %
15.11.2015 16:26 11,5 C 79 % 1013,7 hPa 0,0 l/m 7,7 km/h (2 Bft) W 271 0 min 0,000 mm 0,0 UV-I 7 W/m 8,0 C 10,6 C 11,3 km/h (2 Bft) 100,00 %
15.11.2015 16:27 11,5 C 79 % 1013,7 hPa 0,0 l/m 9,2 km/h (2 Bft) W 272 0 min 0,000 mm 0,0 UV-I 5 W/m 8,0 C 9,7 C 11,3 km/h (2 Bft) 100,00 %
15.11.2015 16:28 11,6 C 79 % 1013,8 hPa 0,0 l/m 11,4 km/h (2 Bft) W 262 0 min 0,000 mm 0,0 UV-I 5 W/m 8,1 C 8,6 C 17,7 km/h (3 Bft) 100,00 %
15.11.2015 16:29 11,6 C 78 % 1013,8 hPa 0,0 l/m 8,1 km/h (2 Bft) W 271 0 min 0,000 mm 0,0 UV-I 3 W/m 7,9 C 10,5 C 14,5 km/h (3 Bft) 100,00 %
15.11.2015 16:30 11,6 C 78 % 1013,8 hPa 0,0 l/m 8,0 km/h (2 Bft) W 270 0 min 0,000 mm 0,0 UV-I 4 W/m 7,9 C 10,5 C 17,7 km/h (3 Bft) 100,00 %
15.11.2015 16:35 11,8 C 77 % 1013,9 hPa 0,0 l/m 9,7 km/h (2 Bft) W 270 0 min 0,000 mm 0,0 UV-I 0 W/m 7,9 C 9,7 C 17,7 km/h (3 Bft) 100,00 %
15.11.2015 16:40 11,9 C 77 % 1013,7 hPa 0,0 l/m 8,0 km/h (2 Bft) W 270 0 min 0,000 mm 0,0 UV-I 0 W/m 8,0 C 10,8 C 17,7 km/h (3 Bft) 100,00 %
15.11.2015 16:41 11,9 C 77 % 1013,7 hPa 0,0 l/m 8,5 km/h (2 Bft) W 269 0 min 0,000 mm 0,0 UV-I 0 W/m 8,0 C 10,5 C 12,9 km/h (3 Bft) 99,30 %
15.11.2015 16:42 11,9 C 77 % 1013,7 hPa 0,0 l/m 7,5 km/h (2 Bft) W-NW 295 0 min 0,000 mm 0,0 UV-I 0 W/m 8,0 C 11,2 C 11,3 km/h (2 Bft) 100,00 %
15.11.2015 16:43 11,9 C 76 % 1013,7 hPa 0,0 l/m 9,7 km/h (2 Bft) W 280 0 min 0,000 mm 0,0 UV-I 0 W/m 7,8 C 9,9 C 17,7 km/h (3 Bft) 100,00 %
15.11.2015 16:44 11,9 C 77 % 1013,7 hPa 0,0 l/m 6,6 km/h (2 Bft) W 265 0 min 0,000 mm 0,0 UV-I 0 W/m 8,0 C 11,8 C 9,7 km/h (2 Bft) 100,00 %
15.11.2015 16:45 11,9 C 77 % 1013,7 hPa 0,0 l/m 7,6 km/h (2 Bft) W 273 0 min 0,000 mm 0,0 UV-I 0 W/m 8,0 C 11,1 C 12,9 km/h (3 Bft) 100,00 %
15.11.2015 16:46 11,9 C 77 % 1013,7 hPa 0,0 l/m 7,6 km/h (2 Bft) W-NW 301 0 min 0,000 mm 0,0 UV-I 0 W/m 8,0 C 11,1 C 11,3 km/h (2 Bft) 96,15 %
15.11.2015 16:47 11,9 C 76 % 1013,7 hPa 0,0 l/m 7,2 km/h (2 Bft) W-SW 238 0 min 0,000 mm 0,0 UV-I 0 W/m 7,8 C 11,4 C 12,9 km/h (3 Bft) 100,00 %
15.11.2015 16:48 11,9 C 76 % 1013,6 hPa 0,0 l/m 8,7 km/h (2 Bft) W 273 0 min 0,000 mm 0,0 UV-I 0 W/m 7,8 C 10,4 C 14,5 km/h (3 Bft) 100,00 %
15.11.2015 16:49 11,9 C 77 % 1013,6 hPa 0,0 l/m 6,3 km/h (2 Bft) W 271 0 min 0,000 mm 0,0 UV-I 0 W/m 8,0 C 11,9 C 9,7 km/h (2 Bft) 100,00 %
15.11.2015 16:50 12,0 C 76 % 1013,6 hPa 0,0 l/m 7,4 km/h (2 Bft) W-NW 288 0 min 0,000 mm 0,0 UV-I 0 W/m 7,9 C 11,3 C 12,9 km/h (3 Bft) 100,00 %
15.11.2015 16:51 12,0 C 76 % 1013,5 hPa 0,0 l/m 5,8 km/h (2 Bft) W 259 0 min 0,000 mm 0,0 UV-I 0 W/m 7,9 C 12,0 C 11,3 km/h (2 Bft) 100,00 %
15.11.2015 16:55 12,1 C 76 % 1013,6 hPa 0,0 l/m 6,4 km/h (2 Bft) W 270 0 min 0,000 mm 0,0 UV-I 0 W/m 8,0 C 12,1 C 14,5 km/h (3 Bft) 100,00 %
15.11.2015 17:01 12,1 C 76 % 1013,6 hPa 0,0 l/m 3,7 km/h (1 Bft) W 275 0 min 0,025 mm 0,0 UV-I 0 W/m 8,0 C 12,1 C 4,8 km/h (1 Bft) 100,00 %
15.11.2015 17:02 12,0 C 77 % 1013,6 hPa 0,0 l/m 3,3 km/h (1 Bft) W 278 0 min 0,000 mm 0,0 UV-I 0 W/m 8,1 C 12,0 C 4,8 km/h (1 Bft) 100,00 %
15.11.2015 17:03 12,0 C 77 % 1013,6 hPa 0,0 l/m 3,5 km/h (1 Bft) W 274 0 min 0,000 mm 0,0 UV-I 0 W/m 8,1 C 12,0 C 4,8 km/h (1 Bft) 96,30 %
15.11.2015 17:04 11,9 C 77 % 1013,6 hPa 0,0 l/m 2,7 km/h (1 Bft) W 267 0 min 0,000 mm 0,0 UV-I 0 W/m 8,0 C 11,9 C 4,8 km/h (1 Bft) 100,00 %
15.11.2015 17:05 11,9 C 77 % 1013,5 hPa 0,0 l/m 5,9 km/h (2 Bft) W-NW 284 0 min 0,000 mm 0,0 UV-I 0 W/m 8,0 C 11,9 C 9,7 km/h (2 Bft) 100,00 %
15.11.2015 17:06 11,9 C 77 % 1013,6 hPa 0,0 l/m 4,2 km/h (1 Bft) W-NW 283 0 min 0,000 mm 0,0 UV-I 0 W/m 8,0 C 11,9 C 6,4 km/h (2 Bft) 100,00 %
15.11.2015 17:07 11,9 C 77 % 1013,6 hPa 0,0 l/m 3,0 km/h (1 Bft) W-NW 298 0 min 0,000 mm 0,0 UV-I 0 W/m 8,0 C 11,9 C 6,4 km/h (2 Bft) 100,00 %
15.11.2015 17:08 11,9 C 77 % 1013,6 hPa 0,0 l/m 1,2 km/h (1 Bft) W-NW 298 0 min 0,000 mm 0,0 UV-I 0 W/m 8,0 C 11,9 C 1,6 km/h (1 Bft) 100,00 %
15.11.2015 17:09 11,9 C 77 % 1013,6 hPa 0,0 l/m 0,4 km/h (0 Bft) W-NW 298 0 min 0,000 mm 0,0 UV-I 0 W/m 8,0 C 11,9 C 1,6 km/h (1 Bft) 100,00 %
15.11.2015 17:10 11,8 C 77 % 1013,7 hPa 0,0 l/m 1,1 km/h (1 Bft) W-NW 298 0 min 0,000 mm 0,0 UV-I 0 W/m 7,9 C 11,8 C 3,2 km/h (1 Bft) 100,00 %
15.11.2015 17:11 11,8 C 78 % 1013,6 hPa 0,0 l/m 0,3 km/h (0 Bft) W-NW 298 0 min 0,000 mm 0,0 UV-I 0 W/m 8,1 C 11,8 C 1,6 km/h (1 Bft) 100,00 %
15.11.2015 17:12 11,8 C 78 % 1013,6 hPa 0,0 l/m 2,8 km/h (1 Bft) NW 311 0 min 0,000 mm 0,0 UV-I 0 W/m 8,1 C 11,8 C 4,8 km/h (1 Bft) 100,00 %
15.11.2015 17:13 11,7 C 78 % 1013,6 hPa 0,0 l/m 2,2 km/h (1 Bft) W-NW 293 0 min 0,000 mm 0,0 UV-I 0 W/m 8,0 C 11,7 C 4,8 km/h (1 Bft) 100,00 %
15.11.2015 17:14 11,7 C 78 % 1013,6 hPa 0,0 l/m 1,5 km/h (1 Bft) W-NW 293 0 min 0,000 mm 0,0 UV-I 0 W/m 8,0 C 11,7 C 3,2 km/h (1 Bft) 100,00 %
15.11.2015 17:15 11,7 C 78 % 1013,5 hPa 0,0 l/m 1,5 km/h (1 Bft) W-NW 293 0 min 0,000 mm 0,0 UV-I 0 W/m 8,0 C 11,7 C 3,2 km/h (1 Bft) 100,00 %
15.11.2015 17:16 11,7 C 78 % 1013,6 hPa 0,0 l/m 2,2 km/h (1 Bft) NW 316 0 min 0,000 mm 0,0 UV-I 0 W/m 8,0 C 11,7 C 3,2 km/h (1 Bft) 95,65 %
15.11.2015 17:17 11,7 C 78 % 1013,6 hPa 0,0 l/m 0,1 km/h (0 Bft) NW 316 0 min 0,000 mm 0,0 UV-I 0 W/m 8,0 C 11,7 C 1,6 km/h (1 Bft) 95,83 %
15.11.2015 17:18 11,6 C 79 % 1013,5 hPa 0,0 l/m 0,9 km/h (0 Bft) W 281 0 min 0,000 mm 0,0 UV-I 0 W/m 8,1 C 11,6 C 3,2 km/h (1 Bft) 100,00 %
15.11.2015 17:19 11,6 C 79 % 1013,5 hPa 0,0 l/m 2,3 km/h (1 Bft) W 267 0 min 0,000 mm 0,0 UV-I 0 W/m 8,1 C 11,6 C 3,2 km/h (1 Bft) 100,00 %
15.11.2015 17:20 11,6 C 79 % 1013,5 hPa 0,0 l/m 0,9 km/h (0 Bft) W-NW 294 0 min 0,000 mm 0,0 UV-I 0 W/m 8,1 C 11,6 C 3,2 km/h (1 Bft) 100,00 %
15.11.2015 17:21 11,6 C 79 % 1013,5 hPa 0,0 l/m 2,6 km/h (1 Bft) W-NW 288 0 min 0,000 mm 0,0 UV-I 0 W/m 8,1 C 11,6 C 4,8 km/h (1 Bft) 100,00 %
15.11.2015 17:22 11,5 C 79 % 1013,5 hPa 0,0 l/m 0,5 km/h (0 Bft) W-NW 288 0 min 0,000 mm 0,0 UV-I 0 W/m 8,0 C 11,5 C 1,6 km/h (1 Bft) 100,00 %
15.11.2015 17:23 11,4 C 80 % 1013,5 hPa 0,0 l/m 0,9 km/h (0 Bft) W-NW 288 0 min 0,000 mm 0,0 UV-I 0 W/m 8,1 C 11,4 C 3,2 km/h (1 Bft) 95,65 %
15.11.2015 17:24 11,4 C 79 % 1013,5 hPa 0,0 l/m 2,4 km/h (1 Bft) NW 320 0 min 0,000 mm 0,0 UV-I 0 W/m 7,9 C 11,4 C 4,8 km/h (1 Bft) 100,00 %
15.11.2015 17:25 11,4 C 80 % 1013,4 hPa 0,0 l/m 3,1 km/h (1 Bft) W-NW 302 0 min 0,000 mm 0,0 UV-I 0 W/m 8,1 C 11,4 C 4,8 km/h (1 Bft) 100,00 %
15.11.2015 17:26 11,4 C 79 % 1013,4 hPa 0,0 l/m 2,4 km/h (1 Bft) W-NW 293 0 min 0,000 mm 0,0 UV-I 0 W/m 7,9 C 11,4 C 4,8 km/h (1 Bft) 100,00 %
15.11.2015 17:27 11,4 C 80 % 1013,5 hPa 0,0 l/m 1,9 km/h (1 Bft) W-NW 293 0 min 0,000 mm 0,0 UV-I 0 W/m 8,1 C 11,4 C 3,2 km/h (1 Bft) 100,00 %
15.11.2015 17:28 11,4 C 80 % 1013,4 hPa 0,0 l/m 0,7 km/h (0 Bft) W-NW 293 0 min 0,000 mm 0,0 UV-I 0 W/m 8,1 C 11,4 C 1,6 km/h (1 Bft) 100,00 %
15.11.2015 17:29 11,4 C 79 % 1013,4 hPa 0,0 l/m 0,4 km/h (0 Bft) W-NW 293 0 min 0,000 mm 0,0 UV-I 0 W/m 7,9 C 11,4 C 1,6 km/h (1 Bft) 96,15 %
15.11.2015 17:30 11,4 C 79 % 1013,4 hPa 0,0 l/m 0,5 km/h (0 Bft) W-NW 293 0 min 0,000 mm 0,0 UV-I 0 W/m 7,9 C 11,4 C 1,6 km/h (1 Bft) 100,00 %
15.11.2015 17:31 11,3 C 80 % 1013,4 hPa 0,0 l/m 0,2 km/h (0 Bft) W-NW 293 0 min 0,000 mm 0,0 UV-I 0 W/m 8,0 C 11,3 C 1,6 km/h (1 Bft) 95,83 %
15.11.2015 17:32 11,3 C 80 % 1013,3 hPa 0,0 l/m 0,0 km/h (0 Bft) W-NW 293 0 min 0,000 mm 0,0 UV-I 0 W/m 8,0 C 11,3 C 0,0 km/h (0 Bft) 96,15 %
15.11.2015 17:33 11,3 C 80 % 1013,3 hPa 0,0 l/m 0,1 km/h (0 Bft) W-NW 293 0 min 0,000 mm 0,0 UV-I 0 W/m 8,0 C 11,3 C 1,6 km/h (1 Bft) 100,00 %
15.11.2015 17:34 11,3 C 80 % 1013,3 hPa 0,0 l/m 1,5 km/h (1 Bft) W-NW 293 0 min 0,000 mm 0,0 UV-I 0 W/m 8,0 C 11,3 C 3,2 km/h (1 Bft) 100,00 %
15.11.2015 17:35 11,3 C 80 % 1013,3 hPa 0,0 l/m 1,3 km/h (1 Bft) W-NW 293 0 min 0,000 mm 0,0 UV-I 0 W/m 8,0 C 11,3 C 1,6 km/h (1 Bft) 100,00 %
15.11.2015 17:36 11,3 C 79 % 1013,2 hPa 0,0 l/m 1,6 km/h (1 Bft) W-NW 292 0 min 0,000 mm 0,0 UV-I 0 W/m 7,8 C 11,3 C 3,2 km/h (1 Bft) 100,00 %
15.11.2015 17:37 11,4 C 79 % 1013,3 hPa 0,0 l/m 2,5 km/h (1 Bft) W-NW 282 0 min 0,000 mm 0,0 UV-I 0 W/m 7,9 C 11,4 C 4,8 km/h (1 Bft) 100,00 %
15.11.2015 17:38 11,4 C 79 % 1013,2 hPa 0,0 l/m 1,7 km/h (1 Bft) W 272 0 min 0,000 mm 0,0 UV-I 0 W/m 7,9 C 11,4 C 3,2 km/h (1 Bft) 100,00 %
15.11.2015 17:39 11,4 C 79 % 1013,2 hPa 0,0 l/m 1,4 km/h (1 Bft) W 272 0 min 0,000 mm 0,0 UV-I 0 W/m 7,9 C 11,4 C 3,2 km/h (1 Bft) 100,00 %
15.11.2015 17:40 11,4 C 79 % 1013,2 hPa 0,0 l/m 1,3 km/h (1 Bft) W 272 0 min 0,000 mm 0,0 UV-I 0 W/m 7,9 C 11,4 C 3,2 km/h (1 Bft) 100,00 %
15.11.2015 17:41 11,4 C 79 % 1013,2 hPa 0,0 l/m 0,8 km/h (0 Bft) W 272 0 min 0,000 mm 0,0 UV-I 0 W/m 7,9 C 11,4 C 1,6 km/h (1 Bft) 91,67 %
15.11.2015 17:42 11,3 C 79 % 1013,2 hPa 0,0 l/m 0,1 km/h (0 Bft) W 272 0 min 0,000 mm 0,0 UV-I 0 W/m 7,8 C 11,3 C 1,6 km/h (1 Bft) 100,00 %
15.11.2015 17:43 11,3 C 79 % 1013,2 hPa 0,0 l/m 1,0 km/h (0 Bft) W 272 0 min 0,000 mm 0,0 UV-I 0 W/m 7,8 C 11,3 C 1,6 km/h (1 Bft) 100,00 %
15.11.2015 17:44 11,3 C 79 % 1013,2 hPa 0,0 l/m 1,7 km/h (1 Bft) W 272 0 min 0,000 mm 0,0 UV-I 0 W/m 7,8 C 11,3 C 3,2 km/h (1 Bft) 100,00 %
15.11.2015 17:45 11,3 C 79 % 1013,1 hPa 0,0 l/m 3,1 km/h (1 Bft) S 187 0 min 0,000 mm 0,0 UV-I 0 W/m 7,8 C 11,3 C 4,8 km/h (1 Bft) 100,00 %
15.11.2015 17:46 11,3 C 80 % 1013,0 hPa 0,0 l/m 1,7 km/h (1 Bft) S 186 0 min 0,000 mm 0,0 UV-I 0 W/m 8,0 C 11,3 C 3,2 km/h (1 Bft) 100,00 %
15.11.2015 17:47 11,3 C 80 % 1013,1 hPa 0,0 l/m 0,6 km/h (0 Bft) S 186 0 min 0,000 mm 0,0 UV-I 0 W/m 8,0 C 11,3 C 1,6 km/h (1 Bft) 100,00 %
15.11.2015 17:48 11,3 C 80 % 1013,1 hPa 0,0 l/m 0,7 km/h (0 Bft) S 186 0 min 0,000 mm 0,0 UV-I 0 W/m 8,0 C 11,3 C 1,6 km/h (1 Bft) 100,00 %
15.11.2015 17:49 11,2 C 80 % 1013,2 hPa 0,0 l/m 1,7 km/h (1 Bft) SW 217 0 min 0,000 mm 0,0 UV-I 0 W/m 7,9 C 11,2 C 3,2 km/h (1 Bft) 100,00 %
15.11.2015 17:50 11,2 C 80 % 1013,3 hPa 0,0 l/m 1,9 km/h (1 Bft) W-SW 252 0 min 0,000 mm 0,0 UV-I 0 W/m 7,9 C 11,2 C 3,2 km/h (1 Bft) 100,00 %
15.11.2015 17:51 11,2 C 80 % 1013,2 hPa 0,0 l/m 1,5 km/h (1 Bft) W-SW 252 0 min 0,000 mm 0,0 UV-I 0 W/m 7,9 C 11,2 C 1,6 km/h (1 Bft) 96,55 %
15.11.2015 17:52 11,2 C 80 % 1013,2 hPa 0,0 l/m 0,7 km/h (0 Bft) W-SW 252 0 min 0,000 mm 0,0 UV-I 0 W/m 7,9 C 11,2 C 1,6 km/h (1 Bft) 100,00 %
15.11.2015 17:53 11,2 C 81 % 1013,3 hPa 0,0 l/m 1,1 km/h (1 Bft) W-SW 252 0 min 0,000 mm 0,0 UV-I 0 W/m 8,1 C 11,2 C 3,2 km/h (1 Bft) 100,00 %
15.11.2015 17:54 11,1 C 81 % 1013,3 hPa 0,0 l/m 1,1 km/h (1 Bft) W-SW 252 0 min 0,000 mm 0,0 UV-I 0 W/m 8,0 C 11,1 C 3,2 km/h (1 Bft) 95,83 %
15.11.2015 17:55 11,1 C 81 % 1013,3 hPa 0,0 l/m 0,0 km/h (0 Bft) W-SW 252 0 min 0,000 mm 0,0 UV-I 0 W/m 8,0 C 11,1 C 0,0 km/h (0 Bft) 100,00 %
15.11.2015 17:56 11,1 C 81 % 1013,3 hPa 0,0 l/m 0,0 km/h (0 Bft) W-SW 252 0 min 0,000 mm 0,0 UV-I 0 W/m 8,0 C 11,1 C 0,0 km/h (0 Bft) 100,00 %
15.11.2015 17:57 11,0 C 81 % 1013,3 hPa 0,0 l/m 0,0 km/h (0 Bft) W-SW 252 0 min 0,000 mm 0,0 UV-I 0 W/m 7,9 C 11,0 C 0,0 km/h (0 Bft) 100,00 %
15.11.2015 17:58 10,9 C 81 % 1013,3 hPa 0,0 l/m 0,1 km/h (0 Bft) W-SW 252 0 min 0,000 mm 0,0 UV-I 0 W/m 7,8 C 10,9 C 1,6 km/h (1 Bft) 100,00 %
15.11.2015 17:59 10,9 C 81 % 1013,3 hPa 0,0 l/m 0,1 km/h (0 Bft) W-SW 252 0 min 0,000 mm 0,0 UV-I 0 W/m 7,8 C 10,9 C 1,6 km/h (1 Bft) 100,00 %
15.11.2015 18:00 10,9 C 82 % 1013,3 hPa 0,0 l/m 0,0 km/h (0 Bft) W-SW 252 0 min 0,000 mm 0,0 UV-I 0 W/m 7,9 C 10,9 C 0,0 km/h (0 Bft) 100,00 %
15.11.2015 18:01 10,8 C 82 % 1013,3 hPa 0,0 l/m 0,0 km/h (0 Bft) W-SW 252 0 min 0,000 mm 0,0 UV-I 0 W/m 7,9 C 10,8 C 0,0 km/h (0 Bft) 100,00 %
15.11.2015 18:02 10,8 C 82 % 1013,3 hPa 0,0 l/m 0,5 km/h (0 Bft) W-SW 252 0 min 0,000 mm 0,0 UV-I 0 W/m 7,9 C 10,8 C 1,6 km/h (1 Bft) 100,00 %
15.11.2015 18:03 10,7 C 83 % 1013,3 hPa 0,0 l/m 1,7 km/h (1 Bft) W-SW 249 0 min 0,000 mm 0,0 UV-I 0 W/m 7,9 C 10,7 C 3,2 km/h (1 Bft) 100,00 %
15.11.2015 18:04 10,7 C 83 % 1013,3 hPa 0,0 l/m 2,1 km/h (1 Bft) S-SW 204 0 min 0,000 mm 0,0 UV-I 0 W/m 7,9 C 10,7 C 3,2 km/h (1 Bft) 100,00 %
15.11.2015 18:05 10,7 C 82 % 1013,2 hPa 0,0 l/m 1,4 km/h (1 Bft) S-SW 204 0 min 0,000 mm 0,0 UV-I 0 W/m 7,8 C 10,7 C 3,2 km/h (1 Bft) 100,00 %
15.11.2015 18:06 10,7 C 82 % 1013,1 hPa 0,0 l/m 1,2 km/h (1 Bft) S-SW 204 0 min 0,000 mm 0,0 UV-I 0 W/m 7,8 C 10,7 C 3,2 km/h (1 Bft) 95,83 %
15.11.2015 18:07 10,7 C 82 % 1013,2 hPa 0,0 l/m 2,0 km/h (1 Bft) S 183 0 min 0,000 mm 0,0 UV-I 0 W/m 7,8 C 10,7 C 3,2 km/h (1 Bft) 100,00 %
15.11.2015 18:08 10,7 C 83 % 1013,1 hPa 0,0 l/m 1,1 km/h (1 Bft) S 182 0 min 0,000 mm 0,0 UV-I 0 W/m 7,9 C 10,7 C 3,2 km/h (1 Bft) 100,00 %
15.11.2015 18:09 10,7 C 83 % 1013,1 hPa 0,0 l/m 0,1 km/h (0 Bft) S 182 0 min 0,000 mm 0,0 UV-I 0 W/m 7,9 C 10,7 C 1,6 km/h (1 Bft) 100,00 %
15.11.2015 18:10 10,6 C 83 % 1013,3 hPa 0,0 l/m 0,0 km/h (0 Bft) S 182 0 min 0,000 mm 0,0 UV-I 0 W/m 7,8 C 10,6 C 0,0 km/h (0 Bft) 100,00 %
15.11.2015 18:11 10,6 C 83 % 1013,3 hPa 0,0 l/m 0,0 km/h (0 Bft) S 182 0 min 0,000 mm 0,0 UV-I 0 W/m 7,8 C 10,6 C 0,0 km/h (0 Bft) 95,83 %
15.11.2015 18:12 10,6 C 84 % 1013,3 hPa 0,0 l/m 0,1 km/h (0 Bft) S 182 0 min 0,000 mm 0,0 UV-I 0 W/m 8,0 C 10,6 C 1,6 km/h (1 Bft) 91,30 %
15.11.2015 18:13 10,5 C 84 % 1013,2 hPa 0,0 l/m 0,0 km/h (0 Bft) S 182 0 min 0,000 mm 0,0 UV-I 0 W/m 7,9 C 10,5 C 0,0 km/h (0 Bft) 100,00 %
15.11.2015 18:14 10,5 C 84 % 1013,3 hPa 0,0 l/m 0,0 km/h (0 Bft) S 182 0 min 0,000 mm 0,0 UV-I 0 W/m 7,9 C 10,5 C 0,0 km/h (0 Bft) 95,65 %
15.11.2015 18:15 10,4 C 84 % 1013,3 hPa 0,0 l/m 0,1 km/h (0 Bft) S 182 0 min 0,000 mm 0,0 UV-I 0 W/m 7,8 C 10,4 C 1,6 km/h (1 Bft) 95,83 %
15.11.2015 18:16 10,4 C 84 % 1013,3 hPa 0,0 l/m 1,0 km/h (0 Bft) S 184 0 min 0,000 mm 0,0 UV-I 0 W/m 7,8 C 10,4 C 3,2 km/h (1 Bft) 95,65 %
15.11.2015 18:17 10,4 C 84 % 1013,4 hPa 0,0 l/m 0,5 km/h (0 Bft) S 184 0 min 0,000 mm 0,0 UV-I 0 W/m 7,8 C 10,4 C 1,6 km/h (1 Bft) 100,00 %
15.11.2015 18:18 10,4 C 84 % 1013,4 hPa 0,0 l/m 0,0 km/h (0 Bft) S 184 0 min 0,000 mm 0,0 UV-I 0 W/m 7,8 C 10,4 C 0,0 km/h (0 Bft) 100,00 %
15.11.2015 18:19 10,3 C 84 % 1013,4 hPa 0,0 l/m 0,0 km/h (0 Bft) S 184 0 min 0,000 mm 0,0 UV-I 0 W/m 7,7 C 10,3 C 0,0 km/h (0 Bft) 100,00 %
15.11.2015 18:20 10,3 C 84 % 1013,5 hPa 0,0 l/m 0,0 km/h (0 Bft) S 184 0 min 0,000 mm 0,0 UV-I 0 W/m 7,7 C 10,3 C 0,0 km/h (0 Bft) 100,00 %
15.11.2015 18:21 10,3 C 84 % 1013,4 hPa 0,0 l/m 0,8 km/h (0 Bft) S 184 0 min 0,000 mm 0,0 UV-I 0 W/m 7,7 C 10,3 C 1,6 km/h (1 Bft) 100,00 %
15.11.2015 18:22 10,3 C 85 % 1013,4 hPa 0,0 l/m 0,3 km/h (0 Bft) S 184 0 min 0,000 mm 0,0 UV-I 0 W/m 7,9 C 10,3 C 1,6 km/h (1 Bft) 100,00 %
15.11.2015 18:23 10,3 C 84 % 1013,5 hPa 0,0 l/m 0,3 km/h (0 Bft) S 184 0 min 0,000 mm 0,0 UV-I 0 W/m 7,7 C 10,3 C 1,6 km/h (1 Bft) 100,00 %
15.11.2015 18:24 10,3 C 84 % 1013,4 hPa 0,0 l/m 0,6 km/h (0 Bft) S 184 0 min 0,000 mm 0,0 UV-I 0 W/m 7,7 C 10,3 C 1,6 km/h (1 Bft) 100,00 %
15.11.2015 18:25 10,3 C 85 % 1013,4 hPa 0,0 l/m 0,0 km/h (0 Bft) S 184 0 min 0,000 mm 0,0 UV-I 0 W/m 7,9 C 10,3 C 0,0 km/h (0 Bft) 100,00 %
15.11.2015 18:26 10,3 C 85 % 1013,4 hPa 0,0 l/m 0,4 km/h (0 Bft) S 184 0 min 0,000 mm 0,0 UV-I 0 W/m 7,9 C 10,3 C 1,6 km/h (1 Bft) 100,00 %
15.11.2015 18:27 10,3 C 85 % 1013,3 hPa 0,0 l/m 0,0 km/h (0 Bft) S 184 0 min 0,000 mm 0,0 UV-I 0 W/m 7,9 C 10,3 C 0,0 km/h (0 Bft) 100,00 %
15.11.2015 18:28 10,3 C 84 % 1013,4 hPa 0,0 l/m 0,0 km/h (0 Bft) S 184 0 min 0,000 mm 0,0 UV-I 0 W/m 7,7 C 10,3 C 0,0 km/h (0 Bft) 100,00 %
15.11.2015 18:29 10,4 C 84 % 1013,4 hPa 0,0 l/m 0,0 km/h (0 Bft) S 184 0 min 0,000 mm 0,0 UV-I 0 W/m 7,8 C 10,4 C 0,0 km/h (0 Bft) 100,00 %
15.11.2015 18:30 10,4 C 84 % 1013,3 hPa 0,0 l/m 0,0 km/h (0 Bft) S 184 0 min 0,000 mm 0,0 UV-I 0 W/m 7,8 C 10,4 C 0,0 km/h (0 Bft) 100,00 %
15.11.2015 18:31 10,5 C 84 % 1013,3 hPa 0,0 l/m 0,0 km/h (0 Bft) S 184 0 min 0,000 mm 0,0 UV-I 0 W/m 7,9 C 10,5 C 0,0 km/h (0 Bft) 100,00 %
15.11.2015 18:32 10,5 C 84 % 1013,3 hPa 0,0 l/m 0,0 km/h (0 Bft) S 184 0 min 0,000 mm 0,0 UV-I 0 W/m 7,9 C 10,5 C 0,0 km/h (0 Bft) 100,00 %
15.11.2015 18:33 10,4 C 83 % 1013,4 hPa 0,0 l/m 0,1 km/h (0 Bft) S 184 0 min 0,000 mm 0,0 UV-I 0 W/m 7,6 C 10,4 C 1,6 km/h (1 Bft) 100,00 %
15.11.2015 18:34 10,4 C 84 % 1013,3 hPa 0,0 l/m 0,9 km/h (0 Bft) S 184 0 min 0,000 mm 0,0 UV-I 0 W/m 7,8 C 10,4 C 3,2 km/h (1 Bft) 100,00 %
15.11.2015 18:35 10,4 C 84 % 1013,4 hPa 0,0 l/m 1,1 km/h (1 Bft) NW 308 0 min 0,000 mm 0,0 UV-I 0 W/m 7,8 C 10,4 C 3,2 km/h (1 Bft) 100,00 %
15.11.2015 18:36 10,4 C 84 % 1013,4 hPa 0,0 l/m 1,4 km/h (1 Bft) N-NW 342 0 min 0,000 mm 0,0 UV-I 0 W/m 7,8 C 10,4 C 3,2 km/h (1 Bft) 100,00 %
15.11.2015 18:37 10,3 C 85 % 1013,5 hPa 0,0 l/m 0,4 km/h (0 Bft) N-NW 342 0 min 0,000 mm 0,0 UV-I 0 W/m 7,9 C 10,3 C 1,6 km/h (1 Bft) 100,00 %
15.11.2015 18:38 10,2 C 85 % 1013,4 hPa 0,0 l/m 0,3 km/h (0 Bft) N-NW 342 0 min 0,000 mm 0,0 UV-I 0 W/m 7,8 C 10,2 C 1,6 km/h (1 Bft) 100,00 %
15.11.2015 18:39 10,2 C 85 % 1013,5 hPa 0,0 l/m 0,1 km/h (0 Bft) N-NW 342 0 min 0,000 mm 0,0 UV-I 0 W/m 7,8 C 10,2 C 1,6 km/h (1 Bft) 100,00 %
15.11.2015 18:40 10,1 C 85 % 1013,5 hPa 0,0 l/m 0,1 km/h (0 Bft) N-NW 342 0 min 0,000 mm 0,0 UV-I 0 W/m 7,7 C 10,1 C 1,6 km/h (1 Bft) 100,00 %
15.11.2015 18:41 10,1 C 86 % 1013,5 hPa 0,0 l/m 0,0 km/h (0 Bft) N-NW 342 0 min 0,000 mm 0,0 UV-I 0 W/m 7,9 C 10,1 C 0,0 km/h (0 Bft) 100,00 %
15.11.2015 18:42 10,1 C 86 % 1013,4 hPa 0,0 l/m 0,0 km/h (0 Bft) N-NW 342 0 min 0,000 mm 0,0 UV-I 0 W/m 7,9 C 10,1 C 0,0 km/h (0 Bft) 100,00 %
15.11.2015 18:43 10,1 C 86 % 1013,5 hPa 0,0 l/m 0,0 km/h (0 Bft) N-NW 342 0 min 0,000 mm 0,0 UV-I 0 W/m 7,9 C 10,1 C 0,0 km/h (0 Bft) 100,00 %
15.11.2015 18:44 10,1 C 85 % 1013,5 hPa 0,0 l/m 0,0 km/h (0 Bft) N-NW 342 0 min 0,000 mm 0,0 UV-I 0 W/m 7,7 C 10,1 C 0,0 km/h (0 Bft) 100,00 %
15.11.2015 18:45 10,2 C 86 % 1013,5 hPa 0,0 l/m 0,0 km/h (0 Bft) N-NW 342 0 min 0,000 mm 0,0 UV-I 0 W/m 8,0 C 10,2 C 0,0 km/h (0 Bft) 100,00 %
15.11.2015 18:46 10,2 C 85 % 1013,4 hPa 0,0 l/m 0,1 km/h (0 Bft) N-NW 342 0 min 0,000 mm 0,0 UV-I 0 W/m 7,8 C 10,2 C 1,6 km/h (1 Bft) 100,00 %
15.11.2015 18:47 10,2 C 85 % 1013,4 hPa 0,0 l/m 0,3 km/h (0 Bft) N-NW 342 0 min 0,000 mm 0,0 UV-I 0 W/m 7,8 C 10,2 C 1,6 km/h (1 Bft) 96,15 %
15.11.2015 18:48 10,2 C 85 % 1013,6 hPa 0,0 l/m 1,7 km/h (1 Bft) N-NW 342 0 min 0,000 mm 0,0 UV-I 0 W/m 7,8 C 10,2 C 3,2 km/h (1 Bft) 95,83 %
15.11.2015 18:49 10,2 C 85 % 1013,5 hPa 0,0 l/m 0,5 km/h (0 Bft) N-NW 342 0 min 0,000 mm 0,0 UV-I 0 W/m 7,8 C 10,2 C 1,6 km/h (1 Bft) 95,83 %
15.11.2015 18:50 10,3 C 85 % 1013,6 hPa 0,0 l/m 0,2 km/h (0 Bft) N-NW 342 0 min 0,000 mm 0,0 UV-I 0 W/m 7,9 C 10,3 C 1,6 km/h (1 Bft) 100,00 %
15.11.2015 18:51 10,2 C 85 % 1013,6 hPa 0,0 l/m 1,1 km/h (1 Bft) N-NW 342 0 min 0,000 mm 0,0 UV-I 0 W/m 7,8 C 10,2 C 3,2 km/h (1 Bft) 100,00 %
15.11.2015 18:52 10,2 C 85 % 1013,5 hPa 0,0 l/m 0,2 km/h (0 Bft) N-NW 342 0 min 0,000 mm 0,0 UV-I 0 W/m 7,8 C 10,2 C 1,6 km/h (1 Bft) 100,00 %
15.11.2015 18:53 10,2 C 85 % 1013,4 hPa 0,0 l/m 0,6 km/h (0 Bft) N-NW 342 0 min 0,000 mm 0,0 UV-I 0 W/m 7,8 C 10,2 C 1,6 km/h (1 Bft) 100,00 %
15.11.2015 18:54 10,2 C 85 % 1013,6 hPa 0,0 l/m 1,5 km/h (1 Bft) N 350 0 min 0,000 mm 0,0 UV-I 0 W/m 7,8 C 10,2 C 3,2 km/h (1 Bft) 100,00 %
15.11.2015 18:55 10,2 C 85 % 1013,6 hPa 0,0 l/m 2,4 km/h (1 Bft) N-NO 22 0 min 0,000 mm 0,0 UV-I 0 W/m 7,8 C 10,2 C 3,2 km/h (1 Bft) 100,00 %
15.11.2015 18:56 10,2 C 85 % 1013,6 hPa 0,0 l/m 2,8 km/h (1 Bft) N 9 0 min 0,000 mm 0,0 UV-I 0 W/m 7,8 C 10,2 C 4,8 km/h (1 Bft) 100,00 %
15.11.2015 18:57 10,2 C 85 % 1013,6 hPa 0,0 l/m 3,3 km/h (1 Bft) N-NW 338 0 min 0,000 mm 0,0 UV-I 0 W/m 7,8 C 10,2 C 4,8 km/h (1 Bft) 100,00 %
15.11.2015 18:58 10,2 C 85 % 1013,5 hPa 0,0 l/m 0,3 km/h (0 Bft) N-NW 338 0 min 0,000 mm 0,0 UV-I 0 W/m 7,8 C 10,2 C 1,6 km/h (1 Bft) 100,00 %
15.11.2015 18:59 10,3 C 85 % 1013,6 hPa 0,0 l/m 1,3 km/h (1 Bft) N-NO 12 0 min 0,000 mm 0,0 UV-I 0 W/m 7,9 C 10,3 C 3,2 km/h (1 Bft) 91,67 %
15.11.2015 19:00 10,3 C 85 % 1013,6 hPa 0,0 l/m 2,1 km/h (1 Bft) N 9 0 min 0,000 mm 0,0 UV-I 0 W/m 7,9 C 10,3 C 3,2 km/h (1 Bft) 100,00 %
15.11.2015 19:01 10,4 C 85 % 1013,7 hPa 0,0 l/m 1,5 km/h (1 Bft) N 355 0 min 0,000 mm 0,0 UV-I 0 W/m 8,0 C 10,4 C 3,2 km/h (1 Bft) 100,00 %
15.11.2015 19:02 10,4 C 85 % 1013,6 hPa 0,0 l/m 3,0 km/h (1 Bft) N-NW 333 0 min 0,000 mm 0,0 UV-I 0 W/m 8,0 C 10,4 C 4,8 km/h (1 Bft) 100,00 %
15.11.2015 19:03 10,4 C 85 % 1013,7 hPa 0,0 l/m 0,9 km/h (0 Bft) N-NW 336 0 min 0,000 mm 0,0 UV-I 0 W/m 8,0 C 10,4 C 3,2 km/h (1 Bft) 100,00 %
15.11.2015 19:04 10,3 C 85 % 1013,7 hPa 0,0 l/m 0,2 km/h (0 Bft) N-NW 336 0 min 0,000 mm 0,0 UV-I 0 W/m 7,9 C 10,3 C 1,6 km/h (1 Bft) 100,00 %
15.11.2015 19:05 10,3 C 85 % 1013,7 hPa 0,0 l/m 0,0 km/h (0 Bft) N-NW 336 0 min 0,000 mm 0,0 UV-I 0 W/m 7,9 C 10,3 C 0,0 km/h (0 Bft) 100,00 %
15.11.2015 19:06 10,3 C 85 % 1013,7 hPa 0,0 l/m 0,4 km/h (0 Bft) N-NW 336 0 min 0,000 mm 0,0 UV-I 0 W/m 7,9 C 10,3 C 1,6 km/h (1 Bft) 100,00 %
15.11.2015 19:07 10,3 C 85 % 1013,7 hPa 0,0 l/m 0,0 km/h (0 Bft) N-NW 336 0 min 0,000 mm 0,0 UV-I 0 W/m 7,9 C 10,3 C 0,0 km/h (0 Bft) 100,00 %
15.11.2015 19:08 10,3 C 85 % 1013,7 hPa 0,0 l/m 0,2 km/h (0 Bft) N-NW 336 0 min 0,000 mm 0,0 UV-I 0 W/m 7,9 C 10,3 C 1,6 km/h (1 Bft) 100,00 %
15.11.2015 19:09 10,4 C 85 % 1013,7 hPa 0,0 l/m 0,0 km/h (0 Bft) N-NW 336 0 min 0,000 mm 0,0 UV-I 0 W/m 8,0 C 10,4 C 0,0 km/h (0 Bft) 100,00 %
15.11.2015 19:10 10,3 C 84 % 1013,7 hPa 0,0 l/m 0,3 km/h (0 Bft) N-NW 336 0 min 0,000 mm 0,0 UV-I 0 W/m 7,7 C 10,3 C 1,6 km/h (1 Bft) 100,00 %
15.11.2015 19:11 10,3 C 85 % 1013,7 hPa 0,0 l/m 0,8 km/h (0 Bft) N-NW 336 0 min 0,000 mm 0,0 UV-I 0 W/m 7,9 C 10,3 C 1,6 km/h (1 Bft) 100,00 %
15.11.2015 19:12 10,3 C 85 % 1013,7 hPa 0,0 l/m 0,5 km/h (0 Bft) N-NW 336 0 min 0,000 mm 0,0 UV-I 0 W/m 7,9 C 10,3 C 1,6 km/h (1 Bft) 100,00 %
15.11.2015 19:13 10,2 C 85 % 1013,6 hPa 0,0 l/m 1,8 km/h (1 Bft) W 278 0 min 0,000 mm 0,0 UV-I 0 W/m 7,8 C 10,2 C 3,2 km/h (1 Bft) 100,00 %
15.11.2015 19:14 10,2 C 85 % 1013,6 hPa 0,0 l/m 0,3 km/h (0 Bft) W 278 0 min 0,000 mm 0,0 UV-I 0 W/m 7,8 C 10,2 C 1,6 km/h (1 Bft) 100,00 %
15.11.2015 19:15 10,1 C 86 % 1013,6 hPa 0,0 l/m 0,4 km/h (0 Bft) W 278 0 min 0,000 mm 0,0 UV-I 0 W/m 7,9 C 10,1 C 1,6 km/h (1 Bft) 95,65 %
15.11.2015 19:16 10,0 C 86 % 1013,5 hPa 0,0 l/m 0,1 km/h (0 Bft) W 278 0 min 0,000 mm 0,0 UV-I 0 W/m 7,8 C 10,0 C 1,6 km/h (1 Bft) 100,00 %
15.11.2015 19:17 9,9 C 86 % 1013,6 hPa 0,0 l/m 0,1 km/h (0 Bft) W 278 0 min 0,000 mm 0,0 UV-I 0 W/m 7,7 C 9,9 C 1,6 km/h (1 Bft) 100,00 %
15.11.2015 19:18 9,9 C 87 % 1013,7 hPa 0,0 l/m 0,2 km/h (0 Bft) W 278 0 min 0,000 mm 0,0 UV-I 0 W/m 7,8 C 9,9 C 1,6 km/h (1 Bft) 100,00 %
15.11.2015 19:19 9,8 C 87 % 1013,8 hPa 0,0 l/m 0,2 km/h (0 Bft) W 278 0 min 0,000 mm 0,0 UV-I 0 W/m 7,7 C 9,8 C 1,6 km/h (1 Bft) 100,00 %
15.11.2015 19:20 9,8 C 87 % 1013,7 hPa 0,0 l/m 0,1 km/h (0 Bft) W 278 0 min 0,000 mm 0,0 UV-I 0 W/m 7,7 C 9,8 C 1,6 km/h (1 Bft) 100,00 %
15.11.2015 19:21 9,8 C 87 % 1013,6 hPa 0,0 l/m 0,7 km/h (0 Bft) W-NW 300 0 min 0,000 mm 0,0 UV-I 0 W/m 7,7 C 9,8 C 1,6 km/h (1 Bft) 100,00 %
15.11.2015 19:22 9,8 C 87 % 1013,6 hPa 0,0 l/m 0,9 km/h (0 Bft) W-NW 300 0 min 0,000 mm 0,0 UV-I 0 W/m 7,7 C 9,8 C 1,6 km/h (1 Bft) 100,00 %
15.11.2015 19:23 9,8 C 87 % 1013,6 hPa 0,0 l/m 1,5 km/h (1 Bft) W-NW 299 0 min 0,000 mm 0,0 UV-I 0 W/m 7,7 C 9,8 C 3,2 km/h (1 Bft) 100,00 %
15.11.2015 19:24 9,9 C 86 % 1013,6 hPa 0,0 l/m 2,5 km/h (1 Bft) W-NW 282 0 min 0,000 mm 0,0 UV-I 0 W/m 7,7 C 9,9 C 4,8 km/h (1 Bft) 100,00 %
15.11.2015 19:25 10,1 C 86 % 1013,6 hPa 0,0 l/m 2,7 km/h (1 Bft) W-NW 288 0 min 0,000 mm 0,0 UV-I 0 W/m 7,9 C 10,1 C 4,8 km/h (1 Bft) 100,00 %
15.11.2015 19:26 10,2 C 85 % 1013,6 hPa 0,0 l/m 1,8 km/h (1 Bft) W-NW 289 0 min 0,000 mm 0,0 UV-I 0 W/m 7,8 C 10,2 C 3,2 km/h (1 Bft) 100,00 %
15.11.2015 19:27 10,3 C 85 % 1013,7 hPa 0,0 l/m 1,7 km/h (1 Bft) W-NW 298 0 min 0,000 mm 0,0 UV-I 0 W/m 7,9 C 10,3 C 3,2 km/h (1 Bft) 100,00 %
15.11.2015 19:28 10,3 C 85 % 1013,7 hPa 0,0 l/m 1,1 km/h (1 Bft) W-NW 298 0 min 0,000 mm 0,0 UV-I 0 W/m 7,9 C 10,3 C 1,6 km/h (1 Bft) 100,00 %
15.11.2015 19:29 10,4 C 85 % 1013,7 hPa 0,0 l/m 2,0 km/h (1 Bft) W-NW 288 0 min 0,000 mm 0,0 UV-I 0 W/m 8,0 C 10,4 C 4,8 km/h (1 Bft) 100,00 %
15.11.2015 19:30 10,4 C 84 % 1013,7 hPa 0,0 l/m 2,4 km/h (1 Bft) W-NW 288 0 min 0,000 mm 0,0 UV-I 0 W/m 7,8 C 10,4 C 4,8 km/h (1 Bft) 100,00 %
15.11.2015 19:31 10,5 C 84 % 1013,7 hPa 0,0 l/m 2,1 km/h (1 Bft) W-NW 288 0 min 0,000 mm 0,0 UV-I 0 W/m 7,9 C 10,5 C 3,2 km/h (1 Bft) 100,00 %
15.11.2015 19:32 10,5 C 84 % 1013,6 hPa 0,0 l/m 2,9 km/h (1 Bft) W-NW 285 0 min 0,000 mm 0,0 UV-I 0 W/m 7,9 C 10,5 C 4,8 km/h (1 Bft) 100,00 %
15.11.2015 19:33 10,6 C 84 % 1013,7 hPa 0,0 l/m 1,8 km/h (1 Bft) W-NW 286 0 min 0,000 mm 0,0 UV-I 0 W/m 8,0 C 10,6 C 4,8 km/h (1 Bft) 100,00 %
15.11.2015 19:34 10,6 C 84 % 1013,6 hPa 0,0 l/m 2,4 km/h (1 Bft) W-NW 284 0 min 0,000 mm 0,0 UV-I 0 W/m 8,0 C 10,6 C 4,8 km/h (1 Bft) 95,65 %
15.11.2015 19:35 10,6 C 84 % 1013,7 hPa 0,0 l/m 3,3 km/h (1 Bft) W 270 0 min 0,000 mm 0,0 UV-I 0 W/m 8,0 C 10,6 C 4,8 km/h (1 Bft) 100,00 %
15.11.2015 19:36 10,7 C 83 % 1013,7 hPa 0,0 l/m 3,1 km/h (1 Bft) W-NW 295 0 min 0,000 mm 0,0 UV-I 0 W/m 7,9 C 10,7 C 4,8 km/h (1 Bft) 100,00 %
15.11.2015 19:37 10,8 C 82 % 1013,6 hPa 0,0 l/m 3,7 km/h (1 Bft) W 277 0 min 0,000 mm 0,0 UV-I 0 W/m 7,9 C 10,8 C 4,8 km/h (1 Bft) 100,00 %
15.11.2015 19:38 10,9 C 82 % 1013,6 hPa 0,0 l/m 3,6 km/h (1 Bft) W-NW 284 0 min 0,000 mm 0,0 UV-I 0 W/m 7,9 C 10,9 C 4,8 km/h (1 Bft) 100,00 %
15.11.2015 19:39 11,0 C 82 % 1013,7 hPa 0,0 l/m 3,5 km/h (1 Bft) W-NW 293 0 min 0,000 mm 0,0 UV-I 0 W/m 8,0 C 11,0 C 6,4 km/h (2 Bft) 100,00 %
15.11.2015 19:40 11,1 C 81 % 1013,7 hPa 0,0 l/m 4,6 km/h (1 Bft) W 271 0 min 0,000 mm 0,0 UV-I 0 W/m 8,0 C 11,1 C 8,0 km/h (2 Bft) 100,00 %
15.11.2015 19:41 11,2 C 81 % 1013,6 hPa 0,0 l/m 3,7 km/h (1 Bft) W 267 0 min 0,000 mm 0,0 UV-I 0 W/m 8,1 C 11,2 C 4,8 km/h (1 Bft) 100,00 %
15.11.2015 19:42 11,3 C 80 % 1013,6 hPa 0,0 l/m 2,9 km/h (1 Bft) W-SW 239 0 min 0,000 mm 0,0 UV-I 0 W/m 8,0 C 11,3 C 3,2 km/h (1 Bft) 100,00 %
15.11.2015 19:43 11,4 C 79 % 1013,6 hPa 0,0 l/m 3,2 km/h (1 Bft) W-NW 282 0 min 0,000 mm 0,0 UV-I 0 W/m 7,9 C 11,4 C 4,8 km/h (1 Bft) 96,55 %
15.11.2015 19:44 11,5 C 79 % 1013,6 hPa 0,0 l/m 3,9 km/h (1 Bft) W 277 0 min 0,000 mm 0,0 UV-I 0 W/m 8,0 C 11,5 C 6,4 km/h (2 Bft) 100,00 %
15.11.2015 19:45 11,6 C 79 % 1013,7 hPa 0,0 l/m 3,6 km/h (1 Bft) W-NW 285 0 min 0,000 mm 0,0 UV-I 0 W/m 8,1 C 11,6 C 4,8 km/h (1 Bft) 100,00 %
15.11.2015 19:46 11,6 C 79 % 1013,6 hPa 0,0 l/m 2,9 km/h (1 Bft) W 270 0 min 0,000 mm 0,0 UV-I 0 W/m 8,1 C 11,6 C 4,8 km/h (1 Bft) 100,00 %
15.11.2015 19:47 11,7 C 79 % 1013,7 hPa 0,0 l/m 4,0 km/h (1 Bft) W 275 0 min 0,000 mm 0,0 UV-I 0 W/m 8,2 C 11,7 C 6,4 km/h (2 Bft) 100,00 %
15.11.2015 19:48 11,7 C 78 % 1013,7 hPa 0,0 l/m 5,1 km/h (1 Bft) W 280 0 min 0,000 mm 0,0 UV-I 0 W/m 8,0 C 11,7 C 9,7 km/h (2 Bft) 100,00 %
15.11.2015 19:49 11,8 C 77 % 1013,7 hPa 0,0 l/m 5,5 km/h (1 Bft) W 277 0 min 0,000 mm 0,0 UV-I 0 W/m 7,9 C 11,8 C 9,7 km/h (2 Bft) 100,00 %
15.11.2015 19:50 11,9 C 77 % 1013,7 hPa 0,0 l/m 5,4 km/h (1 Bft) W 271 0 min 0,000 mm 0,0 UV-I 0 W/m 8,0 C 11,9 C 6,4 km/h (2 Bft) 100,00 %
15.11.2015 19:51 12,1 C 76 % 1013,8 hPa 0,0 l/m 6,6 km/h (2 Bft) W 277 0 min 0,000 mm 0,0 UV-I 0 W/m 8,0 C 12,0 C 9,7 km/h (2 Bft) 100,00 %
15.11.2015 19:52 12,2 C 75 % 1013,7 hPa 0,0 l/m 8,5 km/h (2 Bft) W-SW 252 0 min 0,000 mm 0,0 UV-I 0 W/m 7,9 C 10,9 C 12,9 km/h (3 Bft) 100,00 %
15.11.2015 19:53 12,4 C 75 % 1013,7 hPa 0,0 l/m 7,2 km/h (2 Bft) W 275 0 min 0,000 mm 0,0 UV-I 0 W/m 8,1 C 11,9 C 11,3 km/h (2 Bft) 100,00 %
15.11.2015 19:54 12,5 C 75 % 1013,7 hPa 0,0 l/m 5,4 km/h (1 Bft) W 281 0 min 0,000 mm 0,0 UV-I 0 W/m 8,2 C 12,5 C 9,7 km/h (2 Bft) 100,00 %
15.11.2015 19:55 12,6 C 74 % 1013,7 hPa 0,0 l/m 5,6 km/h (1 Bft) W 278 0 min 0,000 mm 0,0 UV-I 0 W/m 8,1 C 12,6 C 9,7 km/h (2 Bft) 100,00 %
15.11.2015 19:56 12,7 C 74 % 1013,7 hPa 0,0 l/m 6,2 km/h (2 Bft) W 279 0 min 0,000 mm 0,0 UV-I 0 W/m 8,2 C 12,7 C 11,3 km/h (2 Bft) 100,00 %
15.11.2015 19:57 12,8 C 73 % 1013,7 hPa 0,0 l/m 6,1 km/h (2 Bft) W 266 0 min 0,000 mm 0,0 UV-I 0 W/m 8,1 C 12,8 C 11,3 km/h (2 Bft) 100,00 %
15.11.2015 19:58 12,9 C 73 % 1013,8 hPa 0,0 l/m 8,7 km/h (2 Bft) W-NW 292 0 min 0,000 mm 0,0 UV-I 0 W/m 8,2 C 11,5 C 14,5 km/h (3 Bft) 100,00 %
15.11.2015 19:59 13,0 C 72 % 1013,7 hPa 0,0 l/m 9,0 km/h (2 Bft) W 268 0 min 0,000 mm 0,0 UV-I 0 W/m 8,1 C 11,4 C 17,7 km/h (3 Bft) 95,65 %
15.11.2015 20:00 13,1 C 71 % 1013,7 hPa 0,0 l/m 11,1 km/h (2 Bft) W-SW 253 0 min 0,000 mm 0,0 UV-I 0 W/m 8,0 C 10,5 C 14,5 km/h (3 Bft) 100,00 %
15.11.2015 20:01 13,3 C 70 % 1013,6 hPa 0,0 l/m 10,4 km/h (2 Bft) W-NW 282 0 min 0,000 mm 0,0 UV-I 0 W/m 7,9 C 11,0 C 14,5 km/h (3 Bft) 100,00 %
15.11.2015 20:02 13,4 C 70 % 1013,6 hPa 0,0 l/m 8,0 km/h (2 Bft) W 274 0 min 0,000 mm 0,0 UV-I 0 W/m 8,0 C 12,4 C 14,5 km/h (3 Bft) 100,00 %
15.11.2015 20:03 13,6 C 69 % 1013,7 hPa 0,0 l/m 6,6 km/h (2 Bft) W-NW 298 0 min 0,000 mm 0,0 UV-I 0 W/m 8,0 C 13,5 C 11,3 km/h (2 Bft) 100,00 %
15.11.2015 20:04 13,6 C 69 % 1013,7 hPa 0,0 l/m 5,7 km/h (1 Bft) W-NW 288 0 min 0,000 mm 0,0 UV-I 0 W/m 8,0 C 13,6 C 8,0 km/h (2 Bft) 91,67 %
15.11.2015 20:05 13,7 C 69 % 1013,9 hPa 0,0 l/m 5,1 km/h (1 Bft) W-NW 296 0 min 0,000 mm 0,0 UV-I 0 W/m 8,1 C 13,7 C 8,0 km/h (2 Bft) 100,00 %
15.11.2015 20:06 13,7 C 69 % 1013,8 hPa 0,2 l/m 13,2 km/h (3 Bft) NW 319 0 min 0,000 mm 0,0 UV-I 0 W/m 8,1 C 10,3 C 22,5 km/h (4 Bft) 91,67 %
15.11.2015 20:07 13,8 C 67 % 1013,8 hPa 0,0 l/m 10,4 km/h (2 Bft) W-SW 257 0 min 0,000 mm 0,0 UV-I 0 W/m 7,8 C 11,6 C 12,9 km/h (3 Bft) 100,00 %
15.11.2015 20:08 13,9 C 67 % 1013,8 hPa 0,0 l/m 10,6 km/h (2 Bft) W-SW 256 0 min 0,000 mm 0,0 UV-I 0 W/m 7,9 C 11,6 C 16,1 km/h (3 Bft) 100,00 %
15.11.2015 20:09 14,0 C 67 % 1014,0 hPa 0,0 l/m 7,6 km/h (2 Bft) W 269 0 min 0,000 mm 0,0 UV-I 0 W/m 8,0 C 13,3 C 11,3 km/h (2 Bft) 100,00 %
15.11.2015 20:10 14,1 C 67 % 1013,9 hPa 0,0 l/m 7,1 km/h (2 Bft) W-NW 282 0 min 0,000 mm 0,0 UV-I 0 W/m 8,1 C 13,7 C 12,9 km/h (3 Bft) 100,00 %
15.11.2015 20:11 14,2 C 67 % 1014,0 hPa 0,0 l/m 8,8 km/h (2 Bft) W-NW 286 0 min 0,000 mm 0,0 UV-I 0 W/m 8,2 C 12,8 C 17,7 km/h (3 Bft) 100,00 %
15.11.2015 20:12 14,3 C 66 % 1013,9 hPa 0,0 l/m 11,9 km/h (2 Bft) W 278 0 min 0,000 mm 0,0 UV-I 0 W/m 8,0 C 11,5 C 16,1 km/h (3 Bft) 100,00 %
15.11.2015 20:13 14,3 C 66 % 1014,0 hPa 0,0 l/m 7,3 km/h (2 Bft) W 267 0 min 0,000 mm 0,0 UV-I 0 W/m 8,0 C 13,8 C 11,3 km/h (2 Bft) 100,00 %
15.11.2015 20:14 14,4 C 65 % 1014,0 hPa 0,0 l/m 10,5 km/h (2 Bft) W-NW 300 0 min 0,000 mm 0,0 UV-I 0 W/m 7,9 C 12,2 C 16,1 km/h (3 Bft) 100,00 %
15.11.2015 20:15 14,5 C 65 % 1014,0 hPa 0,0 l/m 6,4 km/h (2 Bft) W 259 0 min 0,000 mm 0,0 UV-I 0 W/m 8,0 C 14,5 C 11,3 km/h (2 Bft) 100,00 %
15.11.2015 20:16 14,6 C 65 % 1013,9 hPa 0,0 l/m 9,2 km/h (2 Bft) W 263 0 min 0,000 mm 0,0 UV-I 0 W/m 8,1 C 13,1 C 12,9 km/h (3 Bft) 96,15 %
15.11.2015 20:17 14,6 C 65 % 1013,9 hPa 0,0 l/m 7,9 km/h (2 Bft) W-NW 298 0 min 0,000 mm 0,0 UV-I 0 W/m 8,1 C 13,7 C 11,3 km/h (2 Bft) 100,00 %
15.11.2015 20:18 14,7 C 65 % 1014,0 hPa 0,0 l/m 6,8 km/h (2 Bft) W 268 0 min 0,000 mm 0,0 UV-I 0 W/m 8,2 C 14,5 C 11,3 km/h (2 Bft) 100,00 %
15.11.2015 20:19 14,7 C 64 % 1014,0 hPa 0,0 l/m 7,7 km/h (2 Bft) W 278 0 min 0,000 mm 0,0 UV-I 0 W/m 8,0 C 14,0 C 11,3 km/h (2 Bft) 100,00 %
15.11.2015 20:20 14,7 C 64 % 1013,9 hPa 0,0 l/m 9,3 km/h (2 Bft) W 259 0 min 0,000 mm 0,0 UV-I 0 W/m 8,0 C 13,1 C 14,5 km/h (3 Bft) 100,00 %
15.11.2015 20:21 14,8 C 63 % 1014,0 hPa 0,0 l/m 8,8 km/h (2 Bft) W-SW 255 0 min 0,000 mm 0,0 UV-I 0 W/m 7,8 C 13,5 C 11,3 km/h (2 Bft) 100,00 %
15.11.2015 20:22 14,8 C 63 % 1014,0 hPa 0,0 l/m 8,4 km/h (2 Bft) W 260 0 min 0,000 mm 0,0 UV-I 0 W/m 7,8 C 13,7 C 11,3 km/h (2 Bft) 100,00 %
15.11.2015 20:23 14,9 C 64 % 1014,0 hPa 0,0 l/m 8,8 km/h (2 Bft) W-SW 247 0 min 0,000 mm 0,0 UV-I 0 W/m 8,2 C 13,6 C 14,5 km/h (3 Bft) 100,00 %
15.11.2015 20:24 14,9 C 63 % 1013,9 hPa 0,0 l/m 7,7 km/h (2 Bft) W 273 0 min 0,000 mm 0,0 UV-I 0 W/m 7,9 C 14,2 C 14,5 km/h (3 Bft) 100,00 %
15.11.2015 20:25 14,9 C 62 % 1013,9 hPa 0,0 l/m 9,1 km/h (2 Bft) W 270 0 min 0,000 mm 0,0 UV-I 0 W/m 7,7 C 13,4 C 17,7 km/h (3 Bft) 96,15 %
15.11.2015 20:26 15,0 C 62 % 1013,9 hPa 0,0 l/m 7,8 km/h (2 Bft) W 278 0 min 0,000 mm 0,0 UV-I 0 W/m 7,8 C 14,2 C 11,3 km/h (2 Bft) 100,00 %
15.11.2015 20:27 15,1 C 62 % 1014,0 hPa 0,0 l/m 7,9 km/h (2 Bft) W 279 0 min 0,000 mm 0,0 UV-I 0 W/m 7,9 C 14,3 C 12,9 km/h (3 Bft) 100,00 %
15.11.2015 20:28 15,1 C 62 % 1014,0 hPa 0,0 l/m 9,0 km/h (2 Bft) W-NW 298 0 min 0,000 mm 0,0 UV-I 0 W/m 7,9 C 13,7 C 14,5 km/h (3 Bft) 100,00 %
15.11.2015 20:29 15,2 C 61 % 1013,9 hPa 0,0 l/m 13,0 km/h (3 Bft) W 263 0 min 0,000 mm 0,0 UV-I 0 W/m 7,7 C 12,1 C 16,1 km/h (3 Bft) 100,00 %
15.11.2015 20:30 15,2 C 61 % 1014,0 hPa 0,0 l/m 11,2 km/h (2 Bft) W 279 0 min 0,000 mm 0,0 UV-I 0 W/m 7,7 C 12,8 C 16,1 km/h (3 Bft) 100,00 %
15.11.2015 20:31 15,2 C 60 % 1014,0 hPa 0,0 l/m 17,4 km/h (3 Bft) W-NW 284 0 min 0,000 mm 0,0 UV-I 0 W/m 7,5 C 10,7 C 24,1 km/h (4 Bft) 100,00 %
15.11.2015 20:32 15,3 C 60 % 1014,1 hPa 0,0 l/m 9,1 km/h (2 Bft) W-NW 284 0 min 0,000 mm 0,0 UV-I 0 W/m 7,6 C 13,9 C 12,9 km/h (3 Bft) 100,00 %
15.11.2015 20:33 15,4 C 60 % 1014,1 hPa 0,0 l/m 12,3 km/h (3 Bft) SW 219 0 min 0,000 mm 0,0 UV-I 0 W/m 7,7 C 12,6 C 16,1 km/h (3 Bft) 100,00 %
15.11.2015 20:34 15,4 C 60 % 1014,1 hPa 0,0 l/m 13,9 km/h (3 Bft) W 268 0 min 0,000 mm 0,0 UV-I 0 W/m 7,7 C 12,0 C 17,7 km/h (3 Bft) 96,30 %
15.11.2015 20:35 15,5 C 60 % 1014,1 hPa 0,0 l/m 12,1 km/h (2 Bft) W-SW 247 0 min 0,000 mm 0,0 UV-I 0 W/m 7,8 C 12,8 C 17,7 km/h (3 Bft) 100,00 %
15.11.2015 20:36 15,6 C 59 % 1014,0 hPa 0,0 l/m 12,1 km/h (2 Bft) W 275 0 min 0,000 mm 0,0 UV-I 0 W/m 7,6 C 12,9 C 17,7 km/h (3 Bft) 100,00 %
15.11.2015 20:37 15,6 C 59 % 1014,1 hPa 0,0 l/m 9,8 km/h (2 Bft) W 267 0 min 0,000 mm 0,0 UV-I 0 W/m 7,6 C 13,9 C 17,7 km/h (3 Bft) 100,00 %
15.11.2015 20:38 15,7 C 59 % 1014,1 hPa 0,0 l/m 10,9 km/h (2 Bft) SW 216 0 min 0,000 mm 0,0 UV-I 0 W/m 7,7 C 13,5 C 22,5 km/h (4 Bft) 100,00 %
15.11.2015 20:39 15,7 C 57 % 1014,0 hPa 0,0 l/m 14,9 km/h (3 Bft) SW 235 0 min 0,000 mm 0,0 UV-I 0 W/m 7,2 C 12,1 C 20,9 km/h (4 Bft) 96,15 %
15.11.2015 20:40 15,8 C 58 % 1014,1 hPa 0,0 l/m 12,7 km/h (3 Bft) W 267 0 min 0,000 mm 0,0 UV-I 0 W/m 7,6 C 12,9 C 16,1 km/h (3 Bft) 100,00 %
15.11.2015 20:41 15,8 C 58 % 1014,1 hPa 0,0 l/m 10,2 km/h (2 Bft) W-NW 296 0 min 0,000 mm 0,0 UV-I 0 W/m 7,6 C 13,9 C 16,1 km/h (3 Bft) 100,00 %
15.11.2015 20:42 15,9 C 58 % 1014,1 hPa 0,0 l/m 11,0 km/h (2 Bft) W 275 0 min 0,000 mm 0,0 UV-I 0 W/m 7,6 C 13,7 C 16,1 km/h (3 Bft) 96,30 %
15.11.2015 20:43 15,9 C 57 % 1014,2 hPa 0,0 l/m 11,5 km/h (2 Bft) W 267 0 min 0,000 mm 0,0 UV-I 0 W/m 7,4 C 13,5 C 17,7 km/h (3 Bft) 100,00 %
15.11.2015 20:44 15,9 C 58 % 1014,2 hPa 0,0 l/m 12,6 km/h (3 Bft) W 279 0 min 0,000 mm 0,0 UV-I 0 W/m 7,6 C 13,1 C 16,1 km/h (3 Bft) 100,00 %
15.11.2015 20:45 15,9 C 57 % 1014,2 hPa 0,0 l/m 12,4 km/h (3 Bft) W 279 0 min 0,000 mm 0,0 UV-I 0 W/m 7,4 C 13,2 C 16,1 km/h (3 Bft) 100,00 %
15.11.2015 20:46 15,9 C 57 % 1014,3 hPa 0,0 l/m 9,7 km/h (2 Bft) W 275 0 min 0,000 mm 0,0 UV-I 0 W/m 7,4 C 14,2 C 14,5 km/h (3 Bft) 100,00 %
15.11.2015 20:47 15,9 C 58 % 1014,3 hPa 0,0 l/m 18,3 km/h (3 Bft) W 260 0 min 0,000 mm 0,0 UV-I 0 W/m 7,6 C 11,3 C 29,0 km/h (5 Bft) 100,00 %
15.11.2015 20:48 16,0 C 56 % 1014,3 hPa 0,0 l/m 15,3 km/h (3 Bft) W-SW 246 0 min 0,000 mm 0,0 UV-I 0 W/m 7,2 C 12,3 C 19,3 km/h (3 Bft) 100,00 %
15.11.2015 20:49 16,1 C 56 % 1014,3 hPa 0,0 l/m 13,0 km/h (3 Bft) W-SW 240 0 min 0,000 mm 0,0 UV-I 0 W/m 7,3 C 13,2 C 22,5 km/h (4 Bft) 100,00 %
15.11.2015 20:50 16,1 C 56 % 1014,4 hPa 0,0 l/m 16,6 km/h (3 Bft) W 268 0 min 0,000 mm 0,0 UV-I 0 W/m 7,3 C 12,1 C 25,7 km/h (4 Bft) 100,00 %
15.11.2015 20:51 16,2 C 56 % 1014,3 hPa 0,0 l/m 15,3 km/h (3 Bft) W-NW 284 0 min 0,000 mm 0,0 UV-I 0 W/m 7,4 C 12,6 C 22,5 km/h (4 Bft) 100,00 %
15.11.2015 20:52 16,2 C 56 % 1014,2 hPa 0,0 l/m 13,0 km/h (3 Bft) W 273 0 min 0,000 mm 0,0 UV-I 0 W/m 7,4 C 13,3 C 22,5 km/h (4 Bft) 100,00 %
15.11.2015 20:53 16,2 C 56 % 1014,3 hPa 0,0 l/m 14,9 km/h (3 Bft) S 188 0 min 0,000 mm 0,0 UV-I 0 W/m 7,4 C 12,7 C 17,7 km/h (3 Bft) 100,00 %
15.11.2015 20:54 16,2 C 55 % 1014,2 hPa 0,0 l/m 15,2 km/h (3 Bft) W-NW 286 0 min 0,000 mm 0,0 UV-I 0 W/m 7,2 C 12,6 C 20,9 km/h (4 Bft) 100,00 %
15.11.2015 20:55 16,2 C 55 % 1014,2 hPa 0,0 l/m 14,5 km/h (3 Bft) W 271 0 min 0,000 mm 0,0 UV-I 0 W/m 7,2 C 12,8 C 22,5 km/h (4 Bft) 100,00 %
15.11.2015 20:56 16,2 C 56 % 1014,3 hPa 0,0 l/m 11,2 km/h (2 Bft) W-SW 258 0 min 0,000 mm 0,0 UV-I 0 W/m 7,4 C 14,0 C 19,3 km/h (3 Bft) 100,00 %
15.11.2015 20:57 16,3 C 55 % 1014,3 hPa 0,0 l/m 14,8 km/h (3 Bft) W-SW 240 0 min 0,000 mm 0,0 UV-I 0 W/m 7,2 C 12,8 C 19,3 km/h (3 Bft) 100,00 %
15.11.2015 20:58 16,3 C 56 % 1014,3 hPa 0,0 l/m 14,2 km/h (3 Bft) W-NW 294 0 min 0,000 mm 0,0 UV-I 0 W/m 7,5 C 13,0 C 19,3 km/h (3 Bft) 100,00 %
15.11.2015 20:59 16,3 C 55 % 1014,2 hPa 0,0 l/m 11,6 km/h (2 Bft) W-SW 257 0 min 0,000 mm 0,0 UV-I 0 W/m 7,2 C 13,9 C 20,9 km/h (4 Bft) 100,00 %
15.11.2015 21:00 16,3 C 55 % 1014,2 hPa 0,0 l/m 12,1 km/h (2 Bft) W-SW 249 0 min 0,000 mm 0,0 UV-I 0 W/m 7,2 C 13,7 C 16,1 km/h (3 Bft) 100,00 %
15.11.2015 21:01 16,3 C 55 % 1014,2 hPa 0,0 l/m 13,8 km/h (3 Bft) W-NW 302 0 min 0,051 mm 0,0 UV-I 0 W/m 7,2 C 13,1 C 17,7 km/h (3 Bft) 100,00 %
15.11.2015 21:02 16,3 C 55 % 1014,2 hPa 0,0 l/m 13,8 km/h (3 Bft) W-NW 292 0 min 0,000 mm 0,0 UV-I 0 W/m 7,2 C 13,1 C 20,9 km/h (4 Bft) 100,00 %
15.11.2015 21:03 16,3 C 54 % 1014,2 hPa 0,0 l/m 15,6 km/h (3 Bft) W 271 0 min 0,000 mm 0,0 UV-I 0 W/m 7,0 C 12,6 C 25,7 km/h (4 Bft) 100,00 %
15.11.2015 21:04 16,3 C 55 % 1014,2 hPa 0,0 l/m 14,3 km/h (3 Bft) W-SW 242 0 min 0,000 mm 0,0 UV-I 0 W/m 7,2 C 13,0 C 19,3 km/h (3 Bft) 95,83 %
15.11.2015 21:05 16,3 C 54 % 1014,3 hPa 0,0 l/m 14,2 km/h (3 Bft) W 273 0 min 0,000 mm 0,0 UV-I 0 W/m 7,0 C 13,0 C 22,5 km/h (4 Bft) 96,55 %
15.11.2015 21:06 16,3 C 55 % 1014,4 hPa 0,0 l/m 12,4 km/h (3 Bft) W-SW 243 0 min 0,000 mm 0,0 UV-I 0 W/m 7,2 C 13,6 C 19,3 km/h (3 Bft) 100,00 %
15.11.2015 21:07 16,3 C 54 % 1014,4 hPa 0,0 l/m 13,3 km/h (3 Bft) W-NW 299 0 min 0,000 mm 0,0 UV-I 0 W/m 7,0 C 13,3 C 19,3 km/h (3 Bft) 100,00 %
15.11.2015 21:08 16,3 C 55 % 1014,4 hPa 0,0 l/m 10,8 km/h (2 Bft) W 279 0 min 0,000 mm 0,0 UV-I 0 W/m 7,2 C 14,2 C 16,1 km/h (3 Bft) 100,00 %
15.11.2015 21:09 16,3 C 55 % 1014,5 hPa 0,0 l/m 12,5 km/h (3 Bft) W 267 0 min 0,000 mm 0,0 UV-I 0 W/m 7,2 C 13,6 C 17,7 km/h (3 Bft) 100,00 %
15.11.2015 21:10 16,3 C 55 % 1014,5 hPa 0,0 l/m 13,6 km/h (3 Bft) W 261 0 min 0,000 mm 0,0 UV-I 0 W/m 7,2 C 13,2 C 19,3 km/h (3 Bft) 100,00 %
15.11.2015 21:11 16,3 C 54 % 1014,5 hPa 0,0 l/m 15,6 km/h (3 Bft) W 261 0 min 0,000 mm 0,0 UV-I 0 W/m 7,0 C 12,6 C 22,5 km/h (4 Bft) 100,00 %
15.11.2015 21:12 16,3 C 54 % 1014,5 hPa 0,0 l/m 19,0 km/h (3 Bft) W 278 0 min 0,000 mm 0,0 UV-I 0 W/m 7,0 C 11,7 C 30,6 km/h (5 Bft) 95,83 %
15.11.2015 21:13 16,3 C 54 % 1014,5 hPa 0,0 l/m 12,8 km/h (3 Bft) W-NW 288 0 min 0,000 mm 0,0 UV-I 0 W/m 7,0 C 13,5 C 14,5 km/h (3 Bft) 100,00 %
15.11.2015 21:14 16,4 C 54 % 1014,5 hPa 0,0 l/m 13,1 km/h (3 Bft) W-NW 284 0 min 0,000 mm 0,0 UV-I 0 W/m 7,1 C 13,5 C 19,3 km/h (3 Bft) 100,00 %
15.11.2015 21:15 16,4 C 53 % 1014,4 hPa 0,0 l/m 13,6 km/h (3 Bft) W 277 0 min 0,000 mm 0,0 UV-I 0 W/m 6,8 C 13,3 C 20,9 km/h (4 Bft) 100,00 %
15.11.2015 21:16 16,4 C 54 % 1014,6 hPa 0,0 l/m 9,7 km/h (2 Bft) W 266 0 min 0,000 mm 0,0 UV-I 0 W/m 7,1 C 14,8 C 16,1 km/h (3 Bft) 95,83 %
15.11.2015 21:17 16,4 C 54 % 1014,6 hPa 0,0 l/m 11,5 km/h (2 Bft) W 272 0 min 0,000 mm 0,0 UV-I 0 W/m 7,1 C 14,1 C 17,7 km/h (3 Bft) 100,00 %
15.11.2015 21:18 16,4 C 54 % 1014,6 hPa 0,0 l/m 14,6 km/h (3 Bft) W-NW 286 0 min 0,000 mm 0,0 UV-I 0 W/m 7,1 C 13,0 C 19,3 km/h (3 Bft) 100,00 %
15.11.2015 21:19 16,4 C 53 % 1014,6 hPa 0,0 l/m 14,9 km/h (3 Bft) SW 227 0 min 0,000 mm 0,0 UV-I 0 W/m 6,8 C 12,9 C 19,3 km/h (3 Bft) 100,00 %
15.11.2015 21:20 16,4 C 54 % 1014,7 hPa 0,0 l/m 13,0 km/h (3 Bft) W-NW 289 0 min 0,000 mm 0,0 UV-I 0 W/m 7,1 C 13,5 C 19,3 km/h (3 Bft) 100,00 %
15.11.2015 21:21 16,4 C 53 % 1014,7 hPa 0,0 l/m 15,6 km/h (3 Bft) NW 308 0 min 0,000 mm 0,0 UV-I 0 W/m 6,8 C 12,7 C 24,1 km/h (4 Bft) 100,00 %
15.11.2015 21:22 16,4 C 54 % 1014,7 hPa 0,0 l/m 14,6 km/h (3 Bft) W 273 0 min 0,000 mm 0,0 UV-I 0 W/m 7,1 C 13,0 C 20,9 km/h (4 Bft) 100,00 %
15.11.2015 21:23 16,4 C 53 % 1014,6 hPa 0,0 l/m 17,9 km/h (3 Bft) W-NW 296 0 min 0,000 mm 0,0 UV-I 0 W/m 6,8 C 12,1 C 25,7 km/h (4 Bft) 100,00 %
15.11.2015 21:24 16,4 C 53 % 1014,8 hPa 0,0 l/m 13,0 km/h (3 Bft) W 281 0 min 0,000 mm 0,0 UV-I 0 W/m 6,8 C 13,5 C 17,7 km/h (3 Bft) 100,00 %
15.11.2015 21:25 16,4 C 54 % 1014,7 hPa 0,0 l/m 11,8 km/h (2 Bft) W-SW 250 0 min 0,000 mm 0,0 UV-I 0 W/m 7,1 C 14,0 C 14,5 km/h (3 Bft) 100,00 %
15.11.2015 21:26 16,4 C 53 % 1014,8 hPa 0,0 l/m 11,9 km/h (2 Bft) W-SW 242 0 min 0,000 mm 0,0 UV-I 0 W/m 6,8 C 13,9 C 19,3 km/h (3 Bft) 100,00 %
15.11.2015 21:27 16,4 C 54 % 1014,8 hPa 0,0 l/m 9,4 km/h (2 Bft) W-NW 298 0 min 0,000 mm 0,0 UV-I 0 W/m 7,1 C 14,9 C 16,1 km/h (3 Bft) 100,00 %
15.11.2015 21:28 16,4 C 54 % 1014,8 hPa 0,0 l/m 7,6 km/h (2 Bft) W 269 0 min 0,000 mm 0,0 UV-I 0 W/m 7,1 C 15,8 C 12,9 km/h (3 Bft) 100,00 %
15.11.2015 21:29 16,4 C 54 % 1014,8 hPa 0,0 l/m 9,2 km/h (2 Bft) W-SW 258 0 min 0,000 mm 0,0 UV-I 0 W/m 7,1 C 15,0 C 16,1 km/h (3 Bft) 100,00 %
15.11.2015 21:30 16,3 C 54 % 1014,9 hPa 0,0 l/m 11,8 km/h (2 Bft) W 267 0 min 0,000 mm 0,0 UV-I 0 W/m 7,0 C 13,8 C 17,7 km/h (3 Bft) 100,00 %
15.11.2015 21:31 16,3 C 54 % 1014,9 hPa 0,0 l/m 10,1 km/h (2 Bft) W-SW 257 0 min 0,000 mm 0,0 UV-I 0 W/m 7,0 C 14,5 C 16,1 km/h (3 Bft) 95,83 %
15.11.2015 21:32 16,3 C 54 % 1014,9 hPa 0,0 l/m 11,3 km/h (2 Bft) W 275 0 min 0,000 mm 0,0 UV-I 0 W/m 7,0 C 14,0 C 16,1 km/h (3 Bft) 96,55 %
15.11.2015 21:33 16,3 C 55 % 1015,0 hPa 0,0 l/m 11,9 km/h (2 Bft) W-SW 242 0 min 0,000 mm 0,0 UV-I 0 W/m 7,2 C 13,8 C 17,7 km/h (3 Bft) 100,00 %
15.11.2015 21:34 16,3 C 54 % 1014,9 hPa 0,0 l/m 13,2 km/h (3 Bft) W 267 0 min 0,000 mm 0,0 UV-I 0 W/m 7,0 C 13,3 C 19,3 km/h (3 Bft) 100,00 %
15.11.2015 21:35 16,3 C 54 % 1014,9 hPa 0,0 l/m 14,1 km/h (3 Bft) W-NW 288 0 min 0,000 mm 0,0 UV-I 0 W/m 7,0 C 13,0 C 19,3 km/h (3 Bft) 100,00 %
15.11.2015 21:36 16,3 C 54 % 1014,9 hPa 0,0 l/m 13,8 km/h (3 Bft) W 273 0 min 0,000 mm 0,0 UV-I 0 W/m 7,0 C 13,1 C 22,5 km/h (4 Bft) 100,00 %
15.11.2015 21:37 16,3 C 54 % 1014,9 hPa 0,0 l/m 16,2 km/h (3 Bft) W 274 0 min 0,000 mm 0,0 UV-I 0 W/m 7,0 C 12,4 C 24,1 km/h (4 Bft) 100,00 %
15.11.2015 21:38 16,3 C 53 % 1015,0 hPa 0,0 l/m 16,5 km/h (3 Bft) W 266 0 min 0,000 mm 0,0 UV-I 0 W/m 6,7 C 12,3 C 29,0 km/h (5 Bft) 92,86 %
15.11.2015 21:39 16,3 C 54 % 1015,0 hPa 0,0 l/m 16,6 km/h (3 Bft) W-NW 298 0 min 0,000 mm 0,0 UV-I 0 W/m 7,0 C 12,3 C 24,1 km/h (4 Bft) 100,00 %
15.11.2015 21:40 16,4 C 53 % 1014,9 hPa 0,0 l/m 17,5 km/h (3 Bft) W-SW 254 0 min 0,000 mm 0,0 UV-I 0 W/m 6,8 C 12,2 C 22,5 km/h (4 Bft) 100,00 %
15.11.2015 21:41 16,4 C 54 % 1014,9 hPa 0,0 l/m 12,3 km/h (3 Bft) W 267 0 min 0,000 mm 0,0 UV-I 0 W/m 7,1 C 13,8 C 22,5 km/h (4 Bft) 100,00 %
15.11.2015 21:42 16,4 C 53 % 1014,9 hPa 0,0 l/m 17,4 km/h (3 Bft) W-NW 294 0 min 0,000 mm 0,0 UV-I 0 W/m 6,8 C 12,2 C 30,6 km/h (5 Bft) 100,00 %
15.11.2015 21:43 16,4 C 53 % 1015,0 hPa 0,0 l/m 14,6 km/h (3 Bft) W 278 0 min 0,000 mm 0,0 UV-I 0 W/m 6,8 C 13,0 C 19,3 km/h (3 Bft) 100,00 %
15.11.2015 21:44 16,4 C 53 % 1014,9 hPa 0,0 l/m 11,6 km/h (2 Bft) W 269 0 min 0,000 mm 0,0 UV-I 0 W/m 6,8 C 14,0 C 16,1 km/h (3 Bft) 100,00 %
15.11.2015 21:45 16,4 C 54 % 1014,9 hPa 0,0 l/m 15,5 km/h (3 Bft) W-SW 252 0 min 0,000 mm 0,0 UV-I 0 W/m 7,1 C 12,7 C 24,1 km/h (4 Bft) 100,00 %
15.11.2015 21:46 16,4 C 53 % 1014,9 hPa 0,0 l/m 14,6 km/h (3 Bft) W-NW 286 0 min 0,000 mm 0,0 UV-I 0 W/m 6,8 C 13,0 C 19,3 km/h (3 Bft) 100,00 %
15.11.2015 21:47 16,4 C 53 % 1015,0 hPa 0,0 l/m 15,9 km/h (3 Bft) W 279 0 min 0,000 mm 0,0 UV-I 0 W/m 6,8 C 12,6 C 22,5 km/h (4 Bft) 100,00 %
15.11.2015 21:48 16,4 C 53 % 1014,9 hPa 0,0 l/m 17,2 km/h (3 Bft) W 269 0 min 0,000 mm 0,0 UV-I 0 W/m 6,8 C 12,3 C 22,5 km/h (4 Bft) 100,00 %
15.11.2015 21:49 16,4 C 53 % 1015,0 hPa 0,0 l/m 16,5 km/h (3 Bft) W-SW 253 0 min 0,000 mm 0,0 UV-I 0 W/m 6,8 C 12,5 C 24,1 km/h (4 Bft) 100,00 %
15.11.2015 21:50 16,4 C 53 % 1014,9 hPa 0,0 l/m 15,6 km/h (3 Bft) W 275 0 min 0,000 mm 0,0 UV-I 0 W/m 6,8 C 12,7 C 22,5 km/h (4 Bft) 100,00 %
15.11.2015 21:51 16,4 C 53 % 1015,0 hPa 0,0 l/m 14,2 km/h (3 Bft) W 279 0 min 0,000 mm 0,0 UV-I 0 W/m 6,8 C 13,1 C 22,5 km/h (4 Bft) 100,00 %
15.11.2015 21:52 16,5 C 53 % 1015,0 hPa 0,0 l/m 17,4 km/h (3 Bft) W 281 0 min 0,000 mm 0,0 UV-I 0 W/m 6,9 C 12,3 C 22,5 km/h (4 Bft) 92,59 %
15.11.2015 21:53 16,5 C 53 % 1015,0 hPa 0,0 l/m 17,1 km/h (3 Bft) W 263 0 min 0,000 mm 0,0 UV-I 0 W/m 6,9 C 12,4 C 24,1 km/h (4 Bft) 100,00 %
15.11.2015 21:54 16,5 C 53 % 1015,0 hPa 0,0 l/m 16,5 km/h (3 Bft) S-SW 207 0 min 0,000 mm 0,0 UV-I 0 W/m 6,9 C 12,6 C 20,9 km/h (4 Bft) 100,00 %
15.11.2015 21:55 16,4 C 53 % 1015,0 hPa 0,0 l/m 15,6 km/h (3 Bft) W-SW 256 0 min 0,000 mm 0,0 UV-I 0 W/m 6,8 C 12,7 C 25,7 km/h (4 Bft) 100,00 %
15.11.2015 21:56 16,4 C 53 % 1015,0 hPa 0,0 l/m 11,9 km/h (2 Bft) W-SW 244 0 min 0,000 mm 0,0 UV-I 0 W/m 6,8 C 13,9 C 19,3 km/h (3 Bft) 100,00 %
15.11.2015 21:57 16,4 C 54 % 1015,0 hPa 0,0 l/m 16,3 km/h (3 Bft) SW 232 0 min 0,000 mm 0,0 UV-I 0 W/m 7,1 C 12,5 C 27,4 km/h (4 Bft) 100,00 %
15.11.2015 21:58 16,4 C 53 % 1015,0 hPa 0,0 l/m 14,3 km/h (3 Bft) W 275 0 min 0,000 mm 0,0 UV-I 0 W/m 6,8 C 13,1 C 17,7 km/h (3 Bft) 100,00 %
15.11.2015 21:59 16,4 C 53 % 1015,0 hPa 0,0 l/m 13,4 km/h (3 Bft) SW 236 0 min 0,000 mm 0,0 UV-I 0 W/m 6,8 C 13,4 C 19,3 km/h (3 Bft) 95,65 %
15.11.2015 22:00 16,4 C 53 % 1015,0 hPa 0,0 l/m 17,0 km/h (3 Bft) S-SW 213 0 min 0,000 mm 0,0 UV-I 0 W/m 6,8 C 12,3 C 24,1 km/h (4 Bft) 95,83 %
15.11.2015 22:01 16,4 C 53 % 1014,8 hPa 0,0 l/m 17,7 km/h (3 Bft) W-SW 251 0 min 0,076 mm 0,0 UV-I 0 W/m 6,8 C 12,1 C 29,0 km/h (5 Bft) 100,00 %
15.11.2015 22:02 16,4 C 53 % 1014,9 hPa 0,0 l/m 11,7 km/h (2 Bft) NW 306 0 min 0,000 mm 0,0 UV-I 0 W/m 6,8 C 14,0 C 19,3 km/h (3 Bft) 100,00 %
15.11.2015 22:03 16,4 C 53 % 1014,9 hPa 0,0 l/m 12,6 km/h (3 Bft) W 269 0 min 0,000 mm 0,0 UV-I 0 W/m 6,8 C 13,7 C 30,6 km/h (5 Bft) 100,00 %
15.11.2015 22:04 16,4 C 53 % 1014,9 hPa 0,0 l/m 12,0 km/h (2 Bft) W 269 0 min 0,000 mm 0,0 UV-I 0 W/m 6,8 C 13,9 C 20,9 km/h (4 Bft) 100,00 %
15.11.2015 22:05 16,4 C 53 % 1015,0 hPa 0,0 l/m 11,6 km/h (2 Bft) W-NW 300 0 min 0,000 mm 0,0 UV-I 0 W/m 6,8 C 14,0 C 19,3 km/h (3 Bft) 96,30 %
15.11.2015 22:06 16,3 C 53 % 1015,0 hPa 0,0 l/m 12,1 km/h (2 Bft) W 265 0 min 0,000 mm 0,0 UV-I 0 W/m 6,7 C 13,7 C 19,3 km/h (3 Bft) 100,00 %
15.11.2015 22:07 16,3 C 54 % 1015,0 hPa 0,0 l/m 11,3 km/h (2 Bft) NW 309 0 min 0,000 mm 0,0 UV-I 0 W/m 7,0 C 14,0 C 14,5 km/h (3 Bft) 96,30 %
15.11.2015 22:08 16,3 C 54 % 1015,0 hPa 0,0 l/m 12,0 km/h (2 Bft) W 264 0 min 0,000 mm 0,0 UV-I 0 W/m 7,0 C 13,8 C 17,7 km/h (3 Bft) 100,00 %
15.11.2015 22:09 16,3 C 54 % 1014,9 hPa 0,0 l/m 14,6 km/h (3 Bft) W 269 0 min 0,000 mm 0,0 UV-I 0 W/m 7,0 C 12,9 C 19,3 km/h (3 Bft) 91,67 %
15.11.2015 22:10 16,2 C 54 % 1015,1 hPa 0,0 l/m 13,0 km/h (3 Bft) W 270 0 min 0,000 mm 0,0 UV-I 0 W/m 6,9 C 13,3 C 20,9 km/h (4 Bft) 100,00 %
15.11.2015 22:11 16,2 C 54 % 1015,0 hPa 0,0 l/m 12,5 km/h (3 Bft) W 279 0 min 0,000 mm 0,0 UV-I 0 W/m 6,9 C 13,5 C 17,7 km/h (3 Bft) 100,00 %
15.11.2015 22:12 16,2 C 55 % 1015,0 hPa 0,0 l/m 12,9 km/h (3 Bft) W 279 0 min 0,000 mm 0,0 UV-I 0 W/m 7,2 C 13,3 C 27,4 km/h (4 Bft) 100,00 %
15.11.2015 22:13 16,2 C 54 % 1015,0 hPa 0,0 l/m 16,4 km/h (3 Bft) W-SW 245 0 min 0,000 mm 0,0 UV-I 0 W/m 6,9 C 12,2 C 22,5 km/h (4 Bft) 100,00 %
15.11.2015 22:14 16,2 C 55 % 1014,9 hPa 0,0 l/m 9,6 km/h (2 Bft) S-SW 212 0 min 0,000 mm 0,0 UV-I 0 W/m 7,2 C 14,6 C 14,5 km/h (3 Bft) 100,00 %
15.11.2015 22:15 16,2 C 54 % 1015,0 hPa 0,0 l/m 14,3 km/h (3 Bft) W 264 0 min 0,000 mm 0,0 UV-I 0 W/m 6,9 C 12,9 C 20,9 km/h (4 Bft) 95,83 %
15.11.2015 22:16 16,2 C 54 % 1015,0 hPa 0,0 l/m 14,7 km/h (3 Bft) W 281 0 min 0,000 mm 0,0 UV-I 0 W/m 6,9 C 12,7 C 19,3 km/h (3 Bft) 100,00 %
15.11.2015 22:17 16,2 C 53 % 1015,1 hPa 0,0 l/m 15,6 km/h (3 Bft) SW 234 0 min 0,000 mm 0,0 UV-I 0 W/m 6,6 C 12,5 C 27,4 km/h (4 Bft) 100,00 %
15.11.2015 22:18 16,2 C 54 % 1015,1 hPa 0,0 l/m 17,4 km/h (3 Bft) W 265 0 min 0,000 mm 0,0 UV-I 0 W/m 6,9 C 12,0 C 22,5 km/h (4 Bft) 100,00 %
15.11.2015 22:19 16,2 C 53 % 1015,1 hPa 0,0 l/m 14,6 km/h (3 Bft) W-NW 296 0 min 0,000 mm 0,0 UV-I 0 W/m 6,6 C 12,8 C 19,3 km/h (3 Bft) 100,00 %
15.11.2015 22:20 16,2 C 53 % 1015,1 hPa 0,0 l/m 14,1 km/h (3 Bft) W 280 0 min 0,000 mm 0,0 UV-I 0 W/m 6,6 C 12,9 C 19,3 km/h (3 Bft) 95,65 %
15.11.2015 22:21 16,2 C 53 % 1015,0 hPa 0,0 l/m 15,2 km/h (3 Bft) W-NW 298 0 min 0,000 mm 0,0 UV-I 0 W/m 6,6 C 12,6 C 27,4 km/h (4 Bft) 100,00 %
15.11.2015 22:22 16,3 C 53 % 1015,0 hPa 0,0 l/m 12,1 km/h (2 Bft) W 274 0 min 0,000 mm 0,0 UV-I 0 W/m 6,7 C 13,7 C 20,9 km/h (4 Bft) 96,30 %
15.11.2015 22:23 16,2 C 54 % 1015,1 hPa 0,0 l/m 12,0 km/h (2 Bft) W 260 0 min 0,000 mm 0,0 UV-I 0 W/m 6,9 C 13,7 C 16,1 km/h (3 Bft) 100,00 %
15.11.2015 22:24 16,2 C 54 % 1015,1 hPa 0,0 l/m 12,5 km/h (3 Bft) W-SW 248 0 min 0,000 mm 0,0 UV-I 0 W/m 6,9 C 13,5 C 20,9 km/h (4 Bft) 100,00 %
15.11.2015 22:25 16,2 C 53 % 1015,1 hPa 0,0 l/m 14,7 km/h (3 Bft) W-NW 301 0 min 0,000 mm 0,0 UV-I 0 W/m 6,6 C 12,7 C 20,9 km/h (4 Bft) 100,00 %
15.11.2015 22:26 16,2 C 53 % 1015,0 hPa 0,0 l/m 12,3 km/h (3 Bft) W 275 0 min 0,000 mm 0,0 UV-I 0 W/m 6,6 C 13,5 C 16,1 km/h (3 Bft) 100,00 %
15.11.2015 22:27 16,2 C 53 % 1015,0 hPa 0,0 l/m 10,9 km/h (2 Bft) S 179 0 min 0,000 mm 0,0 UV-I 0 W/m 6,6 C 14,1 C 14,5 km/h (3 Bft) 100,00 %
15.11.2015 22:28 16,2 C 54 % 1015,0 hPa 0,0 l/m 13,0 km/h (3 Bft) NW 304 0 min 0,000 mm 0,0 UV-I 0 W/m 6,9 C 13,3 C 19,3 km/h (3 Bft) 100,00 %
15.11.2015 22:29 16,2 C 53 % 1015,1 hPa 0,0 l/m 12,6 km/h (3 Bft) W-SW 251 0 min 0,000 mm 0,0 UV-I 0 W/m 6,6 C 13,4 C 20,9 km/h (4 Bft) 100,00 %
15.11.2015 22:30 16,2 C 53 % 1015,1 hPa 0,0 l/m 12,2 km/h (2 Bft) W 279 0 min 0,000 mm 0,0 UV-I 0 W/m 6,6 C 13,6 C 16,1 km/h (3 Bft) 95,83 %
15.11.2015 22:31 16,2 C 54 % 1015,2 hPa 0,0 l/m 13,0 km/h (3 Bft) W 265 0 min 0,000 mm 0,0 UV-I 0 W/m 6,9 C 13,3 C 16,1 km/h (3 Bft) 96,15 %
15.11.2015 22:35 16,2 C 53 % 1015,2 hPa 0,0 l/m 13,6 km/h (3 Bft) W 269 0 min 0,000 mm 0,0 UV-I 0 W/m 6,6 C 13,1 C 27,4 km/h (4 Bft) 94,85 %
15.11.2015 22:40 16,1 C 54 % 1015,3 hPa 0,0 l/m 11,5 km/h (2 Bft) W 274 0 min 0,000 mm 0,0 UV-I 0 W/m 6,8 C 13,7 C 24,1 km/h (4 Bft) 98,17 %
15.11.2015 22:45 15,9 C 55 % 1015,4 hPa 0,0 l/m 9,1 km/h (2 Bft) W 271 0 min 0,000 mm 0,0 UV-I 0 W/m 6,9 C 14,5 C 16,1 km/h (3 Bft) 86,18 %
15.11.2015 22:50 15,9 C 54 % 1015,4 hPa 0,0 l/m 13,2 km/h (3 Bft) W-SW 246 0 min 0,000 mm 0,0 UV-I 0 W/m 6,6 C 12,9 C 22,5 km/h (4 Bft) 98,21 %
15.11.2015 22:55 15,9 C 54 % 1015,4 hPa 0,0 l/m 11,9 km/h (2 Bft) W 265 0 min 0,000 mm 0,0 UV-I 0 W/m 6,6 C 13,3 C 24,1 km/h (4 Bft) 98,39 %
15.11.2015 23:00 15,9 C 55 % 1015,3 hPa 0,0 l/m 13,4 km/h (3 Bft) W 280 0 min 0,076 mm 0,0 UV-I 0 W/m 6,9 C 12,8 C 30,6 km/h (5 Bft) 100,00 %
15.11.2015 23:05 15,9 C 54 % 1015,3 hPa 0,0 l/m 14,2 km/h (3 Bft) NW 306 0 min 0,000 mm 0,0 UV-I 0 W/m 6,6 C 12,5 C 29,0 km/h (5 Bft) 99,22 %
15.11.2015 23:10 16,0 C 54 % 1015,3 hPa 0,0 l/m 15,1 km/h (3 Bft) W-NW 294 0 min 0,000 mm 0,0 UV-I 0 W/m 6,7 C 12,4 C 22,5 km/h (4 Bft) 99,19 %
15.11.2015 23:15 16,0 C 55 % 1015,4 hPa 0,0 l/m 13,5 km/h (3 Bft) W 261 0 min 0,000 mm 0,0 UV-I 0 W/m 7,0 C 12,9 C 22,5 km/h (4 Bft) 99,15 %
15.11.2015 23:20 15,9 C 54 % 1015,5 hPa 0,0 l/m 12,9 km/h (3 Bft) W 274 0 min 0,000 mm 0,0 UV-I 0 W/m 6,6 C 13,0 C 24,1 km/h (4 Bft) 99,11 %
15.11.2015 23:25 16,0 C 53 % 1015,4 hPa 0,0 l/m 15,1 km/h (3 Bft) W 261 0 min 0,000 mm 0,0 UV-I 0 W/m 6,4 C 12,4 C 30,6 km/h (5 Bft) 100,00 %
15.11.2015 23:30 16,1 C 53 % 1015,4 hPa 0,0 l/m 16,3 km/h (3 Bft) W 279 0 min 0,000 mm 0,0 UV-I 0 W/m 6,5 C 12,1 C 29,0 km/h (5 Bft) 98,41 %
15.11.2015 23:35 15,9 C 53 % 1015,5 hPa 0,0 l/m 12,5 km/h (3 Bft) W-SW 257 0 min 0,000 mm 0,0 UV-I 0 W/m 6,3 C 13,1 C 20,9 km/h (4 Bft) 98,21 %
15.11.2015 23:40 15,9 C 54 % 1015,6 hPa 0,0 l/m 11,6 km/h (2 Bft) W 275 0 min 0,000 mm 0,0 UV-I 0 W/m 6,6 C 13,5 C 22,5 km/h (4 Bft) 100,00 %
15.11.2015 23:45 15,8 C 54 % 1015,6 hPa 0,0 l/m 11,9 km/h (2 Bft) W-SW 256 0 min 0,000 mm 0,0 UV-I 0 W/m 6,5 C 13,2 C 25,7 km/h (4 Bft) 99,13 %
15.11.2015 23:50 15,8 C 54 % 1015,7 hPa 0,0 l/m 13,4 km/h (3 Bft) W-NW 297 0 min 0,000 mm 0,0 UV-I 0 W/m 6,5 C 12,7 C 25,7 km/h (4 Bft) 98,39 %
15.11.2015 23:55 15,7 C 54 % 1015,9 hPa 0,0 l/m 10,6 km/h (2 Bft) N-NW 346 0 min 0,000 mm 0,0 UV-I 0 W/m 6,4 C 13,6 C 19,3 km/h (3 Bft) 99,07 %
_ Min-Zeit 06:15 21:15 17:46 - 00:20 - - - - - - 00:07 03:23 00:20 09:59
Minimum _ 6,9 C 53 % 1013,0 hPa - 0,0 km/h (0 Bft) - - - - - - 3,7 C 1,3 C 0,0 km/h (0 Bft) 83,33 %
_ Max-Zeit 21:51 08:15 00:00 03:33 03:23 - - 13:23 14:00 11:26 13:37 14:01 21:28 03:21 00:00
Maximum _ 16,5 C 96 % 1023,0 hPa 0,2 l/m 19,3 km/h
W-NW (3 Bft)
- - 1 min 0,127 mm 0,8 UV-I 372 W/m 8,5 C 15,8 C 30,6 km/h
W (5 Bft)
100,00 %
Durchschnitt _ 10,1 C 80 % 1016,5 hPa #5,0 l/m 5,5 km/h (1 Bft) W - #1:33 h #0,787 mm 0,6 UV-I 96 W/m 6,7 C 9,4 C 9,3 km/h (2 Bft) 99,21 %